<?xml version="1.0" encoding="UTF-8" standalone="no" ?>
<gpx xmlns="http://www.topografix.com/GPX/1/1" xmlns:xsi="http://www.w3.org/2001/XMLSchema-instance" xsi:schemaLocation="http://www.topografix.com/GPX/1/1 http://www.topografix.com/GPX/1/1/gpx.xsd" version="1.1" creator="VisuGPX - https://www.visugpx.com">
  <metadata>
    <name>Syam,Côte Poire,Pertes de L'ain....</name>
  </metadata>
  <trk>
    <name><![CDATA[tmp]]></name>
    <extensions>
      <line xmlns="http://www.topografix.com/GPX/gpx_style/0/2">
        <color>0000FF</color>
        <width>4</width>
      </line>
    </extensions>
    <trkseg>
      <trkpt lat="46.72469" lon="5.95618">
        <ele>543</ele>
        <time>2021-04-29T11:42:32Z</time>
      </trkpt>
      <trkpt lat="46.72465" lon="5.95623">
        <ele>543</ele>
        <time>2021-04-29T11:42:42Z</time>
      </trkpt>
      <trkpt lat="46.72462" lon="5.95628">
        <ele>542.5</ele>
        <time>2021-04-29T11:42:54Z</time>
      </trkpt>
      <trkpt lat="46.72457" lon="5.95629">
        <ele>542.3</ele>
        <time>2021-04-29T11:43:32Z</time>
      </trkpt>
      <trkpt lat="46.72454" lon="5.95623">
        <ele>541</ele>
        <time>2021-04-29T11:43:40Z</time>
      </trkpt>
      <trkpt lat="46.72451" lon="5.95617">
        <ele>539.1</ele>
        <time>2021-04-29T11:43:49Z</time>
      </trkpt>
      <trkpt lat="46.72447" lon="5.95624">
        <ele>535.4</ele>
        <time>2021-04-29T11:43:57Z</time>
      </trkpt>
      <trkpt lat="46.72443" lon="5.95629">
        <ele>533.9</ele>
        <time>2021-04-29T11:44:01Z</time>
      </trkpt>
      <trkpt lat="46.7244" lon="5.95634">
        <ele>532.7</ele>
        <time>2021-04-29T11:44:06Z</time>
      </trkpt>
      <trkpt lat="46.72436" lon="5.9564">
        <ele>532</ele>
        <time>2021-04-29T11:44:11Z</time>
      </trkpt>
      <trkpt lat="46.72432" lon="5.95646">
        <ele>531.9</ele>
        <time>2021-04-29T11:44:15Z</time>
      </trkpt>
      <trkpt lat="46.7243" lon="5.95652">
        <ele>531.8</ele>
        <time>2021-04-29T11:44:19Z</time>
      </trkpt>
      <trkpt lat="46.72426" lon="5.95657">
        <ele>531.6</ele>
        <time>2021-04-29T11:44:25Z</time>
      </trkpt>
      <trkpt lat="46.72422" lon="5.95661">
        <ele>531.5</ele>
        <time>2021-04-29T11:44:30Z</time>
      </trkpt>
      <trkpt lat="46.72418" lon="5.95665">
        <ele>531.6</ele>
        <time>2021-04-29T11:44:37Z</time>
      </trkpt>
      <trkpt lat="46.72413" lon="5.95669">
        <ele>531.7</ele>
        <time>2021-04-29T11:44:43Z</time>
      </trkpt>
      <trkpt lat="46.72408" lon="5.95672">
        <ele>531.8</ele>
        <time>2021-04-29T11:44:47Z</time>
      </trkpt>
      <trkpt lat="46.72403" lon="5.95674">
        <ele>531.8</ele>
        <time>2021-04-29T11:44:52Z</time>
      </trkpt>
      <trkpt lat="46.72398" lon="5.95674">
        <ele>531.9</ele>
        <time>2021-04-29T11:44:56Z</time>
      </trkpt>
      <trkpt lat="46.72393" lon="5.95675">
        <ele>531.4</ele>
        <time>2021-04-29T11:45:00Z</time>
      </trkpt>
      <trkpt lat="46.72388" lon="5.95675">
        <ele>529.9</ele>
        <time>2021-04-29T11:45:04Z</time>
      </trkpt>
      <trkpt lat="46.72383" lon="5.95673">
        <ele>527.7</ele>
        <time>2021-04-29T11:45:09Z</time>
      </trkpt>
      <trkpt lat="46.72379" lon="5.95671">
        <ele>527.9</ele>
        <time>2021-04-29T11:45:13Z</time>
      </trkpt>
      <trkpt lat="46.72374" lon="5.95668">
        <ele>529.7</ele>
        <time>2021-04-29T11:45:17Z</time>
      </trkpt>
      <trkpt lat="46.72369" lon="5.95664">
        <ele>531.8</ele>
        <time>2021-04-29T11:45:21Z</time>
      </trkpt>
      <trkpt lat="46.72365" lon="5.95662">
        <ele>534.2</ele>
        <time>2021-04-29T11:45:25Z</time>
      </trkpt>
      <trkpt lat="46.72361" lon="5.95658">
        <ele>537</ele>
        <time>2021-04-29T11:45:29Z</time>
      </trkpt>
      <trkpt lat="46.72358" lon="5.95652">
        <ele>541.2</ele>
        <time>2021-04-29T11:45:35Z</time>
      </trkpt>
      <trkpt lat="46.72355" lon="5.95647">
        <ele>545.1</ele>
        <time>2021-04-29T11:45:40Z</time>
      </trkpt>
      <trkpt lat="46.72351" lon="5.95642">
        <ele>548.5</ele>
        <time>2021-04-29T11:45:45Z</time>
      </trkpt>
      <trkpt lat="46.72348" lon="5.95637">
        <ele>551.2</ele>
        <time>2021-04-29T11:45:49Z</time>
      </trkpt>
      <trkpt lat="46.72345" lon="5.9563">
        <ele>554.5</ele>
        <time>2021-04-29T11:45:54Z</time>
      </trkpt>
      <trkpt lat="46.72341" lon="5.95625">
        <ele>558.2</ele>
        <time>2021-04-29T11:45:59Z</time>
      </trkpt>
      <trkpt lat="46.72337" lon="5.9562">
        <ele>562.4</ele>
        <time>2021-04-29T11:46:05Z</time>
      </trkpt>
      <trkpt lat="46.72334" lon="5.95615">
        <ele>563.2</ele>
        <time>2021-04-29T11:46:10Z</time>
      </trkpt>
      <trkpt lat="46.7233" lon="5.9561">
        <ele>560</ele>
        <time>2021-04-29T11:46:14Z</time>
      </trkpt>
      <trkpt lat="46.72326" lon="5.95604">
        <ele>555.6</ele>
        <time>2021-04-29T11:46:19Z</time>
      </trkpt>
      <trkpt lat="46.72324" lon="5.95598">
        <ele>550.4</ele>
        <time>2021-04-29T11:46:24Z</time>
      </trkpt>
      <trkpt lat="46.7232" lon="5.95593">
        <ele>544.9</ele>
        <time>2021-04-29T11:46:30Z</time>
      </trkpt>
      <trkpt lat="46.72316" lon="5.95587">
        <ele>540.5</ele>
        <time>2021-04-29T11:46:35Z</time>
      </trkpt>
      <trkpt lat="46.72313" lon="5.95582">
        <ele>537.7</ele>
        <time>2021-04-29T11:46:39Z</time>
      </trkpt>
      <trkpt lat="46.7231" lon="5.95576">
        <ele>535.3</ele>
        <time>2021-04-29T11:46:43Z</time>
      </trkpt>
      <trkpt lat="46.72308" lon="5.95569">
        <ele>533.3</ele>
        <time>2021-04-29T11:46:47Z</time>
      </trkpt>
      <trkpt lat="46.72308" lon="5.95562">
        <ele>531.9</ele>
        <time>2021-04-29T11:46:52Z</time>
      </trkpt>
      <trkpt lat="46.72308" lon="5.95555">
        <ele>530.3</ele>
        <time>2021-04-29T11:46:59Z</time>
      </trkpt>
      <trkpt lat="46.72307" lon="5.95562">
        <ele>533.6</ele>
        <time>2021-04-29T11:47:44Z</time>
      </trkpt>
      <trkpt lat="46.72302" lon="5.95564">
        <ele>539.3</ele>
        <time>2021-04-29T11:47:52Z</time>
      </trkpt>
      <trkpt lat="46.72299" lon="5.95558">
        <ele>543.3</ele>
        <time>2021-04-29T11:47:57Z</time>
      </trkpt>
      <trkpt lat="46.72295" lon="5.95553">
        <ele>546.5</ele>
        <time>2021-04-29T11:48:02Z</time>
      </trkpt>
      <trkpt lat="46.72293" lon="5.95547">
        <ele>550.1</ele>
        <time>2021-04-29T11:48:08Z</time>
      </trkpt>
      <trkpt lat="46.7229" lon="5.95541">
        <ele>552.7</ele>
        <time>2021-04-29T11:48:13Z</time>
      </trkpt>
      <trkpt lat="46.72286" lon="5.95536">
        <ele>555.1</ele>
        <time>2021-04-29T11:48:19Z</time>
      </trkpt>
      <trkpt lat="46.72281" lon="5.95534">
        <ele>555</ele>
        <time>2021-04-29T11:48:24Z</time>
      </trkpt>
      <trkpt lat="46.72276" lon="5.95533">
        <ele>554.3</ele>
        <time>2021-04-29T11:48:29Z</time>
      </trkpt>
      <trkpt lat="46.72273" lon="5.95529">
        <ele>553.9</ele>
        <time>2021-04-29T11:48:34Z</time>
      </trkpt>
      <trkpt lat="46.7227" lon="5.95524">
        <ele>553.4</ele>
        <time>2021-04-29T11:48:38Z</time>
      </trkpt>
      <trkpt lat="46.72266" lon="5.95519">
        <ele>553.4</ele>
        <time>2021-04-29T11:48:43Z</time>
      </trkpt>
      <trkpt lat="46.72262" lon="5.95511">
        <ele>553.3</ele>
        <time>2021-04-29T11:48:48Z</time>
      </trkpt>
      <trkpt lat="46.72259" lon="5.95505">
        <ele>553</ele>
        <time>2021-04-29T11:48:52Z</time>
      </trkpt>
      <trkpt lat="46.72255" lon="5.95501">
        <ele>552.6</ele>
        <time>2021-04-29T11:48:58Z</time>
      </trkpt>
      <trkpt lat="46.72251" lon="5.95495">
        <ele>552.3</ele>
        <time>2021-04-29T11:49:03Z</time>
      </trkpt>
      <trkpt lat="46.72246" lon="5.95491">
        <ele>552.1</ele>
        <time>2021-04-29T11:49:08Z</time>
      </trkpt>
      <trkpt lat="46.72242" lon="5.95488">
        <ele>552.1</ele>
        <time>2021-04-29T11:49:13Z</time>
      </trkpt>
      <trkpt lat="46.72238" lon="5.95481">
        <ele>551.5</ele>
        <time>2021-04-29T11:49:17Z</time>
      </trkpt>
      <trkpt lat="46.72235" lon="5.95475">
        <ele>550.7</ele>
        <time>2021-04-29T11:49:21Z</time>
      </trkpt>
      <trkpt lat="46.72232" lon="5.95469">
        <ele>550.3</ele>
        <time>2021-04-29T11:49:27Z</time>
      </trkpt>
      <trkpt lat="46.72231" lon="5.95455">
        <ele>549.1</ele>
        <time>2021-04-29T11:49:31Z</time>
      </trkpt>
      <trkpt lat="46.72231" lon="5.95447">
        <ele>548.2</ele>
        <time>2021-04-29T11:49:35Z</time>
      </trkpt>
      <trkpt lat="46.72232" lon="5.9544">
        <ele>547.3</ele>
        <time>2021-04-29T11:49:43Z</time>
      </trkpt>
      <trkpt lat="46.72231" lon="5.95432">
        <ele>546.1</ele>
        <time>2021-04-29T11:49:47Z</time>
      </trkpt>
      <trkpt lat="46.72227" lon="5.95419">
        <ele>545.6</ele>
        <time>2021-04-29T11:49:51Z</time>
      </trkpt>
      <trkpt lat="46.72225" lon="5.95412">
        <ele>545.3</ele>
        <time>2021-04-29T11:49:55Z</time>
      </trkpt>
      <trkpt lat="46.72224" lon="5.95405">
        <ele>545.1</ele>
        <time>2021-04-29T11:50:03Z</time>
      </trkpt>
      <trkpt lat="46.72225" lon="5.95398">
        <ele>544.8</ele>
        <time>2021-04-29T11:50:08Z</time>
      </trkpt>
      <trkpt lat="46.72224" lon="5.9539">
        <ele>544.2</ele>
        <time>2021-04-29T11:50:12Z</time>
      </trkpt>
      <trkpt lat="46.72221" lon="5.95384">
        <ele>543.6</ele>
        <time>2021-04-29T11:50:17Z</time>
      </trkpt>
      <trkpt lat="46.7222" lon="5.95377">
        <ele>543.1</ele>
        <time>2021-04-29T11:50:21Z</time>
      </trkpt>
      <trkpt lat="46.72219" lon="5.95371">
        <ele>542.4</ele>
        <time>2021-04-29T11:50:27Z</time>
      </trkpt>
      <trkpt lat="46.72218" lon="5.95363">
        <ele>541.7</ele>
        <time>2021-04-29T11:50:32Z</time>
      </trkpt>
      <trkpt lat="46.72218" lon="5.95355">
        <ele>541.5</ele>
        <time>2021-04-29T11:50:36Z</time>
      </trkpt>
      <trkpt lat="46.72217" lon="5.95347">
        <ele>541.3</ele>
        <time>2021-04-29T11:50:40Z</time>
      </trkpt>
      <trkpt lat="46.72217" lon="5.95339">
        <ele>541.1</ele>
        <time>2021-04-29T11:50:44Z</time>
      </trkpt>
      <trkpt lat="46.72216" lon="5.95332">
        <ele>539.5</ele>
        <time>2021-04-29T11:50:48Z</time>
      </trkpt>
      <trkpt lat="46.72214" lon="5.95325">
        <ele>536.4</ele>
        <time>2021-04-29T11:50:54Z</time>
      </trkpt>
      <trkpt lat="46.72214" lon="5.95317">
        <ele>531.1</ele>
        <time>2021-04-29T11:51:03Z</time>
      </trkpt>
      <trkpt lat="46.7221" lon="5.95311">
        <ele>529.4</ele>
        <time>2021-04-29T11:51:07Z</time>
      </trkpt>
      <trkpt lat="46.72206" lon="5.95307">
        <ele>526.9</ele>
        <time>2021-04-29T11:51:13Z</time>
      </trkpt>
      <trkpt lat="46.72203" lon="5.95302">
        <ele>525.3</ele>
        <time>2021-04-29T11:51:18Z</time>
      </trkpt>
      <trkpt lat="46.722" lon="5.95295">
        <ele>525</ele>
        <time>2021-04-29T11:51:22Z</time>
      </trkpt>
      <trkpt lat="46.72197" lon="5.95286">
        <ele>525.8</ele>
        <time>2021-04-29T11:51:26Z</time>
      </trkpt>
      <trkpt lat="46.72194" lon="5.95278">
        <ele>527</ele>
        <time>2021-04-29T11:51:30Z</time>
      </trkpt>
      <trkpt lat="46.72191" lon="5.95273">
        <ele>529.4</ele>
        <time>2021-04-29T11:51:34Z</time>
      </trkpt>
      <trkpt lat="46.72187" lon="5.9527">
        <ele>529.9</ele>
        <time>2021-04-29T11:51:38Z</time>
      </trkpt>
      <trkpt lat="46.72184" lon="5.95264">
        <ele>532</ele>
        <time>2021-04-29T11:51:45Z</time>
      </trkpt>
      <trkpt lat="46.72179" lon="5.95261">
        <ele>531.6</ele>
        <time>2021-04-29T11:51:51Z</time>
      </trkpt>
      <trkpt lat="46.72176" lon="5.95265">
        <ele>539.3</ele>
        <time>2021-04-29T11:52:04Z</time>
      </trkpt>
      <trkpt lat="46.72172" lon="5.9526">
        <ele>539.4</ele>
        <time>2021-04-29T11:52:30Z</time>
      </trkpt>
      <trkpt lat="46.7217" lon="5.95254">
        <ele>540.5</ele>
        <time>2021-04-29T11:52:36Z</time>
      </trkpt>
      <trkpt lat="46.72167" lon="5.95248">
        <ele>542.1</ele>
        <time>2021-04-29T11:52:41Z</time>
      </trkpt>
      <trkpt lat="46.72163" lon="5.95243">
        <ele>543.3</ele>
        <time>2021-04-29T11:52:45Z</time>
      </trkpt>
      <trkpt lat="46.72159" lon="5.95238">
        <ele>544.7</ele>
        <time>2021-04-29T11:52:50Z</time>
      </trkpt>
      <trkpt lat="46.72155" lon="5.95236">
        <ele>546.5</ele>
        <time>2021-04-29T11:52:57Z</time>
      </trkpt>
      <trkpt lat="46.72151" lon="5.95231">
        <ele>548.3</ele>
        <time>2021-04-29T11:53:03Z</time>
      </trkpt>
      <trkpt lat="46.72146" lon="5.95226">
        <ele>548.2</ele>
        <time>2021-04-29T11:53:07Z</time>
      </trkpt>
      <trkpt lat="46.72141" lon="5.95219">
        <ele>547.8</ele>
        <time>2021-04-29T11:53:11Z</time>
      </trkpt>
      <trkpt lat="46.72137" lon="5.95213">
        <ele>547.3</ele>
        <time>2021-04-29T11:53:15Z</time>
      </trkpt>
      <trkpt lat="46.72132" lon="5.95211">
        <ele>547</ele>
        <time>2021-04-29T11:53:19Z</time>
      </trkpt>
      <trkpt lat="46.72127" lon="5.95209">
        <ele>546.3</ele>
        <time>2021-04-29T11:53:23Z</time>
      </trkpt>
      <trkpt lat="46.72122" lon="5.95207">
        <ele>546</ele>
        <time>2021-04-29T11:53:28Z</time>
      </trkpt>
      <trkpt lat="46.72117" lon="5.95204">
        <ele>546.1</ele>
        <time>2021-04-29T11:53:33Z</time>
      </trkpt>
      <trkpt lat="46.72112" lon="5.95202">
        <ele>546.2</ele>
        <time>2021-04-29T11:53:38Z</time>
      </trkpt>
      <trkpt lat="46.72108" lon="5.95197">
        <ele>546.1</ele>
        <time>2021-04-29T11:53:42Z</time>
      </trkpt>
      <trkpt lat="46.72103" lon="5.95193">
        <ele>545.8</ele>
        <time>2021-04-29T11:53:46Z</time>
      </trkpt>
      <trkpt lat="46.72098" lon="5.95189">
        <ele>545.9</ele>
        <time>2021-04-29T11:53:50Z</time>
      </trkpt>
      <trkpt lat="46.72093" lon="5.95185">
        <ele>546.2</ele>
        <time>2021-04-29T11:53:54Z</time>
      </trkpt>
      <trkpt lat="46.72088" lon="5.95183">
        <ele>546.3</ele>
        <time>2021-04-29T11:53:59Z</time>
      </trkpt>
      <trkpt lat="46.72083" lon="5.95182">
        <ele>546.3</ele>
        <time>2021-04-29T11:54:05Z</time>
      </trkpt>
      <trkpt lat="46.72078" lon="5.95181">
        <ele>546.1</ele>
        <time>2021-04-29T11:54:11Z</time>
      </trkpt>
      <trkpt lat="46.72073" lon="5.9518">
        <ele>546.1</ele>
        <time>2021-04-29T11:54:16Z</time>
      </trkpt>
      <trkpt lat="46.72068" lon="5.95179">
        <ele>545.9</ele>
        <time>2021-04-29T11:54:21Z</time>
      </trkpt>
      <trkpt lat="46.72063" lon="5.95178">
        <ele>545.6</ele>
        <time>2021-04-29T11:54:26Z</time>
      </trkpt>
      <trkpt lat="46.72058" lon="5.95176">
        <ele>545</ele>
        <time>2021-04-29T11:54:31Z</time>
      </trkpt>
      <trkpt lat="46.72054" lon="5.95173">
        <ele>544.2</ele>
        <time>2021-04-29T11:54:36Z</time>
      </trkpt>
      <trkpt lat="46.72049" lon="5.95172">
        <ele>542.8</ele>
        <time>2021-04-29T11:54:42Z</time>
      </trkpt>
      <trkpt lat="46.72044" lon="5.9517">
        <ele>542</ele>
        <time>2021-04-29T11:54:47Z</time>
      </trkpt>
      <trkpt lat="46.72039" lon="5.95168">
        <ele>540.9</ele>
        <time>2021-04-29T11:54:53Z</time>
      </trkpt>
      <trkpt lat="46.72034" lon="5.95167">
        <ele>539.8</ele>
        <time>2021-04-29T11:54:59Z</time>
      </trkpt>
      <trkpt lat="46.72029" lon="5.95168">
        <ele>539.3</ele>
        <time>2021-04-29T11:55:03Z</time>
      </trkpt>
      <trkpt lat="46.72024" lon="5.95167">
        <ele>539</ele>
        <time>2021-04-29T11:55:08Z</time>
      </trkpt>
      <trkpt lat="46.72019" lon="5.95167">
        <ele>538.8</ele>
        <time>2021-04-29T11:55:13Z</time>
      </trkpt>
      <trkpt lat="46.72014" lon="5.95166">
        <ele>538</ele>
        <time>2021-04-29T11:55:19Z</time>
      </trkpt>
      <trkpt lat="46.72009" lon="5.95163">
        <ele>537.5</ele>
        <time>2021-04-29T11:55:23Z</time>
      </trkpt>
      <trkpt lat="46.72005" lon="5.9516">
        <ele>536.9</ele>
        <time>2021-04-29T11:55:27Z</time>
      </trkpt>
      <trkpt lat="46.71999" lon="5.95158">
        <ele>536.8</ele>
        <time>2021-04-29T11:55:31Z</time>
      </trkpt>
      <trkpt lat="46.71994" lon="5.9516">
        <ele>537</ele>
        <time>2021-04-29T11:55:35Z</time>
      </trkpt>
      <trkpt lat="46.71988" lon="5.95161">
        <ele>537.6</ele>
        <time>2021-04-29T11:55:39Z</time>
      </trkpt>
      <trkpt lat="46.71983" lon="5.95161">
        <ele>538.3</ele>
        <time>2021-04-29T11:55:44Z</time>
      </trkpt>
      <trkpt lat="46.71979" lon="5.95163">
        <ele>539</ele>
        <time>2021-04-29T11:55:53Z</time>
      </trkpt>
      <trkpt lat="46.71974" lon="5.9516">
        <ele>539.3</ele>
        <time>2021-04-29T11:56:01Z</time>
      </trkpt>
      <trkpt lat="46.7197" lon="5.95157">
        <ele>540.3</ele>
        <time>2021-04-29T11:56:11Z</time>
      </trkpt>
      <trkpt lat="46.71965" lon="5.95157">
        <ele>540.8</ele>
        <time>2021-04-29T11:56:15Z</time>
      </trkpt>
      <trkpt lat="46.7196" lon="5.95157">
        <ele>541.1</ele>
        <time>2021-04-29T11:56:19Z</time>
      </trkpt>
      <trkpt lat="46.71956" lon="5.95161">
        <ele>542</ele>
        <time>2021-04-29T11:56:25Z</time>
      </trkpt>
      <trkpt lat="46.71951" lon="5.95165">
        <ele>542.5</ele>
        <time>2021-04-29T11:56:31Z</time>
      </trkpt>
      <trkpt lat="46.71946" lon="5.95169">
        <ele>543.1</ele>
        <time>2021-04-29T11:56:35Z</time>
      </trkpt>
      <trkpt lat="46.71942" lon="5.95171">
        <ele>543.5</ele>
        <time>2021-04-29T11:56:39Z</time>
      </trkpt>
      <trkpt lat="46.71937" lon="5.95172">
        <ele>543.4</ele>
        <time>2021-04-29T11:56:45Z</time>
      </trkpt>
      <trkpt lat="46.71932" lon="5.95176">
        <ele>543.8</ele>
        <time>2021-04-29T11:56:49Z</time>
      </trkpt>
      <trkpt lat="46.71929" lon="5.9518">
        <ele>544.1</ele>
        <time>2021-04-29T11:56:54Z</time>
      </trkpt>
      <trkpt lat="46.71925" lon="5.95184">
        <ele>544.5</ele>
        <time>2021-04-29T11:57:28Z</time>
      </trkpt>
      <trkpt lat="46.71921" lon="5.95189">
        <ele>544.3</ele>
        <time>2021-04-29T11:57:33Z</time>
      </trkpt>
      <trkpt lat="46.71918" lon="5.95194">
        <ele>544.1</ele>
        <time>2021-04-29T11:57:38Z</time>
      </trkpt>
      <trkpt lat="46.71922" lon="5.9519">
        <ele>543.8</ele>
        <time>2021-04-29T11:57:51Z</time>
      </trkpt>
      <trkpt lat="46.71925" lon="5.95185">
        <ele>543.9</ele>
        <time>2021-04-29T11:57:57Z</time>
      </trkpt>
      <trkpt lat="46.71925" lon="5.95178">
        <ele>544.5</ele>
        <time>2021-04-29T11:58:03Z</time>
      </trkpt>
      <trkpt lat="46.71921" lon="5.95175">
        <ele>545</ele>
        <time>2021-04-29T11:58:10Z</time>
      </trkpt>
      <trkpt lat="46.71917" lon="5.9518">
        <ele>545.2</ele>
        <time>2021-04-29T11:58:16Z</time>
      </trkpt>
      <trkpt lat="46.71913" lon="5.95184">
        <ele>544.6</ele>
        <time>2021-04-29T11:58:20Z</time>
      </trkpt>
      <trkpt lat="46.71914" lon="5.9519">
        <ele>543.2</ele>
        <time>2021-04-29T11:58:30Z</time>
      </trkpt>
      <trkpt lat="46.71912" lon="5.95197">
        <ele>543.1</ele>
        <time>2021-04-29T11:58:35Z</time>
      </trkpt>
      <trkpt lat="46.71912" lon="5.95205">
        <ele>542.8</ele>
        <time>2021-04-29T11:58:40Z</time>
      </trkpt>
      <trkpt lat="46.71916" lon="5.95201">
        <ele>541.6</ele>
        <time>2021-04-29T11:58:48Z</time>
      </trkpt>
      <trkpt lat="46.71918" lon="5.95195">
        <ele>541.2</ele>
        <time>2021-04-29T11:58:55Z</time>
      </trkpt>
      <trkpt lat="46.71916" lon="5.95189">
        <ele>540.8</ele>
        <time>2021-04-29T11:59:00Z</time>
      </trkpt>
      <trkpt lat="46.71912" lon="5.95183">
        <ele>538.7</ele>
        <time>2021-04-29T11:59:04Z</time>
      </trkpt>
      <trkpt lat="46.71907" lon="5.9518">
        <ele>537.5</ele>
        <time>2021-04-29T11:59:08Z</time>
      </trkpt>
      <trkpt lat="46.71902" lon="5.95182">
        <ele>537.4</ele>
        <time>2021-04-29T11:59:13Z</time>
      </trkpt>
      <trkpt lat="46.71897" lon="5.95186">
        <ele>537.6</ele>
        <time>2021-04-29T11:59:20Z</time>
      </trkpt>
      <trkpt lat="46.71893" lon="5.9519">
        <ele>537.7</ele>
        <time>2021-04-29T11:59:25Z</time>
      </trkpt>
      <trkpt lat="46.71889" lon="5.95194">
        <ele>538.3</ele>
        <time>2021-04-29T11:59:31Z</time>
      </trkpt>
      <trkpt lat="46.71884" lon="5.95195">
        <ele>537.5</ele>
        <time>2021-04-29T11:59:36Z</time>
      </trkpt>
      <trkpt lat="46.71879" lon="5.95198">
        <ele>536.6</ele>
        <time>2021-04-29T11:59:40Z</time>
      </trkpt>
      <trkpt lat="46.71873" lon="5.95202">
        <ele>535.7</ele>
        <time>2021-04-29T11:59:44Z</time>
      </trkpt>
      <trkpt lat="46.71867" lon="5.95202">
        <ele>534.7</ele>
        <time>2021-04-29T11:59:48Z</time>
      </trkpt>
      <trkpt lat="46.71862" lon="5.95201">
        <ele>534.2</ele>
        <time>2021-04-29T11:59:53Z</time>
      </trkpt>
      <trkpt lat="46.71858" lon="5.952">
        <ele>534.1</ele>
        <time>2021-04-29T11:59:58Z</time>
      </trkpt>
      <trkpt lat="46.71852" lon="5.952">
        <ele>534.3</ele>
        <time>2021-04-29T12:00:03Z</time>
      </trkpt>
      <trkpt lat="46.71848" lon="5.95197">
        <ele>534.5</ele>
        <time>2021-04-29T12:00:08Z</time>
      </trkpt>
      <trkpt lat="46.71843" lon="5.95193">
        <ele>534.8</ele>
        <time>2021-04-29T12:00:13Z</time>
      </trkpt>
      <trkpt lat="46.71838" lon="5.95191">
        <ele>535</ele>
        <time>2021-04-29T12:00:17Z</time>
      </trkpt>
      <trkpt lat="46.71833" lon="5.95188">
        <ele>535.3</ele>
        <time>2021-04-29T12:00:21Z</time>
      </trkpt>
      <trkpt lat="46.71827" lon="5.95182">
        <ele>537.5</ele>
        <time>2021-04-29T12:00:25Z</time>
      </trkpt>
      <trkpt lat="46.71823" lon="5.95182">
        <ele>537.9</ele>
        <time>2021-04-29T12:00:33Z</time>
      </trkpt>
      <trkpt lat="46.71818" lon="5.95179">
        <ele>535.6</ele>
        <time>2021-04-29T12:00:39Z</time>
      </trkpt>
      <trkpt lat="46.71813" lon="5.95176">
        <ele>533.5</ele>
        <time>2021-04-29T12:00:43Z</time>
      </trkpt>
      <trkpt lat="46.71807" lon="5.95174">
        <ele>531.5</ele>
        <time>2021-04-29T12:00:47Z</time>
      </trkpt>
      <trkpt lat="46.71801" lon="5.95169">
        <ele>530.6</ele>
        <time>2021-04-29T12:00:51Z</time>
      </trkpt>
      <trkpt lat="46.71796" lon="5.95166">
        <ele>529.2</ele>
        <time>2021-04-29T12:00:55Z</time>
      </trkpt>
      <trkpt lat="46.71792" lon="5.95163">
        <ele>527.5</ele>
        <time>2021-04-29T12:00:59Z</time>
      </trkpt>
      <trkpt lat="46.71787" lon="5.95159">
        <ele>525.3</ele>
        <time>2021-04-29T12:01:04Z</time>
      </trkpt>
      <trkpt lat="46.71783" lon="5.95156">
        <ele>522.6</ele>
        <time>2021-04-29T12:01:10Z</time>
      </trkpt>
      <trkpt lat="46.71778" lon="5.95156">
        <ele>519.7</ele>
        <time>2021-04-29T12:01:17Z</time>
      </trkpt>
      <trkpt lat="46.71773" lon="5.95153">
        <ele>517.9</ele>
        <time>2021-04-29T12:01:23Z</time>
      </trkpt>
      <trkpt lat="46.71768" lon="5.95152">
        <ele>516.7</ele>
        <time>2021-04-29T12:01:30Z</time>
      </trkpt>
      <trkpt lat="46.71762" lon="5.95149">
        <ele>517.3</ele>
        <time>2021-04-29T12:01:35Z</time>
      </trkpt>
      <trkpt lat="46.71751" lon="5.95152">
        <ele>521.7</ele>
        <time>2021-04-29T12:01:39Z</time>
      </trkpt>
      <trkpt lat="46.71746" lon="5.95151">
        <ele>524.1</ele>
        <time>2021-04-29T12:01:43Z</time>
      </trkpt>
      <trkpt lat="46.71741" lon="5.95148">
        <ele>526.8</ele>
        <time>2021-04-29T12:01:47Z</time>
      </trkpt>
      <trkpt lat="46.71737" lon="5.95144">
        <ele>528.4</ele>
        <time>2021-04-29T12:01:51Z</time>
      </trkpt>
      <trkpt lat="46.71733" lon="5.9514">
        <ele>529.6</ele>
        <time>2021-04-29T12:01:55Z</time>
      </trkpt>
      <trkpt lat="46.71724" lon="5.95141">
        <ele>532</ele>
        <time>2021-04-29T12:01:59Z</time>
      </trkpt>
      <trkpt lat="46.71717" lon="5.95138">
        <ele>533.5</ele>
        <time>2021-04-29T12:02:03Z</time>
      </trkpt>
      <trkpt lat="46.71713" lon="5.95137">
        <ele>534.4</ele>
        <time>2021-04-29T12:02:07Z</time>
      </trkpt>
      <trkpt lat="46.71708" lon="5.95136">
        <ele>534.6</ele>
        <time>2021-04-29T12:02:12Z</time>
      </trkpt>
      <trkpt lat="46.71703" lon="5.95136">
        <ele>534.8</ele>
        <time>2021-04-29T12:02:17Z</time>
      </trkpt>
      <trkpt lat="46.71699" lon="5.95134">
        <ele>534.8</ele>
        <time>2021-04-29T12:02:24Z</time>
      </trkpt>
      <trkpt lat="46.71694" lon="5.9513">
        <ele>534.4</ele>
        <time>2021-04-29T12:02:29Z</time>
      </trkpt>
      <trkpt lat="46.7169" lon="5.95128">
        <ele>534.4</ele>
        <time>2021-04-29T12:02:33Z</time>
      </trkpt>
      <trkpt lat="46.71685" lon="5.95126">
        <ele>534.4</ele>
        <time>2021-04-29T12:02:38Z</time>
      </trkpt>
      <trkpt lat="46.7168" lon="5.95125">
        <ele>533.5</ele>
        <time>2021-04-29T12:02:43Z</time>
      </trkpt>
      <trkpt lat="46.71674" lon="5.95125">
        <ele>533.3</ele>
        <time>2021-04-29T12:02:47Z</time>
      </trkpt>
      <trkpt lat="46.71668" lon="5.95126">
        <ele>532.7</ele>
        <time>2021-04-29T12:02:51Z</time>
      </trkpt>
      <trkpt lat="46.71663" lon="5.95127">
        <ele>532</ele>
        <time>2021-04-29T12:02:55Z</time>
      </trkpt>
      <trkpt lat="46.71657" lon="5.95128">
        <ele>531.8</ele>
        <time>2021-04-29T12:02:59Z</time>
      </trkpt>
      <trkpt lat="46.71652" lon="5.95128">
        <ele>531.7</ele>
        <time>2021-04-29T12:03:04Z</time>
      </trkpt>
      <trkpt lat="46.71648" lon="5.95126">
        <ele>532.2</ele>
        <time>2021-04-29T12:03:09Z</time>
      </trkpt>
      <trkpt lat="46.71643" lon="5.95123">
        <ele>532.8</ele>
        <time>2021-04-29T12:03:14Z</time>
      </trkpt>
      <trkpt lat="46.71636" lon="5.95122">
        <ele>534.1</ele>
        <time>2021-04-29T12:03:18Z</time>
      </trkpt>
      <trkpt lat="46.7163" lon="5.95121">
        <ele>535</ele>
        <time>2021-04-29T12:03:22Z</time>
      </trkpt>
      <trkpt lat="46.71625" lon="5.9512">
        <ele>535.7</ele>
        <time>2021-04-29T12:03:26Z</time>
      </trkpt>
      <trkpt lat="46.7162" lon="5.95118">
        <ele>536.5</ele>
        <time>2021-04-29T12:03:30Z</time>
      </trkpt>
      <trkpt lat="46.71615" lon="5.95116">
        <ele>537.2</ele>
        <time>2021-04-29T12:03:34Z</time>
      </trkpt>
      <trkpt lat="46.71609" lon="5.95116">
        <ele>538.1</ele>
        <time>2021-04-29T12:03:38Z</time>
      </trkpt>
      <trkpt lat="46.71605" lon="5.95115">
        <ele>539.2</ele>
        <time>2021-04-29T12:03:44Z</time>
      </trkpt>
      <trkpt lat="46.71601" lon="5.95112">
        <ele>541.1</ele>
        <time>2021-04-29T12:03:48Z</time>
      </trkpt>
      <trkpt lat="46.71596" lon="5.9511">
        <ele>542.5</ele>
        <time>2021-04-29T12:03:52Z</time>
      </trkpt>
      <trkpt lat="46.71591" lon="5.95109">
        <ele>543.4</ele>
        <time>2021-04-29T12:03:56Z</time>
      </trkpt>
      <trkpt lat="46.71587" lon="5.95109">
        <ele>544.1</ele>
        <time>2021-04-29T12:04:00Z</time>
      </trkpt>
      <trkpt lat="46.71582" lon="5.95109">
        <ele>544.7</ele>
        <time>2021-04-29T12:04:04Z</time>
      </trkpt>
      <trkpt lat="46.71577" lon="5.95108">
        <ele>545.2</ele>
        <time>2021-04-29T12:04:09Z</time>
      </trkpt>
      <trkpt lat="46.71571" lon="5.95108">
        <ele>545.8</ele>
        <time>2021-04-29T12:04:14Z</time>
      </trkpt>
      <trkpt lat="46.71566" lon="5.95108">
        <ele>546.1</ele>
        <time>2021-04-29T12:04:18Z</time>
      </trkpt>
      <trkpt lat="46.71561" lon="5.95106">
        <ele>547.1</ele>
        <time>2021-04-29T12:04:22Z</time>
      </trkpt>
      <trkpt lat="46.71556" lon="5.95103">
        <ele>548.4</ele>
        <time>2021-04-29T12:04:26Z</time>
      </trkpt>
      <trkpt lat="46.71551" lon="5.95104">
        <ele>549.1</ele>
        <time>2021-04-29T12:04:33Z</time>
      </trkpt>
      <trkpt lat="46.71546" lon="5.95104">
        <ele>549.2</ele>
        <time>2021-04-29T12:04:38Z</time>
      </trkpt>
      <trkpt lat="46.71541" lon="5.95103">
        <ele>548.2</ele>
        <time>2021-04-29T12:04:42Z</time>
      </trkpt>
      <trkpt lat="46.71536" lon="5.95105">
        <ele>546.7</ele>
        <time>2021-04-29T12:04:46Z</time>
      </trkpt>
      <trkpt lat="46.71531" lon="5.95103">
        <ele>545.3</ele>
        <time>2021-04-29T12:04:51Z</time>
      </trkpt>
      <trkpt lat="46.71526" lon="5.95102">
        <ele>544.6</ele>
        <time>2021-04-29T12:04:56Z</time>
      </trkpt>
      <trkpt lat="46.71522" lon="5.951">
        <ele>544.3</ele>
        <time>2021-04-29T12:05:01Z</time>
      </trkpt>
      <trkpt lat="46.71516" lon="5.95097">
        <ele>544.4</ele>
        <time>2021-04-29T12:05:06Z</time>
      </trkpt>
      <trkpt lat="46.71511" lon="5.95094">
        <ele>544.7</ele>
        <time>2021-04-29T12:05:10Z</time>
      </trkpt>
      <trkpt lat="46.71506" lon="5.95091">
        <ele>545</ele>
        <time>2021-04-29T12:05:14Z</time>
      </trkpt>
      <trkpt lat="46.71501" lon="5.95086">
        <ele>546.2</ele>
        <time>2021-04-29T12:05:18Z</time>
      </trkpt>
      <trkpt lat="46.71497" lon="5.95082">
        <ele>547.8</ele>
        <time>2021-04-29T12:05:22Z</time>
      </trkpt>
      <trkpt lat="46.71493" lon="5.9508">
        <ele>549</ele>
        <time>2021-04-29T12:05:26Z</time>
      </trkpt>
      <trkpt lat="46.71488" lon="5.95077">
        <ele>550.6</ele>
        <time>2021-04-29T12:05:31Z</time>
      </trkpt>
      <trkpt lat="46.71482" lon="5.95075">
        <ele>551.8</ele>
        <time>2021-04-29T12:05:35Z</time>
      </trkpt>
      <trkpt lat="46.71477" lon="5.95075">
        <ele>552.7</ele>
        <time>2021-04-29T12:05:39Z</time>
      </trkpt>
      <trkpt lat="46.71471" lon="5.95074">
        <ele>553.9</ele>
        <time>2021-04-29T12:05:44Z</time>
      </trkpt>
      <trkpt lat="46.71467" lon="5.9507">
        <ele>554.3</ele>
        <time>2021-04-29T12:05:48Z</time>
      </trkpt>
      <trkpt lat="46.71462" lon="5.95069">
        <ele>553.8</ele>
        <time>2021-04-29T12:05:54Z</time>
      </trkpt>
      <trkpt lat="46.71457" lon="5.95069">
        <ele>553</ele>
        <time>2021-04-29T12:05:59Z</time>
      </trkpt>
      <trkpt lat="46.71451" lon="5.95066">
        <ele>551.7</ele>
        <time>2021-04-29T12:06:03Z</time>
      </trkpt>
      <trkpt lat="46.71444" lon="5.95063">
        <ele>551</ele>
        <time>2021-04-29T12:06:07Z</time>
      </trkpt>
      <trkpt lat="46.71439" lon="5.95059">
        <ele>551</ele>
        <time>2021-04-29T12:06:11Z</time>
      </trkpt>
      <trkpt lat="46.71434" lon="5.95058">
        <ele>551.4</ele>
        <time>2021-04-29T12:06:15Z</time>
      </trkpt>
      <trkpt lat="46.71429" lon="5.95056">
        <ele>551.3</ele>
        <time>2021-04-29T12:06:20Z</time>
      </trkpt>
      <trkpt lat="46.71424" lon="5.95055">
        <ele>550.9</ele>
        <time>2021-04-29T12:06:26Z</time>
      </trkpt>
      <trkpt lat="46.71419" lon="5.95056">
        <ele>550.8</ele>
        <time>2021-04-29T12:06:30Z</time>
      </trkpt>
      <trkpt lat="46.71414" lon="5.95059">
        <ele>549.9</ele>
        <time>2021-04-29T12:06:35Z</time>
      </trkpt>
      <trkpt lat="46.71409" lon="5.95059">
        <ele>549.1</ele>
        <time>2021-04-29T12:06:40Z</time>
      </trkpt>
      <trkpt lat="46.71404" lon="5.95056">
        <ele>548.2</ele>
        <time>2021-04-29T12:06:45Z</time>
      </trkpt>
      <trkpt lat="46.714" lon="5.95053">
        <ele>547.7</ele>
        <time>2021-04-29T12:06:49Z</time>
      </trkpt>
      <trkpt lat="46.71394" lon="5.95052">
        <ele>547</ele>
        <time>2021-04-29T12:06:55Z</time>
      </trkpt>
      <trkpt lat="46.71388" lon="5.95051">
        <ele>546.9</ele>
        <time>2021-04-29T12:06:59Z</time>
      </trkpt>
      <trkpt lat="46.71383" lon="5.9505">
        <ele>547.1</ele>
        <time>2021-04-29T12:07:03Z</time>
      </trkpt>
      <trkpt lat="46.71378" lon="5.95049">
        <ele>547.5</ele>
        <time>2021-04-29T12:07:07Z</time>
      </trkpt>
      <trkpt lat="46.71373" lon="5.9505">
        <ele>548</ele>
        <time>2021-04-29T12:07:11Z</time>
      </trkpt>
      <trkpt lat="46.71367" lon="5.9505">
        <ele>549</ele>
        <time>2021-04-29T12:07:15Z</time>
      </trkpt>
      <trkpt lat="46.71362" lon="5.95054">
        <ele>549.8</ele>
        <time>2021-04-29T12:07:21Z</time>
      </trkpt>
      <trkpt lat="46.71357" lon="5.95056">
        <ele>550</ele>
        <time>2021-04-29T12:07:26Z</time>
      </trkpt>
      <trkpt lat="46.71353" lon="5.95057">
        <ele>550</ele>
        <time>2021-04-29T12:07:30Z</time>
      </trkpt>
      <trkpt lat="46.71348" lon="5.95059">
        <ele>550.2</ele>
        <time>2021-04-29T12:07:35Z</time>
      </trkpt>
      <trkpt lat="46.71343" lon="5.95061">
        <ele>549.7</ele>
        <time>2021-04-29T12:07:39Z</time>
      </trkpt>
      <trkpt lat="46.71338" lon="5.95064">
        <ele>548.4</ele>
        <time>2021-04-29T12:07:44Z</time>
      </trkpt>
      <trkpt lat="46.71334" lon="5.95064">
        <ele>548.1</ele>
        <time>2021-04-29T12:07:49Z</time>
      </trkpt>
      <trkpt lat="46.71329" lon="5.95066">
        <ele>548.2</ele>
        <time>2021-04-29T12:07:54Z</time>
      </trkpt>
      <trkpt lat="46.71324" lon="5.95068">
        <ele>548.4</ele>
        <time>2021-04-29T12:07:59Z</time>
      </trkpt>
      <trkpt lat="46.71319" lon="5.9507">
        <ele>548.7</ele>
        <time>2021-04-29T12:08:03Z</time>
      </trkpt>
      <trkpt lat="46.71314" lon="5.95072">
        <ele>549</ele>
        <time>2021-04-29T12:08:08Z</time>
      </trkpt>
      <trkpt lat="46.71309" lon="5.95073">
        <ele>548.8</ele>
        <time>2021-04-29T12:08:12Z</time>
      </trkpt>
      <trkpt lat="46.71304" lon="5.95075">
        <ele>548.6</ele>
        <time>2021-04-29T12:08:16Z</time>
      </trkpt>
      <trkpt lat="46.71298" lon="5.95077">
        <ele>548.4</ele>
        <time>2021-04-29T12:08:20Z</time>
      </trkpt>
      <trkpt lat="46.71292" lon="5.9508">
        <ele>548.6</ele>
        <time>2021-04-29T12:08:24Z</time>
      </trkpt>
      <trkpt lat="46.71287" lon="5.95081">
        <ele>549.6</ele>
        <time>2021-04-29T12:08:28Z</time>
      </trkpt>
      <trkpt lat="46.71282" lon="5.95082">
        <ele>550.4</ele>
        <time>2021-04-29T12:08:32Z</time>
      </trkpt>
      <trkpt lat="46.71276" lon="5.95083">
        <ele>551.4</ele>
        <time>2021-04-29T12:08:36Z</time>
      </trkpt>
      <trkpt lat="46.71271" lon="5.95083">
        <ele>552.1</ele>
        <time>2021-04-29T12:08:40Z</time>
      </trkpt>
      <trkpt lat="46.71267" lon="5.95079">
        <ele>552.9</ele>
        <time>2021-04-29T12:08:45Z</time>
      </trkpt>
      <trkpt lat="46.71263" lon="5.95075">
        <ele>553.4</ele>
        <time>2021-04-29T12:08:49Z</time>
      </trkpt>
      <trkpt lat="46.7126" lon="5.95071">
        <ele>553.8</ele>
        <time>2021-04-29T12:08:53Z</time>
      </trkpt>
      <trkpt lat="46.71255" lon="5.95067">
        <ele>554.2</ele>
        <time>2021-04-29T12:08:57Z</time>
      </trkpt>
      <trkpt lat="46.71251" lon="5.95065">
        <ele>554.4</ele>
        <time>2021-04-29T12:09:01Z</time>
      </trkpt>
      <trkpt lat="46.71247" lon="5.9506">
        <ele>554.7</ele>
        <time>2021-04-29T12:09:05Z</time>
      </trkpt>
      <trkpt lat="46.71241" lon="5.95058">
        <ele>551.5</ele>
        <time>2021-04-29T12:09:10Z</time>
      </trkpt>
      <trkpt lat="46.71237" lon="5.95055">
        <ele>549.3</ele>
        <time>2021-04-29T12:09:15Z</time>
      </trkpt>
      <trkpt lat="46.71233" lon="5.95052">
        <ele>548.4</ele>
        <time>2021-04-29T12:09:20Z</time>
      </trkpt>
      <trkpt lat="46.71229" lon="5.9505">
        <ele>548</ele>
        <time>2021-04-29T12:09:24Z</time>
      </trkpt>
      <trkpt lat="46.71224" lon="5.95045">
        <ele>548.3</ele>
        <time>2021-04-29T12:09:29Z</time>
      </trkpt>
      <trkpt lat="46.7122" lon="5.95042">
        <ele>549.7</ele>
        <time>2021-04-29T12:09:33Z</time>
      </trkpt>
      <trkpt lat="46.71216" lon="5.9504">
        <ele>550.6</ele>
        <time>2021-04-29T12:09:37Z</time>
      </trkpt>
      <trkpt lat="46.71212" lon="5.95037">
        <ele>551.7</ele>
        <time>2021-04-29T12:09:42Z</time>
      </trkpt>
      <trkpt lat="46.71207" lon="5.95033">
        <ele>552.5</ele>
        <time>2021-04-29T12:09:46Z</time>
      </trkpt>
      <trkpt lat="46.71204" lon="5.95028">
        <ele>552.6</ele>
        <time>2021-04-29T12:09:51Z</time>
      </trkpt>
      <trkpt lat="46.712" lon="5.95027">
        <ele>552.7</ele>
        <time>2021-04-29T12:09:55Z</time>
      </trkpt>
      <trkpt lat="46.71195" lon="5.95025">
        <ele>552.9</ele>
        <time>2021-04-29T12:09:59Z</time>
      </trkpt>
      <trkpt lat="46.71189" lon="5.95024">
        <ele>552.8</ele>
        <time>2021-04-29T12:10:03Z</time>
      </trkpt>
      <trkpt lat="46.71184" lon="5.95022">
        <ele>552.8</ele>
        <time>2021-04-29T12:10:07Z</time>
      </trkpt>
      <trkpt lat="46.71179" lon="5.95021">
        <ele>552.8</ele>
        <time>2021-04-29T12:10:11Z</time>
      </trkpt>
      <trkpt lat="46.71174" lon="5.9502">
        <ele>552.9</ele>
        <time>2021-04-29T12:10:15Z</time>
      </trkpt>
      <trkpt lat="46.7117" lon="5.95017">
        <ele>551.6</ele>
        <time>2021-04-29T12:10:22Z</time>
      </trkpt>
      <trkpt lat="46.71165" lon="5.95014">
        <ele>549.6</ele>
        <time>2021-04-29T12:10:28Z</time>
      </trkpt>
      <trkpt lat="46.71159" lon="5.95013">
        <ele>548.6</ele>
        <time>2021-04-29T12:10:32Z</time>
      </trkpt>
      <trkpt lat="46.71152" lon="5.95012">
        <ele>547.7</ele>
        <time>2021-04-29T12:10:36Z</time>
      </trkpt>
      <trkpt lat="46.71146" lon="5.95012">
        <ele>548.1</ele>
        <time>2021-04-29T12:10:40Z</time>
      </trkpt>
      <trkpt lat="46.71141" lon="5.95012">
        <ele>548.8</ele>
        <time>2021-04-29T12:10:45Z</time>
      </trkpt>
      <trkpt lat="46.71136" lon="5.9501">
        <ele>549.4</ele>
        <time>2021-04-29T12:10:50Z</time>
      </trkpt>
      <trkpt lat="46.71131" lon="5.95008">
        <ele>550.4</ele>
        <time>2021-04-29T12:10:55Z</time>
      </trkpt>
      <trkpt lat="46.71126" lon="5.95006">
        <ele>551.6</ele>
        <time>2021-04-29T12:11:01Z</time>
      </trkpt>
      <trkpt lat="46.71121" lon="5.95007">
        <ele>551.4</ele>
        <time>2021-04-29T12:11:09Z</time>
      </trkpt>
      <trkpt lat="46.71113" lon="5.9501">
        <ele>552.2</ele>
        <time>2021-04-29T12:11:13Z</time>
      </trkpt>
      <trkpt lat="46.71108" lon="5.95012">
        <ele>552.8</ele>
        <time>2021-04-29T12:11:17Z</time>
      </trkpt>
      <trkpt lat="46.71103" lon="5.95011">
        <ele>553</ele>
        <time>2021-04-29T12:11:22Z</time>
      </trkpt>
      <trkpt lat="46.71098" lon="5.95012">
        <ele>552.8</ele>
        <time>2021-04-29T12:11:26Z</time>
      </trkpt>
      <trkpt lat="46.71093" lon="5.95013">
        <ele>552.2</ele>
        <time>2021-04-29T12:11:30Z</time>
      </trkpt>
      <trkpt lat="46.71088" lon="5.95013">
        <ele>551.5</ele>
        <time>2021-04-29T12:11:35Z</time>
      </trkpt>
      <trkpt lat="46.71083" lon="5.95011">
        <ele>551.1</ele>
        <time>2021-04-29T12:11:40Z</time>
      </trkpt>
      <trkpt lat="46.71078" lon="5.9501">
        <ele>550.6</ele>
        <time>2021-04-29T12:11:45Z</time>
      </trkpt>
      <trkpt lat="46.71073" lon="5.95011">
        <ele>549.8</ele>
        <time>2021-04-29T12:11:50Z</time>
      </trkpt>
      <trkpt lat="46.71068" lon="5.95011">
        <ele>549</ele>
        <time>2021-04-29T12:11:54Z</time>
      </trkpt>
      <trkpt lat="46.71063" lon="5.95011">
        <ele>548.6</ele>
        <time>2021-04-29T12:11:58Z</time>
      </trkpt>
      <trkpt lat="46.71058" lon="5.9501">
        <ele>548.4</ele>
        <time>2021-04-29T12:12:03Z</time>
      </trkpt>
      <trkpt lat="46.71052" lon="5.95009">
        <ele>548.1</ele>
        <time>2021-04-29T12:12:08Z</time>
      </trkpt>
      <trkpt lat="46.71047" lon="5.95007">
        <ele>548.2</ele>
        <time>2021-04-29T12:12:12Z</time>
      </trkpt>
      <trkpt lat="46.71042" lon="5.95006">
        <ele>548.4</ele>
        <time>2021-04-29T12:12:16Z</time>
      </trkpt>
      <trkpt lat="46.71038" lon="5.95005">
        <ele>548.6</ele>
        <time>2021-04-29T12:12:20Z</time>
      </trkpt>
      <trkpt lat="46.71033" lon="5.95006">
        <ele>548.1</ele>
        <time>2021-04-29T12:12:25Z</time>
      </trkpt>
      <trkpt lat="46.71027" lon="5.95006">
        <ele>547</ele>
        <time>2021-04-29T12:12:29Z</time>
      </trkpt>
      <trkpt lat="46.71022" lon="5.95005">
        <ele>545.4</ele>
        <time>2021-04-29T12:12:33Z</time>
      </trkpt>
      <trkpt lat="46.71016" lon="5.95006">
        <ele>543.5</ele>
        <time>2021-04-29T12:12:37Z</time>
      </trkpt>
      <trkpt lat="46.71011" lon="5.95008">
        <ele>541.7</ele>
        <time>2021-04-29T12:12:41Z</time>
      </trkpt>
      <trkpt lat="46.71006" lon="5.95008">
        <ele>540.1</ele>
        <time>2021-04-29T12:12:45Z</time>
      </trkpt>
      <trkpt lat="46.71001" lon="5.95004">
        <ele>538.5</ele>
        <time>2021-04-29T12:12:50Z</time>
      </trkpt>
      <trkpt lat="46.70997" lon="5.95">
        <ele>537.6</ele>
        <time>2021-04-29T12:12:54Z</time>
      </trkpt>
      <trkpt lat="46.70992" lon="5.94996">
        <ele>536.7</ele>
        <time>2021-04-29T12:12:59Z</time>
      </trkpt>
      <trkpt lat="46.70988" lon="5.94992">
        <ele>536</ele>
        <time>2021-04-29T12:13:04Z</time>
      </trkpt>
      <trkpt lat="46.70983" lon="5.94989">
        <ele>535.1</ele>
        <time>2021-04-29T12:13:09Z</time>
      </trkpt>
      <trkpt lat="46.70979" lon="5.94987">
        <ele>534.6</ele>
        <time>2021-04-29T12:13:14Z</time>
      </trkpt>
      <trkpt lat="46.70974" lon="5.94985">
        <ele>535.8</ele>
        <time>2021-04-29T12:13:18Z</time>
      </trkpt>
      <trkpt lat="46.70968" lon="5.94983">
        <ele>537.2</ele>
        <time>2021-04-29T12:13:22Z</time>
      </trkpt>
      <trkpt lat="46.70963" lon="5.94982">
        <ele>538.3</ele>
        <time>2021-04-29T12:13:27Z</time>
      </trkpt>
      <trkpt lat="46.70958" lon="5.9498">
        <ele>539.1</ele>
        <time>2021-04-29T12:13:33Z</time>
      </trkpt>
      <trkpt lat="46.70952" lon="5.94981">
        <ele>539.8</ele>
        <time>2021-04-29T12:13:38Z</time>
      </trkpt>
      <trkpt lat="46.70946" lon="5.94981">
        <ele>541.5</ele>
        <time>2021-04-29T12:13:42Z</time>
      </trkpt>
      <trkpt lat="46.70942" lon="5.94979">
        <ele>543.1</ele>
        <time>2021-04-29T12:13:46Z</time>
      </trkpt>
      <trkpt lat="46.70937" lon="5.94975">
        <ele>544.8</ele>
        <time>2021-04-29T12:13:52Z</time>
      </trkpt>
      <trkpt lat="46.70932" lon="5.94974">
        <ele>546.4</ele>
        <time>2021-04-29T12:13:57Z</time>
      </trkpt>
      <trkpt lat="46.70928" lon="5.94973">
        <ele>548.5</ele>
        <time>2021-04-29T12:14:05Z</time>
      </trkpt>
      <trkpt lat="46.70923" lon="5.94978">
        <ele>549.2</ele>
        <time>2021-04-29T12:14:15Z</time>
      </trkpt>
      <trkpt lat="46.70919" lon="5.94974">
        <ele>548.9</ele>
        <time>2021-04-29T12:14:28Z</time>
      </trkpt>
      <trkpt lat="46.70914" lon="5.94972">
        <ele>548.9</ele>
        <time>2021-04-29T12:14:34Z</time>
      </trkpt>
      <trkpt lat="46.70909" lon="5.94971">
        <ele>549</ele>
        <time>2021-04-29T12:14:43Z</time>
      </trkpt>
      <trkpt lat="46.70904" lon="5.94971">
        <ele>549.4</ele>
        <time>2021-04-29T12:14:47Z</time>
      </trkpt>
      <trkpt lat="46.70899" lon="5.94969">
        <ele>549.8</ele>
        <time>2021-04-29T12:14:51Z</time>
      </trkpt>
      <trkpt lat="46.70892" lon="5.94968">
        <ele>550.4</ele>
        <time>2021-04-29T12:14:55Z</time>
      </trkpt>
      <trkpt lat="46.70887" lon="5.94967">
        <ele>551</ele>
        <time>2021-04-29T12:14:59Z</time>
      </trkpt>
      <trkpt lat="46.70882" lon="5.94966">
        <ele>551.5</ele>
        <time>2021-04-29T12:15:03Z</time>
      </trkpt>
      <trkpt lat="46.70877" lon="5.94965">
        <ele>552.1</ele>
        <time>2021-04-29T12:15:07Z</time>
      </trkpt>
      <trkpt lat="46.70872" lon="5.94965">
        <ele>552.9</ele>
        <time>2021-04-29T12:15:11Z</time>
      </trkpt>
      <trkpt lat="46.70867" lon="5.94963">
        <ele>553.5</ele>
        <time>2021-04-29T12:15:15Z</time>
      </trkpt>
      <trkpt lat="46.70861" lon="5.94963">
        <ele>554</ele>
        <time>2021-04-29T12:15:19Z</time>
      </trkpt>
      <trkpt lat="46.70856" lon="5.94964">
        <ele>554.5</ele>
        <time>2021-04-29T12:15:24Z</time>
      </trkpt>
      <trkpt lat="46.70851" lon="5.94964">
        <ele>554.9</ele>
        <time>2021-04-29T12:15:30Z</time>
      </trkpt>
      <trkpt lat="46.70846" lon="5.94962">
        <ele>555.2</ele>
        <time>2021-04-29T12:15:34Z</time>
      </trkpt>
      <trkpt lat="46.70842" lon="5.94959">
        <ele>555.5</ele>
        <time>2021-04-29T12:15:38Z</time>
      </trkpt>
      <trkpt lat="46.70839" lon="5.94954">
        <ele>555.2</ele>
        <time>2021-04-29T12:15:45Z</time>
      </trkpt>
      <trkpt lat="46.70834" lon="5.94952">
        <ele>554.2</ele>
        <time>2021-04-29T12:15:50Z</time>
      </trkpt>
      <trkpt lat="46.70829" lon="5.9495">
        <ele>553.5</ele>
        <time>2021-04-29T12:15:54Z</time>
      </trkpt>
      <trkpt lat="46.70824" lon="5.9495">
        <ele>552.7</ele>
        <time>2021-04-29T12:15:58Z</time>
      </trkpt>
      <trkpt lat="46.70819" lon="5.9495">
        <ele>551.4</ele>
        <time>2021-04-29T12:16:02Z</time>
      </trkpt>
      <trkpt lat="46.70814" lon="5.94952">
        <ele>549.9</ele>
        <time>2021-04-29T12:16:06Z</time>
      </trkpt>
      <trkpt lat="46.7081" lon="5.94953">
        <ele>548.4</ele>
        <time>2021-04-29T12:16:10Z</time>
      </trkpt>
      <trkpt lat="46.70804" lon="5.94953">
        <ele>546.8</ele>
        <time>2021-04-29T12:16:14Z</time>
      </trkpt>
      <trkpt lat="46.708" lon="5.94951">
        <ele>545.5</ele>
        <time>2021-04-29T12:16:18Z</time>
      </trkpt>
      <trkpt lat="46.70795" lon="5.94949">
        <ele>544.2</ele>
        <time>2021-04-29T12:16:22Z</time>
      </trkpt>
      <trkpt lat="46.7079" lon="5.94947">
        <ele>541.9</ele>
        <time>2021-04-29T12:16:27Z</time>
      </trkpt>
      <trkpt lat="46.70785" lon="5.94943">
        <ele>539.4</ele>
        <time>2021-04-29T12:16:32Z</time>
      </trkpt>
      <trkpt lat="46.70781" lon="5.94938">
        <ele>537.4</ele>
        <time>2021-04-29T12:16:37Z</time>
      </trkpt>
      <trkpt lat="46.70777" lon="5.94933">
        <ele>535.3</ele>
        <time>2021-04-29T12:16:41Z</time>
      </trkpt>
      <trkpt lat="46.70773" lon="5.94928">
        <ele>533.2</ele>
        <time>2021-04-29T12:16:45Z</time>
      </trkpt>
      <trkpt lat="46.70769" lon="5.94924">
        <ele>530.7</ele>
        <time>2021-04-29T12:16:50Z</time>
      </trkpt>
      <trkpt lat="46.70765" lon="5.94919">
        <ele>527.7</ele>
        <time>2021-04-29T12:16:57Z</time>
      </trkpt>
      <trkpt lat="46.70757" lon="5.94917">
        <ele>540.7</ele>
        <time>2021-04-29T12:17:01Z</time>
      </trkpt>
      <trkpt lat="46.70752" lon="5.94913">
        <ele>546.6</ele>
        <time>2021-04-29T12:17:05Z</time>
      </trkpt>
      <trkpt lat="46.70747" lon="5.94909">
        <ele>550.2</ele>
        <time>2021-04-29T12:17:09Z</time>
      </trkpt>
      <trkpt lat="46.70742" lon="5.94907">
        <ele>552.6</ele>
        <time>2021-04-29T12:17:14Z</time>
      </trkpt>
      <trkpt lat="46.70738" lon="5.94904">
        <ele>554.5</ele>
        <time>2021-04-29T12:17:21Z</time>
      </trkpt>
      <trkpt lat="46.70734" lon="5.94899">
        <ele>555.5</ele>
        <time>2021-04-29T12:17:26Z</time>
      </trkpt>
      <trkpt lat="46.7073" lon="5.94895">
        <ele>555.9</ele>
        <time>2021-04-29T12:17:31Z</time>
      </trkpt>
      <trkpt lat="46.70726" lon="5.94891">
        <ele>555.6</ele>
        <time>2021-04-29T12:17:36Z</time>
      </trkpt>
      <trkpt lat="46.70718" lon="5.9489">
        <ele>553.6</ele>
        <time>2021-04-29T12:17:40Z</time>
      </trkpt>
      <trkpt lat="46.70711" lon="5.9489">
        <ele>550.9</ele>
        <time>2021-04-29T12:17:44Z</time>
      </trkpt>
      <trkpt lat="46.70705" lon="5.94887">
        <ele>547.5</ele>
        <time>2021-04-29T12:17:49Z</time>
      </trkpt>
      <trkpt lat="46.70701" lon="5.94885">
        <ele>545.4</ele>
        <time>2021-04-29T12:17:53Z</time>
      </trkpt>
      <trkpt lat="46.70696" lon="5.94883">
        <ele>543.4</ele>
        <time>2021-04-29T12:17:58Z</time>
      </trkpt>
      <trkpt lat="46.7069" lon="5.94881">
        <ele>543.1</ele>
        <time>2021-04-29T12:18:02Z</time>
      </trkpt>
      <trkpt lat="46.70685" lon="5.94881">
        <ele>542.5</ele>
        <time>2021-04-29T12:18:07Z</time>
      </trkpt>
      <trkpt lat="46.7068" lon="5.94879">
        <ele>542</ele>
        <time>2021-04-29T12:18:12Z</time>
      </trkpt>
      <trkpt lat="46.70676" lon="5.94878">
        <ele>542.5</ele>
        <time>2021-04-29T12:18:18Z</time>
      </trkpt>
      <trkpt lat="46.70671" lon="5.94879">
        <ele>542.8</ele>
        <time>2021-04-29T12:18:22Z</time>
      </trkpt>
      <trkpt lat="46.70666" lon="5.94881">
        <ele>543</ele>
        <time>2021-04-29T12:18:26Z</time>
      </trkpt>
      <trkpt lat="46.70661" lon="5.94881">
        <ele>543.4</ele>
        <time>2021-04-29T12:18:30Z</time>
      </trkpt>
      <trkpt lat="46.70656" lon="5.94881">
        <ele>544.2</ele>
        <time>2021-04-29T12:18:35Z</time>
      </trkpt>
      <trkpt lat="46.70651" lon="5.94883">
        <ele>544.9</ele>
        <time>2021-04-29T12:18:40Z</time>
      </trkpt>
      <trkpt lat="46.70647" lon="5.94886">
        <ele>545.9</ele>
        <time>2021-04-29T12:18:48Z</time>
      </trkpt>
      <trkpt lat="46.70643" lon="5.94889">
        <ele>547.5</ele>
        <time>2021-04-29T12:19:00Z</time>
      </trkpt>
      <trkpt lat="46.70638" lon="5.94888">
        <ele>548.9</ele>
        <time>2021-04-29T12:19:13Z</time>
      </trkpt>
      <trkpt lat="46.70633" lon="5.9489">
        <ele>549.3</ele>
        <time>2021-04-29T12:19:18Z</time>
      </trkpt>
      <trkpt lat="46.70628" lon="5.94892">
        <ele>549.7</ele>
        <time>2021-04-29T12:19:24Z</time>
      </trkpt>
      <trkpt lat="46.70624" lon="5.94895">
        <ele>550</ele>
        <time>2021-04-29T12:19:29Z</time>
      </trkpt>
      <trkpt lat="46.7062" lon="5.94898">
        <ele>550.1</ele>
        <time>2021-04-29T12:19:35Z</time>
      </trkpt>
      <trkpt lat="46.70615" lon="5.94902">
        <ele>550.1</ele>
        <time>2021-04-29T12:19:40Z</time>
      </trkpt>
      <trkpt lat="46.70611" lon="5.94905">
        <ele>550.1</ele>
        <time>2021-04-29T12:19:45Z</time>
      </trkpt>
      <trkpt lat="46.70606" lon="5.94908">
        <ele>550.1</ele>
        <time>2021-04-29T12:19:50Z</time>
      </trkpt>
      <trkpt lat="46.70602" lon="5.94911">
        <ele>550.2</ele>
        <time>2021-04-29T12:19:55Z</time>
      </trkpt>
      <trkpt lat="46.70597" lon="5.94913">
        <ele>550.1</ele>
        <time>2021-04-29T12:19:59Z</time>
      </trkpt>
      <trkpt lat="46.70592" lon="5.94916">
        <ele>549.8</ele>
        <time>2021-04-29T12:20:04Z</time>
      </trkpt>
      <trkpt lat="46.70588" lon="5.94919">
        <ele>549.3</ele>
        <time>2021-04-29T12:20:09Z</time>
      </trkpt>
      <trkpt lat="46.70582" lon="5.94921">
        <ele>548.8</ele>
        <time>2021-04-29T12:20:14Z</time>
      </trkpt>
      <trkpt lat="46.70578" lon="5.94921">
        <ele>548.6</ele>
        <time>2021-04-29T12:20:25Z</time>
      </trkpt>
      <trkpt lat="46.70573" lon="5.94922">
        <ele>549.1</ele>
        <time>2021-04-29T12:20:46Z</time>
      </trkpt>
      <trkpt lat="46.70568" lon="5.94922">
        <ele>548.6</ele>
        <time>2021-04-29T12:20:54Z</time>
      </trkpt>
      <trkpt lat="46.70563" lon="5.94923">
        <ele>548.2</ele>
        <time>2021-04-29T12:20:59Z</time>
      </trkpt>
      <trkpt lat="46.70557" lon="5.94923">
        <ele>547.6</ele>
        <time>2021-04-29T12:21:04Z</time>
      </trkpt>
      <trkpt lat="46.70552" lon="5.94924">
        <ele>546.8</ele>
        <time>2021-04-29T12:21:09Z</time>
      </trkpt>
      <trkpt lat="46.70547" lon="5.94925">
        <ele>546.2</ele>
        <time>2021-04-29T12:21:13Z</time>
      </trkpt>
      <trkpt lat="46.70543" lon="5.94927">
        <ele>545.6</ele>
        <time>2021-04-29T12:21:17Z</time>
      </trkpt>
      <trkpt lat="46.70538" lon="5.94928">
        <ele>544.7</ele>
        <time>2021-04-29T12:21:21Z</time>
      </trkpt>
      <trkpt lat="46.70533" lon="5.94928">
        <ele>543.9</ele>
        <time>2021-04-29T12:21:25Z</time>
      </trkpt>
      <trkpt lat="46.70528" lon="5.94928">
        <ele>543.2</ele>
        <time>2021-04-29T12:21:29Z</time>
      </trkpt>
      <trkpt lat="46.70523" lon="5.94928">
        <ele>542.8</ele>
        <time>2021-04-29T12:21:34Z</time>
      </trkpt>
      <trkpt lat="46.70518" lon="5.9493">
        <ele>542.7</ele>
        <time>2021-04-29T12:21:40Z</time>
      </trkpt>
      <trkpt lat="46.70513" lon="5.9493">
        <ele>542.8</ele>
        <time>2021-04-29T12:21:46Z</time>
      </trkpt>
      <trkpt lat="46.70508" lon="5.9493">
        <ele>542.8</ele>
        <time>2021-04-29T12:21:50Z</time>
      </trkpt>
      <trkpt lat="46.70503" lon="5.94932">
        <ele>542.3</ele>
        <time>2021-04-29T12:21:55Z</time>
      </trkpt>
      <trkpt lat="46.70498" lon="5.94932">
        <ele>541.3</ele>
        <time>2021-04-29T12:22:01Z</time>
      </trkpt>
      <trkpt lat="46.70494" lon="5.94932">
        <ele>540.5</ele>
        <time>2021-04-29T12:22:06Z</time>
      </trkpt>
      <trkpt lat="46.70489" lon="5.94931">
        <ele>539.7</ele>
        <time>2021-04-29T12:22:10Z</time>
      </trkpt>
      <trkpt lat="46.70483" lon="5.94931">
        <ele>539.2</ele>
        <time>2021-04-29T12:22:14Z</time>
      </trkpt>
      <trkpt lat="46.70476" lon="5.9493">
        <ele>539.2</ele>
        <time>2021-04-29T12:22:18Z</time>
      </trkpt>
      <trkpt lat="46.70471" lon="5.94929">
        <ele>539.7</ele>
        <time>2021-04-29T12:22:22Z</time>
      </trkpt>
      <trkpt lat="46.70466" lon="5.94929">
        <ele>540.4</ele>
        <time>2021-04-29T12:22:27Z</time>
      </trkpt>
      <trkpt lat="46.70462" lon="5.94928">
        <ele>541.1</ele>
        <time>2021-04-29T12:22:32Z</time>
      </trkpt>
      <trkpt lat="46.70457" lon="5.94926">
        <ele>541</ele>
        <time>2021-04-29T12:22:38Z</time>
      </trkpt>
      <trkpt lat="46.70452" lon="5.94925">
        <ele>541.3</ele>
        <time>2021-04-29T12:22:42Z</time>
      </trkpt>
      <trkpt lat="46.70446" lon="5.94924">
        <ele>542</ele>
        <time>2021-04-29T12:22:46Z</time>
      </trkpt>
      <trkpt lat="46.70441" lon="5.94921">
        <ele>542.7</ele>
        <time>2021-04-29T12:22:50Z</time>
      </trkpt>
      <trkpt lat="46.70436" lon="5.94919">
        <ele>543.3</ele>
        <time>2021-04-29T12:22:54Z</time>
      </trkpt>
      <trkpt lat="46.70431" lon="5.94916">
        <ele>544.2</ele>
        <time>2021-04-29T12:23:01Z</time>
      </trkpt>
      <trkpt lat="46.70427" lon="5.94915">
        <ele>545</ele>
        <time>2021-04-29T12:23:16Z</time>
      </trkpt>
      <trkpt lat="46.70422" lon="5.94914">
        <ele>544.8</ele>
        <time>2021-04-29T12:23:22Z</time>
      </trkpt>
      <trkpt lat="46.70418" lon="5.94915">
        <ele>544.4</ele>
        <time>2021-04-29T12:23:27Z</time>
      </trkpt>
      <trkpt lat="46.70413" lon="5.94917">
        <ele>543.9</ele>
        <time>2021-04-29T12:23:31Z</time>
      </trkpt>
      <trkpt lat="46.70408" lon="5.94916">
        <ele>543.1</ele>
        <time>2021-04-29T12:23:36Z</time>
      </trkpt>
      <trkpt lat="46.70403" lon="5.94916">
        <ele>542.5</ele>
        <time>2021-04-29T12:23:40Z</time>
      </trkpt>
      <trkpt lat="46.70398" lon="5.94919">
        <ele>542.4</ele>
        <time>2021-04-29T12:23:45Z</time>
      </trkpt>
      <trkpt lat="46.70393" lon="5.94921">
        <ele>543</ele>
        <time>2021-04-29T12:23:52Z</time>
      </trkpt>
      <trkpt lat="46.70388" lon="5.94921">
        <ele>543.2</ele>
        <time>2021-04-29T12:23:57Z</time>
      </trkpt>
      <trkpt lat="46.70383" lon="5.94922">
        <ele>543.2</ele>
        <time>2021-04-29T12:24:01Z</time>
      </trkpt>
      <trkpt lat="46.70378" lon="5.94923">
        <ele>543.1</ele>
        <time>2021-04-29T12:24:06Z</time>
      </trkpt>
      <trkpt lat="46.70373" lon="5.94923">
        <ele>543.3</ele>
        <time>2021-04-29T12:24:11Z</time>
      </trkpt>
      <trkpt lat="46.70367" lon="5.94922">
        <ele>543.5</ele>
        <time>2021-04-29T12:24:16Z</time>
      </trkpt>
      <trkpt lat="46.70363" lon="5.94923">
        <ele>543.6</ele>
        <time>2021-04-29T12:24:20Z</time>
      </trkpt>
      <trkpt lat="46.70359" lon="5.94927">
        <ele>543.3</ele>
        <time>2021-04-29T12:24:26Z</time>
      </trkpt>
      <trkpt lat="46.70355" lon="5.9493">
        <ele>542.1</ele>
        <time>2021-04-29T12:24:33Z</time>
      </trkpt>
      <trkpt lat="46.7035" lon="5.94932">
        <ele>541</ele>
        <time>2021-04-29T12:24:38Z</time>
      </trkpt>
      <trkpt lat="46.70345" lon="5.94932">
        <ele>539.7</ele>
        <time>2021-04-29T12:24:43Z</time>
      </trkpt>
      <trkpt lat="46.7034" lon="5.94932">
        <ele>538.4</ele>
        <time>2021-04-29T12:24:48Z</time>
      </trkpt>
      <trkpt lat="46.70335" lon="5.94933">
        <ele>537.2</ele>
        <time>2021-04-29T12:24:53Z</time>
      </trkpt>
      <trkpt lat="46.7033" lon="5.94933">
        <ele>536.2</ele>
        <time>2021-04-29T12:24:57Z</time>
      </trkpt>
      <trkpt lat="46.70325" lon="5.94933">
        <ele>535.1</ele>
        <time>2021-04-29T12:25:01Z</time>
      </trkpt>
      <trkpt lat="46.7032" lon="5.94935">
        <ele>533.9</ele>
        <time>2021-04-29T12:25:06Z</time>
      </trkpt>
      <trkpt lat="46.70315" lon="5.94936">
        <ele>533</ele>
        <time>2021-04-29T12:25:11Z</time>
      </trkpt>
      <trkpt lat="46.7031" lon="5.94935">
        <ele>532.3</ele>
        <time>2021-04-29T12:25:16Z</time>
      </trkpt>
      <trkpt lat="46.70305" lon="5.94932">
        <ele>532.1</ele>
        <time>2021-04-29T12:25:20Z</time>
      </trkpt>
      <trkpt lat="46.70301" lon="5.9493">
        <ele>531.7</ele>
        <time>2021-04-29T12:25:26Z</time>
      </trkpt>
      <trkpt lat="46.70296" lon="5.94928">
        <ele>531.9</ele>
        <time>2021-04-29T12:25:30Z</time>
      </trkpt>
      <trkpt lat="46.70291" lon="5.94922">
        <ele>532.1</ele>
        <time>2021-04-29T12:25:34Z</time>
      </trkpt>
      <trkpt lat="46.70286" lon="5.94918">
        <ele>532.4</ele>
        <time>2021-04-29T12:25:38Z</time>
      </trkpt>
      <trkpt lat="46.7028" lon="5.94915">
        <ele>534.5</ele>
        <time>2021-04-29T12:25:42Z</time>
      </trkpt>
      <trkpt lat="46.70274" lon="5.94914">
        <ele>537.6</ele>
        <time>2021-04-29T12:25:46Z</time>
      </trkpt>
      <trkpt lat="46.70269" lon="5.94914">
        <ele>541.7</ele>
        <time>2021-04-29T12:25:51Z</time>
      </trkpt>
      <trkpt lat="46.70264" lon="5.94917">
        <ele>544</ele>
        <time>2021-04-29T12:25:56Z</time>
      </trkpt>
      <trkpt lat="46.7026" lon="5.9492">
        <ele>545.1</ele>
        <time>2021-04-29T12:26:03Z</time>
      </trkpt>
      <trkpt lat="46.70256" lon="5.94924">
        <ele>545.1</ele>
        <time>2021-04-29T12:26:08Z</time>
      </trkpt>
      <trkpt lat="46.70249" lon="5.94928">
        <ele>544.7</ele>
        <time>2021-04-29T12:26:12Z</time>
      </trkpt>
      <trkpt lat="46.70243" lon="5.94932">
        <ele>544.2</ele>
        <time>2021-04-29T12:26:16Z</time>
      </trkpt>
      <trkpt lat="46.70238" lon="5.94937">
        <ele>543.7</ele>
        <time>2021-04-29T12:26:20Z</time>
      </trkpt>
      <trkpt lat="46.70235" lon="5.94941">
        <ele>542</ele>
        <time>2021-04-29T12:26:31Z</time>
      </trkpt>
      <trkpt lat="46.7023" lon="5.94944">
        <ele>541.2</ele>
        <time>2021-04-29T12:26:36Z</time>
      </trkpt>
      <trkpt lat="46.70226" lon="5.94947">
        <ele>540.7</ele>
        <time>2021-04-29T12:26:41Z</time>
      </trkpt>
      <trkpt lat="46.70221" lon="5.9495">
        <ele>540.1</ele>
        <time>2021-04-29T12:26:46Z</time>
      </trkpt>
      <trkpt lat="46.70216" lon="5.94954">
        <ele>539.5</ele>
        <time>2021-04-29T12:26:51Z</time>
      </trkpt>
      <trkpt lat="46.70212" lon="5.94957">
        <ele>538.5</ele>
        <time>2021-04-29T12:26:56Z</time>
      </trkpt>
      <trkpt lat="46.70207" lon="5.9496">
        <ele>536</ele>
        <time>2021-04-29T12:27:03Z</time>
      </trkpt>
      <trkpt lat="46.70202" lon="5.94962">
        <ele>534.7</ele>
        <time>2021-04-29T12:27:08Z</time>
      </trkpt>
      <trkpt lat="46.70197" lon="5.94965">
        <ele>533.8</ele>
        <time>2021-04-29T12:27:13Z</time>
      </trkpt>
      <trkpt lat="46.70192" lon="5.94968">
        <ele>533.2</ele>
        <time>2021-04-29T12:27:18Z</time>
      </trkpt>
      <trkpt lat="46.70188" lon="5.94971">
        <ele>532.8</ele>
        <time>2021-04-29T12:27:22Z</time>
      </trkpt>
      <trkpt lat="46.70184" lon="5.94975">
        <ele>532.8</ele>
        <time>2021-04-29T12:27:26Z</time>
      </trkpt>
      <trkpt lat="46.7018" lon="5.94979">
        <ele>532.9</ele>
        <time>2021-04-29T12:27:30Z</time>
      </trkpt>
      <trkpt lat="46.70176" lon="5.94983">
        <ele>533.3</ele>
        <time>2021-04-29T12:27:34Z</time>
      </trkpt>
      <trkpt lat="46.70171" lon="5.94986">
        <ele>534</ele>
        <time>2021-04-29T12:27:38Z</time>
      </trkpt>
      <trkpt lat="46.70166" lon="5.94989">
        <ele>534.6</ele>
        <time>2021-04-29T12:27:43Z</time>
      </trkpt>
      <trkpt lat="46.70162" lon="5.94994">
        <ele>534.7</ele>
        <time>2021-04-29T12:27:49Z</time>
      </trkpt>
      <trkpt lat="46.70158" lon="5.94997">
        <ele>534.4</ele>
        <time>2021-04-29T12:27:53Z</time>
      </trkpt>
      <trkpt lat="46.70153" lon="5.95">
        <ele>534.1</ele>
        <time>2021-04-29T12:27:58Z</time>
      </trkpt>
      <trkpt lat="46.70149" lon="5.95005">
        <ele>533.8</ele>
        <time>2021-04-29T12:28:03Z</time>
      </trkpt>
      <trkpt lat="46.70144" lon="5.95008">
        <ele>533.4</ele>
        <time>2021-04-29T12:28:07Z</time>
      </trkpt>
      <trkpt lat="46.70141" lon="5.95013">
        <ele>533.7</ele>
        <time>2021-04-29T12:28:11Z</time>
      </trkpt>
      <trkpt lat="46.70136" lon="5.95017">
        <ele>534</ele>
        <time>2021-04-29T12:28:16Z</time>
      </trkpt>
      <trkpt lat="46.70131" lon="5.95021">
        <ele>534.4</ele>
        <time>2021-04-29T12:28:20Z</time>
      </trkpt>
      <trkpt lat="46.70127" lon="5.95026">
        <ele>534.3</ele>
        <time>2021-04-29T12:28:25Z</time>
      </trkpt>
      <trkpt lat="46.70123" lon="5.9503">
        <ele>534.9</ele>
        <time>2021-04-29T12:28:29Z</time>
      </trkpt>
      <trkpt lat="46.70119" lon="5.95034">
        <ele>535.6</ele>
        <time>2021-04-29T12:28:33Z</time>
      </trkpt>
      <trkpt lat="46.70115" lon="5.95038">
        <ele>535.4</ele>
        <time>2021-04-29T12:28:38Z</time>
      </trkpt>
      <trkpt lat="46.7011" lon="5.95042">
        <ele>534.6</ele>
        <time>2021-04-29T12:28:43Z</time>
      </trkpt>
      <trkpt lat="46.70106" lon="5.95046">
        <ele>534.6</ele>
        <time>2021-04-29T12:28:47Z</time>
      </trkpt>
      <trkpt lat="46.70102" lon="5.95049">
        <ele>535.3</ele>
        <time>2021-04-29T12:28:52Z</time>
      </trkpt>
      <trkpt lat="46.70096" lon="5.95056">
        <ele>538.1</ele>
        <time>2021-04-29T12:28:57Z</time>
      </trkpt>
      <trkpt lat="46.70091" lon="5.95063">
        <ele>540.9</ele>
        <time>2021-04-29T12:29:01Z</time>
      </trkpt>
      <trkpt lat="46.70087" lon="5.95067">
        <ele>542.9</ele>
        <time>2021-04-29T12:29:05Z</time>
      </trkpt>
      <trkpt lat="46.70083" lon="5.95072">
        <ele>544.1</ele>
        <time>2021-04-29T12:29:10Z</time>
      </trkpt>
      <trkpt lat="46.70081" lon="5.95078">
        <ele>544.2</ele>
        <time>2021-04-29T12:29:15Z</time>
      </trkpt>
      <trkpt lat="46.70077" lon="5.95083">
        <ele>543.9</ele>
        <time>2021-04-29T12:29:19Z</time>
      </trkpt>
      <trkpt lat="46.70074" lon="5.95087">
        <ele>543.7</ele>
        <time>2021-04-29T12:29:23Z</time>
      </trkpt>
      <trkpt lat="46.7007" lon="5.95091">
        <ele>543.2</ele>
        <time>2021-04-29T12:29:27Z</time>
      </trkpt>
      <trkpt lat="46.70065" lon="5.95096">
        <ele>542.9</ele>
        <time>2021-04-29T12:29:31Z</time>
      </trkpt>
      <trkpt lat="46.70062" lon="5.95102">
        <ele>542.8</ele>
        <time>2021-04-29T12:29:35Z</time>
      </trkpt>
      <trkpt lat="46.70059" lon="5.95106">
        <ele>542.6</ele>
        <time>2021-04-29T12:29:40Z</time>
      </trkpt>
      <trkpt lat="46.70055" lon="5.9511">
        <ele>542.4</ele>
        <time>2021-04-29T12:29:44Z</time>
      </trkpt>
      <trkpt lat="46.70051" lon="5.95117">
        <ele>541.4</ele>
        <time>2021-04-29T12:29:48Z</time>
      </trkpt>
      <trkpt lat="46.70047" lon="5.95123">
        <ele>540.4</ele>
        <time>2021-04-29T12:29:52Z</time>
      </trkpt>
      <trkpt lat="46.70045" lon="5.95129">
        <ele>539.7</ele>
        <time>2021-04-29T12:29:56Z</time>
      </trkpt>
      <trkpt lat="46.70041" lon="5.95133">
        <ele>539.4</ele>
        <time>2021-04-29T12:30:00Z</time>
      </trkpt>
      <trkpt lat="46.70036" lon="5.95135">
        <ele>539.4</ele>
        <time>2021-04-29T12:30:05Z</time>
      </trkpt>
      <trkpt lat="46.7003" lon="5.95136">
        <ele>539.2</ele>
        <time>2021-04-29T12:30:10Z</time>
      </trkpt>
      <trkpt lat="46.70026" lon="5.95136">
        <ele>539.2</ele>
        <time>2021-04-29T12:30:15Z</time>
      </trkpt>
      <trkpt lat="46.7002" lon="5.95136">
        <ele>539.4</ele>
        <time>2021-04-29T12:30:20Z</time>
      </trkpt>
      <trkpt lat="46.70016" lon="5.95135">
        <ele>539.7</ele>
        <time>2021-04-29T12:30:25Z</time>
      </trkpt>
      <trkpt lat="46.70011" lon="5.95135">
        <ele>541.4</ele>
        <time>2021-04-29T12:30:30Z</time>
      </trkpt>
      <trkpt lat="46.70006" lon="5.95134">
        <ele>543.1</ele>
        <time>2021-04-29T12:30:36Z</time>
      </trkpt>
      <trkpt lat="46.70001" lon="5.95136">
        <ele>543.9</ele>
        <time>2021-04-29T12:30:45Z</time>
      </trkpt>
      <trkpt lat="46.69996" lon="5.95137">
        <ele>543.8</ele>
        <time>2021-04-29T12:30:49Z</time>
      </trkpt>
      <trkpt lat="46.69987" lon="5.95138">
        <ele>544</ele>
        <time>2021-04-29T12:30:53Z</time>
      </trkpt>
      <trkpt lat="46.69983" lon="5.95138">
        <ele>544.9</ele>
        <time>2021-04-29T12:30:58Z</time>
      </trkpt>
      <trkpt lat="46.69978" lon="5.95138">
        <ele>546.5</ele>
        <time>2021-04-29T12:31:09Z</time>
      </trkpt>
      <trkpt lat="46.69973" lon="5.95138">
        <ele>547</ele>
        <time>2021-04-29T12:31:14Z</time>
      </trkpt>
      <trkpt lat="46.69968" lon="5.95138">
        <ele>546.5</ele>
        <time>2021-04-29T12:31:22Z</time>
      </trkpt>
      <trkpt lat="46.69963" lon="5.95138">
        <ele>546</ele>
        <time>2021-04-29T12:31:28Z</time>
      </trkpt>
      <trkpt lat="46.69954" lon="5.95143">
        <ele>550.3</ele>
        <time>2021-04-29T12:31:32Z</time>
      </trkpt>
      <trkpt lat="46.69949" lon="5.95145">
        <ele>554.1</ele>
        <time>2021-04-29T12:31:36Z</time>
      </trkpt>
      <trkpt lat="46.69944" lon="5.95146">
        <ele>557.3</ele>
        <time>2021-04-29T12:31:41Z</time>
      </trkpt>
      <trkpt lat="46.69939" lon="5.95146">
        <ele>561</ele>
        <time>2021-04-29T12:31:50Z</time>
      </trkpt>
      <trkpt lat="46.69934" lon="5.95145">
        <ele>562.3</ele>
        <time>2021-04-29T12:31:55Z</time>
      </trkpt>
      <trkpt lat="46.69929" lon="5.95146">
        <ele>563.4</ele>
        <time>2021-04-29T12:32:00Z</time>
      </trkpt>
      <trkpt lat="46.69924" lon="5.95148">
        <ele>564.2</ele>
        <time>2021-04-29T12:32:04Z</time>
      </trkpt>
      <trkpt lat="46.6992" lon="5.9515">
        <ele>565</ele>
        <time>2021-04-29T12:32:08Z</time>
      </trkpt>
      <trkpt lat="46.69915" lon="5.95153">
        <ele>566.1</ele>
        <time>2021-04-29T12:32:15Z</time>
      </trkpt>
      <trkpt lat="46.69912" lon="5.95157">
        <ele>566.3</ele>
        <time>2021-04-29T12:32:20Z</time>
      </trkpt>
      <trkpt lat="46.69908" lon="5.95161">
        <ele>566.2</ele>
        <time>2021-04-29T12:32:30Z</time>
      </trkpt>
      <trkpt lat="46.69903" lon="5.95164">
        <ele>565.7</ele>
        <time>2021-04-29T12:32:35Z</time>
      </trkpt>
      <trkpt lat="46.69898" lon="5.95168">
        <ele>564.5</ele>
        <time>2021-04-29T12:32:39Z</time>
      </trkpt>
      <trkpt lat="46.69895" lon="5.95174">
        <ele>563.4</ele>
        <time>2021-04-29T12:32:47Z</time>
      </trkpt>
      <trkpt lat="46.69895" lon="5.95181">
        <ele>562.3</ele>
        <time>2021-04-29T12:33:03Z</time>
      </trkpt>
      <trkpt lat="46.69895" lon="5.95188">
        <ele>561.8</ele>
        <time>2021-04-29T12:33:09Z</time>
      </trkpt>
      <trkpt lat="46.69896" lon="5.95195">
        <ele>562</ele>
        <time>2021-04-29T12:33:14Z</time>
      </trkpt>
      <trkpt lat="46.69898" lon="5.95202">
        <ele>561.7</ele>
        <time>2021-04-29T12:33:18Z</time>
      </trkpt>
      <trkpt lat="46.69901" lon="5.95206">
        <ele>561.2</ele>
        <time>2021-04-29T12:33:22Z</time>
      </trkpt>
      <trkpt lat="46.69903" lon="5.95213">
        <ele>561.2</ele>
        <time>2021-04-29T12:33:26Z</time>
      </trkpt>
      <trkpt lat="46.69906" lon="5.95219">
        <ele>561.4</ele>
        <time>2021-04-29T12:33:31Z</time>
      </trkpt>
      <trkpt lat="46.69909" lon="5.95225">
        <ele>561.5</ele>
        <time>2021-04-29T12:33:36Z</time>
      </trkpt>
      <trkpt lat="46.69912" lon="5.95231">
        <ele>561.6</ele>
        <time>2021-04-29T12:33:41Z</time>
      </trkpt>
      <trkpt lat="46.69915" lon="5.95237">
        <ele>561.7</ele>
        <time>2021-04-29T12:33:47Z</time>
      </trkpt>
      <trkpt lat="46.69919" lon="5.9524">
        <ele>560.8</ele>
        <time>2021-04-29T12:33:56Z</time>
      </trkpt>
      <trkpt lat="46.69925" lon="5.9524">
        <ele>560.1</ele>
        <time>2021-04-29T12:34:02Z</time>
      </trkpt>
      <trkpt lat="46.69929" lon="5.95242">
        <ele>560.1</ele>
        <time>2021-04-29T12:34:07Z</time>
      </trkpt>
      <trkpt lat="46.69926" lon="5.95238">
        <ele>561</ele>
        <time>2021-04-29T12:34:32Z</time>
      </trkpt>
      <trkpt lat="46.69925" lon="5.95231">
        <ele>564.6</ele>
        <time>2021-04-29T12:35:37Z</time>
      </trkpt>
      <trkpt lat="46.69932" lon="5.9523">
        <ele>566.6</ele>
        <time>2021-04-29T12:35:41Z</time>
      </trkpt>
      <trkpt lat="46.69926" lon="5.95236">
        <ele>574.1</ele>
        <time>2021-04-29T12:35:49Z</time>
      </trkpt>
      <trkpt lat="46.69931" lon="5.95236">
        <ele>583.7</ele>
        <time>2021-04-29T12:36:02Z</time>
      </trkpt>
      <trkpt lat="46.69936" lon="5.95236">
        <ele>584.5</ele>
        <time>2021-04-29T12:36:06Z</time>
      </trkpt>
      <trkpt lat="46.69942" lon="5.95235">
        <ele>585</ele>
        <time>2021-04-29T12:36:10Z</time>
      </trkpt>
      <trkpt lat="46.69947" lon="5.95234">
        <ele>585.4</ele>
        <time>2021-04-29T12:36:15Z</time>
      </trkpt>
      <trkpt lat="46.69952" lon="5.95233">
        <ele>585.6</ele>
        <time>2021-04-29T12:36:21Z</time>
      </trkpt>
      <trkpt lat="46.69957" lon="5.95233">
        <ele>585.9</ele>
        <time>2021-04-29T12:36:26Z</time>
      </trkpt>
      <trkpt lat="46.6996" lon="5.95238">
        <ele>586</ele>
        <time>2021-04-29T12:36:34Z</time>
      </trkpt>
      <trkpt lat="46.69963" lon="5.95244">
        <ele>585.5</ele>
        <time>2021-04-29T12:36:41Z</time>
      </trkpt>
      <trkpt lat="46.69964" lon="5.95251">
        <ele>584.9</ele>
        <time>2021-04-29T12:36:47Z</time>
      </trkpt>
      <trkpt lat="46.69964" lon="5.95258">
        <ele>583.8</ele>
        <time>2021-04-29T12:36:59Z</time>
      </trkpt>
      <trkpt lat="46.6996" lon="5.95264">
        <ele>583.2</ele>
        <time>2021-04-29T12:37:05Z</time>
      </trkpt>
      <trkpt lat="46.69956" lon="5.95268">
        <ele>582.7</ele>
        <time>2021-04-29T12:37:11Z</time>
      </trkpt>
      <trkpt lat="46.69951" lon="5.95271">
        <ele>582.7</ele>
        <time>2021-04-29T12:37:16Z</time>
      </trkpt>
      <trkpt lat="46.69948" lon="5.95275">
        <ele>582.8</ele>
        <time>2021-04-29T12:37:21Z</time>
      </trkpt>
      <trkpt lat="46.69943" lon="5.9528">
        <ele>582.7</ele>
        <time>2021-04-29T12:37:25Z</time>
      </trkpt>
      <trkpt lat="46.69939" lon="5.95285">
        <ele>582.7</ele>
        <time>2021-04-29T12:37:29Z</time>
      </trkpt>
      <trkpt lat="46.69935" lon="5.9529">
        <ele>582.7</ele>
        <time>2021-04-29T12:37:34Z</time>
      </trkpt>
      <trkpt lat="46.6993" lon="5.95293">
        <ele>582.4</ele>
        <time>2021-04-29T12:37:43Z</time>
      </trkpt>
      <trkpt lat="46.69934" lon="5.95298">
        <ele>578.3</ele>
        <time>2021-04-29T12:38:01Z</time>
      </trkpt>
      <trkpt lat="46.69942" lon="5.953">
        <ele>576.2</ele>
        <time>2021-04-29T12:38:18Z</time>
      </trkpt>
      <trkpt lat="46.69945" lon="5.95288">
        <ele>576.5</ele>
        <time>2021-04-29T12:38:22Z</time>
      </trkpt>
      <trkpt lat="46.69944" lon="5.95214">
        <ele>577.4</ele>
        <time>2021-04-29T12:38:26Z</time>
      </trkpt>
      <trkpt lat="46.69948" lon="5.95223">
        <ele>601.8</ele>
        <time>2021-04-29T12:38:30Z</time>
      </trkpt>
      <trkpt lat="46.6996" lon="5.95266">
        <ele>624.4</ele>
        <time>2021-04-29T12:38:34Z</time>
      </trkpt>
      <trkpt lat="46.69965" lon="5.95281">
        <ele>637.6</ele>
        <time>2021-04-29T12:38:38Z</time>
      </trkpt>
      <trkpt lat="46.69961" lon="5.95284">
        <ele>644.1</ele>
        <time>2021-04-29T12:38:45Z</time>
      </trkpt>
      <trkpt lat="46.69952" lon="5.95284">
        <ele>640.3</ele>
        <time>2021-04-29T12:38:49Z</time>
      </trkpt>
      <trkpt lat="46.69947" lon="5.95286">
        <ele>634.8</ele>
        <time>2021-04-29T12:38:54Z</time>
      </trkpt>
      <trkpt lat="46.69943" lon="5.95293">
        <ele>628.7</ele>
        <time>2021-04-29T12:39:00Z</time>
      </trkpt>
      <trkpt lat="46.69941" lon="5.95299">
        <ele>623.1</ele>
        <time>2021-04-29T12:39:05Z</time>
      </trkpt>
      <trkpt lat="46.69943" lon="5.95305">
        <ele>618.6</ele>
        <time>2021-04-29T12:39:11Z</time>
      </trkpt>
      <trkpt lat="46.69946" lon="5.95312">
        <ele>616.5</ele>
        <time>2021-04-29T12:39:15Z</time>
      </trkpt>
      <trkpt lat="46.69943" lon="5.95317">
        <ele>612.6</ele>
        <time>2021-04-29T12:39:49Z</time>
      </trkpt>
      <trkpt lat="46.69941" lon="5.9531">
        <ele>614.1</ele>
        <time>2021-04-29T12:40:04Z</time>
      </trkpt>
      <trkpt lat="46.69939" lon="5.95317">
        <ele>614.4</ele>
        <time>2021-04-29T12:40:17Z</time>
      </trkpt>
      <trkpt lat="46.6994" lon="5.95324">
        <ele>614.1</ele>
        <time>2021-04-29T12:40:23Z</time>
      </trkpt>
      <trkpt lat="46.69942" lon="5.95331">
        <ele>613.7</ele>
        <time>2021-04-29T12:40:27Z</time>
      </trkpt>
      <trkpt lat="46.69946" lon="5.95336">
        <ele>612.5</ele>
        <time>2021-04-29T12:40:39Z</time>
      </trkpt>
      <trkpt lat="46.69951" lon="5.95361">
        <ele>611.7</ele>
        <time>2021-04-29T12:40:43Z</time>
      </trkpt>
      <trkpt lat="46.69955" lon="5.9537">
        <ele>610.9</ele>
        <time>2021-04-29T12:40:47Z</time>
      </trkpt>
      <trkpt lat="46.69959" lon="5.95372">
        <ele>609.9</ele>
        <time>2021-04-29T12:40:53Z</time>
      </trkpt>
      <trkpt lat="46.6996" lon="5.95365">
        <ele>609.2</ele>
        <time>2021-04-29T12:41:00Z</time>
      </trkpt>
      <trkpt lat="46.69957" lon="5.9536">
        <ele>608.2</ele>
        <time>2021-04-29T12:41:11Z</time>
      </trkpt>
      <trkpt lat="46.69953" lon="5.95357">
        <ele>607.6</ele>
        <time>2021-04-29T12:41:16Z</time>
      </trkpt>
      <trkpt lat="46.69951" lon="5.95351">
        <ele>607</ele>
        <time>2021-04-29T12:41:24Z</time>
      </trkpt>
      <trkpt lat="46.69947" lon="5.9534">
        <ele>606.3</ele>
        <time>2021-04-29T12:41:33Z</time>
      </trkpt>
      <trkpt lat="46.69941" lon="5.95329">
        <ele>605.8</ele>
        <time>2021-04-29T12:41:37Z</time>
      </trkpt>
      <trkpt lat="46.69936" lon="5.95318">
        <ele>605.2</ele>
        <time>2021-04-29T12:41:41Z</time>
      </trkpt>
      <trkpt lat="46.69933" lon="5.95305">
        <ele>604.7</ele>
        <time>2021-04-29T12:41:45Z</time>
      </trkpt>
      <trkpt lat="46.69931" lon="5.953">
        <ele>604</ele>
        <time>2021-04-29T12:41:49Z</time>
      </trkpt>
      <trkpt lat="46.69926" lon="5.95298">
        <ele>603.1</ele>
        <time>2021-04-29T12:42:21Z</time>
      </trkpt>
      <trkpt lat="46.69925" lon="5.95305">
        <ele>590.5</ele>
        <time>2021-04-29T12:43:20Z</time>
      </trkpt>
      <trkpt lat="46.69931" lon="5.95303">
        <ele>587.8</ele>
        <time>2021-04-29T12:45:52Z</time>
      </trkpt>
      <trkpt lat="46.69936" lon="5.95305">
        <ele>588.1</ele>
        <time>2021-04-29T12:45:56Z</time>
      </trkpt>
      <trkpt lat="46.6994" lon="5.95305">
        <ele>588.3</ele>
        <time>2021-04-29T12:46:03Z</time>
      </trkpt>
      <trkpt lat="46.69945" lon="5.95306">
        <ele>587</ele>
        <time>2021-04-29T12:46:33Z</time>
      </trkpt>
      <trkpt lat="46.69949" lon="5.95309">
        <ele>586.5</ele>
        <time>2021-04-29T12:46:44Z</time>
      </trkpt>
      <trkpt lat="46.69954" lon="5.95312">
        <ele>586.6</ele>
        <time>2021-04-29T12:46:58Z</time>
      </trkpt>
      <trkpt lat="46.69958" lon="5.95311">
        <ele>586.9</ele>
        <time>2021-04-29T12:47:09Z</time>
      </trkpt>
      <trkpt lat="46.69962" lon="5.95315">
        <ele>585.7</ele>
        <time>2021-04-29T12:47:18Z</time>
      </trkpt>
      <trkpt lat="46.69969" lon="5.9532">
        <ele>586</ele>
        <time>2021-04-29T12:47:37Z</time>
      </trkpt>
      <trkpt lat="46.69974" lon="5.95321">
        <ele>586.1</ele>
        <time>2021-04-29T12:47:41Z</time>
      </trkpt>
      <trkpt lat="46.69978" lon="5.95316">
        <ele>588.5</ele>
        <time>2021-04-29T12:48:00Z</time>
      </trkpt>
      <trkpt lat="46.6998" lon="5.9531">
        <ele>591.6</ele>
        <time>2021-04-29T12:48:07Z</time>
      </trkpt>
      <trkpt lat="46.69981" lon="5.95303">
        <ele>593.3</ele>
        <time>2021-04-29T12:48:14Z</time>
      </trkpt>
      <trkpt lat="46.69983" lon="5.95297">
        <ele>594.7</ele>
        <time>2021-04-29T12:48:21Z</time>
      </trkpt>
      <trkpt lat="46.69986" lon="5.95291">
        <ele>595.4</ele>
        <time>2021-04-29T12:48:28Z</time>
      </trkpt>
      <trkpt lat="46.69991" lon="5.95289">
        <ele>595.5</ele>
        <time>2021-04-29T12:48:40Z</time>
      </trkpt>
      <trkpt lat="46.69995" lon="5.95288">
        <ele>596.1</ele>
        <time>2021-04-29T12:49:00Z</time>
      </trkpt>
      <trkpt lat="46.69997" lon="5.95282">
        <ele>598.6</ele>
        <time>2021-04-29T12:49:07Z</time>
      </trkpt>
      <trkpt lat="46.69999" lon="5.95277">
        <ele>601</ele>
        <time>2021-04-29T12:49:21Z</time>
      </trkpt>
      <trkpt lat="46.70004" lon="5.95277">
        <ele>602.3</ele>
        <time>2021-04-29T12:49:30Z</time>
      </trkpt>
      <trkpt lat="46.70008" lon="5.95281">
        <ele>603.6</ele>
        <time>2021-04-29T12:49:35Z</time>
      </trkpt>
      <trkpt lat="46.70009" lon="5.95288">
        <ele>607.3</ele>
        <time>2021-04-29T12:49:52Z</time>
      </trkpt>
      <trkpt lat="46.70007" lon="5.95294">
        <ele>609.2</ele>
        <time>2021-04-29T12:50:03Z</time>
      </trkpt>
      <trkpt lat="46.70011" lon="5.95289">
        <ele>610.9</ele>
        <time>2021-04-29T12:50:44Z</time>
      </trkpt>
      <trkpt lat="46.70015" lon="5.95285">
        <ele>611.2</ele>
        <time>2021-04-29T12:50:50Z</time>
      </trkpt>
      <trkpt lat="46.7002" lon="5.95284">
        <ele>611.7</ele>
        <time>2021-04-29T12:51:00Z</time>
      </trkpt>
      <trkpt lat="46.70026" lon="5.95283">
        <ele>612.5</ele>
        <time>2021-04-29T12:51:11Z</time>
      </trkpt>
      <trkpt lat="46.70031" lon="5.95287">
        <ele>613.2</ele>
        <time>2021-04-29T12:51:25Z</time>
      </trkpt>
      <trkpt lat="46.70032" lon="5.95293">
        <ele>613.5</ele>
        <time>2021-04-29T12:51:33Z</time>
      </trkpt>
      <trkpt lat="46.70033" lon="5.95299">
        <ele>613.9</ele>
        <time>2021-04-29T12:51:38Z</time>
      </trkpt>
      <trkpt lat="46.70028" lon="5.953">
        <ele>614.4</ele>
        <time>2021-04-29T12:51:52Z</time>
      </trkpt>
      <trkpt lat="46.70023" lon="5.953">
        <ele>614.1</ele>
        <time>2021-04-29T12:51:57Z</time>
      </trkpt>
      <trkpt lat="46.70021" lon="5.95307">
        <ele>614.1</ele>
        <time>2021-04-29T12:52:09Z</time>
      </trkpt>
      <trkpt lat="46.70022" lon="5.95314">
        <ele>614.4</ele>
        <time>2021-04-29T12:52:19Z</time>
      </trkpt>
      <trkpt lat="46.70027" lon="5.95319">
        <ele>622.6</ele>
        <time>2021-04-29T12:53:56Z</time>
      </trkpt>
      <trkpt lat="46.70018" lon="5.95316">
        <ele>621.3</ele>
        <time>2021-04-29T12:54:45Z</time>
      </trkpt>
      <trkpt lat="46.70016" lon="5.95323">
        <ele>624.8</ele>
        <time>2021-04-29T12:55:19Z</time>
      </trkpt>
      <trkpt lat="46.70014" lon="5.95328">
        <ele>627.6</ele>
        <time>2021-04-29T12:55:31Z</time>
      </trkpt>
      <trkpt lat="46.70018" lon="5.95331">
        <ele>628</ele>
        <time>2021-04-29T12:56:14Z</time>
      </trkpt>
      <trkpt lat="46.70021" lon="5.95336">
        <ele>625.5</ele>
        <time>2021-04-29T12:57:10Z</time>
      </trkpt>
      <trkpt lat="46.70018" lon="5.95341">
        <ele>624.9</ele>
        <time>2021-04-29T12:58:18Z</time>
      </trkpt>
      <trkpt lat="46.70014" lon="5.95345">
        <ele>624.8</ele>
        <time>2021-04-29T12:58:24Z</time>
      </trkpt>
      <trkpt lat="46.7001" lon="5.9534">
        <ele>625</ele>
        <time>2021-04-29T12:58:33Z</time>
      </trkpt>
      <trkpt lat="46.7001" lon="5.95347">
        <ele>625.7</ele>
        <time>2021-04-29T12:58:50Z</time>
      </trkpt>
      <trkpt lat="46.70012" lon="5.95353">
        <ele>626.4</ele>
        <time>2021-04-29T12:58:55Z</time>
      </trkpt>
      <trkpt lat="46.70016" lon="5.95357">
        <ele>626.7</ele>
        <time>2021-04-29T12:59:12Z</time>
      </trkpt>
      <trkpt lat="46.70021" lon="5.95357">
        <ele>627</ele>
        <time>2021-04-29T12:59:21Z</time>
      </trkpt>
      <trkpt lat="46.70025" lon="5.95361">
        <ele>628</ele>
        <time>2021-04-29T12:59:29Z</time>
      </trkpt>
      <trkpt lat="46.70029" lon="5.95362">
        <ele>629.7</ele>
        <time>2021-04-29T12:59:41Z</time>
      </trkpt>
      <trkpt lat="46.70034" lon="5.95365">
        <ele>631.4</ele>
        <time>2021-04-29T12:59:53Z</time>
      </trkpt>
      <trkpt lat="46.70038" lon="5.95367">
        <ele>632.5</ele>
        <time>2021-04-29T13:00:11Z</time>
      </trkpt>
      <trkpt lat="46.70044" lon="5.95367">
        <ele>632.6</ele>
        <time>2021-04-29T13:00:22Z</time>
      </trkpt>
      <trkpt lat="46.70052" lon="5.95363">
        <ele>632.6</ele>
        <time>2021-04-29T13:00:26Z</time>
      </trkpt>
      <trkpt lat="46.70046" lon="5.95357">
        <ele>632.6</ele>
        <time>2021-04-29T13:00:30Z</time>
      </trkpt>
      <trkpt lat="46.70046" lon="5.95369">
        <ele>629.5</ele>
        <time>2021-04-29T13:00:34Z</time>
      </trkpt>
      <trkpt lat="46.70049" lon="5.95382">
        <ele>626.5</ele>
        <time>2021-04-29T13:00:38Z</time>
      </trkpt>
      <trkpt lat="46.70053" lon="5.95387">
        <ele>623.7</ele>
        <time>2021-04-29T13:00:45Z</time>
      </trkpt>
      <trkpt lat="46.70053" lon="5.95394">
        <ele>622.6</ele>
        <time>2021-04-29T13:00:52Z</time>
      </trkpt>
      <trkpt lat="46.7005" lon="5.95399">
        <ele>622.2</ele>
        <time>2021-04-29T13:00:57Z</time>
      </trkpt>
      <trkpt lat="46.70045" lon="5.95397">
        <ele>622.5</ele>
        <time>2021-04-29T13:01:03Z</time>
      </trkpt>
      <trkpt lat="46.70042" lon="5.95401">
        <ele>628.1</ele>
        <time>2021-04-29T13:01:13Z</time>
      </trkpt>
      <trkpt lat="46.70038" lon="5.95406">
        <ele>629.6</ele>
        <time>2021-04-29T13:01:19Z</time>
      </trkpt>
      <trkpt lat="46.70032" lon="5.95408">
        <ele>631.6</ele>
        <time>2021-04-29T13:01:23Z</time>
      </trkpt>
      <trkpt lat="46.70028" lon="5.95413">
        <ele>634.8</ele>
        <time>2021-04-29T13:01:32Z</time>
      </trkpt>
      <trkpt lat="46.70025" lon="5.95418">
        <ele>635.6</ele>
        <time>2021-04-29T13:01:37Z</time>
      </trkpt>
      <trkpt lat="46.70022" lon="5.95425">
        <ele>636.9</ele>
        <time>2021-04-29T13:01:41Z</time>
      </trkpt>
      <trkpt lat="46.70021" lon="5.95432">
        <ele>638</ele>
        <time>2021-04-29T13:01:45Z</time>
      </trkpt>
      <trkpt lat="46.70018" lon="5.95437">
        <ele>639</ele>
        <time>2021-04-29T13:01:49Z</time>
      </trkpt>
      <trkpt lat="46.70015" lon="5.95444">
        <ele>640.2</ele>
        <time>2021-04-29T13:01:59Z</time>
      </trkpt>
      <trkpt lat="46.70004" lon="5.95455">
        <ele>644.8</ele>
        <time>2021-04-29T13:02:03Z</time>
      </trkpt>
      <trkpt lat="46.69996" lon="5.95458">
        <ele>648.1</ele>
        <time>2021-04-29T13:02:07Z</time>
      </trkpt>
      <trkpt lat="46.69993" lon="5.95462">
        <ele>650.5</ele>
        <time>2021-04-29T13:02:13Z</time>
      </trkpt>
      <trkpt lat="46.69988" lon="5.95464">
        <ele>651.4</ele>
        <time>2021-04-29T13:02:20Z</time>
      </trkpt>
      <trkpt lat="46.69984" lon="5.95461">
        <ele>650.8</ele>
        <time>2021-04-29T13:02:30Z</time>
      </trkpt>
      <trkpt lat="46.6998" lon="5.95457">
        <ele>650.2</ele>
        <time>2021-04-29T13:02:43Z</time>
      </trkpt>
      <trkpt lat="46.69968" lon="5.95456">
        <ele>646.6</ele>
        <time>2021-04-29T13:03:03Z</time>
      </trkpt>
      <trkpt lat="46.69959" lon="5.95457">
        <ele>644.6</ele>
        <time>2021-04-29T13:03:07Z</time>
      </trkpt>
      <trkpt lat="46.69954" lon="5.95459">
        <ele>642.6</ele>
        <time>2021-04-29T13:03:13Z</time>
      </trkpt>
      <trkpt lat="46.69948" lon="5.95463">
        <ele>641</ele>
        <time>2021-04-29T13:03:17Z</time>
      </trkpt>
      <trkpt lat="46.69944" lon="5.95467">
        <ele>640.9</ele>
        <time>2021-04-29T13:03:22Z</time>
      </trkpt>
      <trkpt lat="46.69941" lon="5.95472">
        <ele>641.5</ele>
        <time>2021-04-29T13:03:31Z</time>
      </trkpt>
      <trkpt lat="46.69939" lon="5.95478">
        <ele>642.2</ele>
        <time>2021-04-29T13:03:38Z</time>
      </trkpt>
      <trkpt lat="46.69934" lon="5.95479">
        <ele>642.7</ele>
        <time>2021-04-29T13:03:43Z</time>
      </trkpt>
      <trkpt lat="46.69929" lon="5.95479">
        <ele>643.3</ele>
        <time>2021-04-29T13:03:49Z</time>
      </trkpt>
      <trkpt lat="46.69925" lon="5.9548">
        <ele>643.8</ele>
        <time>2021-04-29T13:03:56Z</time>
      </trkpt>
      <trkpt lat="46.6992" lon="5.95482">
        <ele>643.9</ele>
        <time>2021-04-29T13:04:03Z</time>
      </trkpt>
      <trkpt lat="46.69915" lon="5.95485">
        <ele>643.7</ele>
        <time>2021-04-29T13:04:09Z</time>
      </trkpt>
      <trkpt lat="46.6991" lon="5.95484">
        <ele>643.3</ele>
        <time>2021-04-29T13:04:20Z</time>
      </trkpt>
      <trkpt lat="46.69907" lon="5.95491">
        <ele>642.5</ele>
        <time>2021-04-29T13:04:58Z</time>
      </trkpt>
      <trkpt lat="46.69905" lon="5.95498">
        <ele>642.6</ele>
        <time>2021-04-29T13:05:09Z</time>
      </trkpt>
      <trkpt lat="46.69903" lon="5.95504">
        <ele>643.3</ele>
        <time>2021-04-29T13:05:16Z</time>
      </trkpt>
      <trkpt lat="46.69899" lon="5.95509">
        <ele>643.9</ele>
        <time>2021-04-29T13:05:22Z</time>
      </trkpt>
      <trkpt lat="46.69896" lon="5.95515">
        <ele>644.5</ele>
        <time>2021-04-29T13:05:29Z</time>
      </trkpt>
      <trkpt lat="46.69893" lon="5.95521">
        <ele>645.2</ele>
        <time>2021-04-29T13:05:35Z</time>
      </trkpt>
      <trkpt lat="46.69889" lon="5.95526">
        <ele>645.6</ele>
        <time>2021-04-29T13:05:39Z</time>
      </trkpt>
      <trkpt lat="46.69886" lon="5.9553">
        <ele>645.9</ele>
        <time>2021-04-29T13:05:43Z</time>
      </trkpt>
      <trkpt lat="46.69882" lon="5.95534">
        <ele>645.8</ele>
        <time>2021-04-29T13:05:48Z</time>
      </trkpt>
      <trkpt lat="46.69879" lon="5.95539">
        <ele>645.6</ele>
        <time>2021-04-29T13:05:53Z</time>
      </trkpt>
      <trkpt lat="46.69875" lon="5.95544">
        <ele>645.7</ele>
        <time>2021-04-29T13:05:59Z</time>
      </trkpt>
      <trkpt lat="46.6987" lon="5.95547">
        <ele>645.3</ele>
        <time>2021-04-29T13:06:04Z</time>
      </trkpt>
      <trkpt lat="46.69866" lon="5.9555">
        <ele>644.7</ele>
        <time>2021-04-29T13:06:09Z</time>
      </trkpt>
      <trkpt lat="46.69862" lon="5.95555">
        <ele>644.2</ele>
        <time>2021-04-29T13:06:16Z</time>
      </trkpt>
      <trkpt lat="46.69864" lon="5.95561">
        <ele>643.3</ele>
        <time>2021-04-29T13:06:25Z</time>
      </trkpt>
      <trkpt lat="46.69865" lon="5.95569">
        <ele>642.6</ele>
        <time>2021-04-29T13:06:51Z</time>
      </trkpt>
      <trkpt lat="46.69871" lon="5.95571">
        <ele>642.2</ele>
        <time>2021-04-29T13:07:00Z</time>
      </trkpt>
      <trkpt lat="46.69875" lon="5.9557">
        <ele>642.4</ele>
        <time>2021-04-29T13:07:08Z</time>
      </trkpt>
      <trkpt lat="46.69878" lon="5.95565">
        <ele>642.7</ele>
        <time>2021-04-29T13:07:15Z</time>
      </trkpt>
      <trkpt lat="46.69883" lon="5.95566">
        <ele>643.4</ele>
        <time>2021-04-29T13:07:27Z</time>
      </trkpt>
      <trkpt lat="46.69887" lon="5.95568">
        <ele>644.7</ele>
        <time>2021-04-29T13:07:36Z</time>
      </trkpt>
      <trkpt lat="46.69891" lon="5.95569">
        <ele>646.4</ele>
        <time>2021-04-29T13:07:46Z</time>
      </trkpt>
      <trkpt lat="46.69896" lon="5.95568">
        <ele>647.5</ele>
        <time>2021-04-29T13:07:56Z</time>
      </trkpt>
      <trkpt lat="46.69901" lon="5.95567">
        <ele>648.3</ele>
        <time>2021-04-29T13:08:03Z</time>
      </trkpt>
      <trkpt lat="46.69905" lon="5.9557">
        <ele>648.9</ele>
        <time>2021-04-29T13:08:10Z</time>
      </trkpt>
      <trkpt lat="46.6991" lon="5.95573">
        <ele>649</ele>
        <time>2021-04-29T13:08:16Z</time>
      </trkpt>
      <trkpt lat="46.69915" lon="5.95574">
        <ele>650.6</ele>
        <time>2021-04-29T13:08:24Z</time>
      </trkpt>
      <trkpt lat="46.6992" lon="5.95577">
        <ele>650.6</ele>
        <time>2021-04-29T13:08:32Z</time>
      </trkpt>
      <trkpt lat="46.69924" lon="5.95578">
        <ele>650.2</ele>
        <time>2021-04-29T13:08:37Z</time>
      </trkpt>
      <trkpt lat="46.69929" lon="5.95579">
        <ele>650.1</ele>
        <time>2021-04-29T13:08:42Z</time>
      </trkpt>
      <trkpt lat="46.69934" lon="5.95581">
        <ele>650</ele>
        <time>2021-04-29T13:08:46Z</time>
      </trkpt>
      <trkpt lat="46.69939" lon="5.95581">
        <ele>650</ele>
        <time>2021-04-29T13:08:52Z</time>
      </trkpt>
      <trkpt lat="46.69944" lon="5.95582">
        <ele>650</ele>
        <time>2021-04-29T13:08:58Z</time>
      </trkpt>
      <trkpt lat="46.69949" lon="5.95583">
        <ele>650.1</ele>
        <time>2021-04-29T13:09:05Z</time>
      </trkpt>
      <trkpt lat="46.69955" lon="5.95581">
        <ele>653.4</ele>
        <time>2021-04-29T13:10:01Z</time>
      </trkpt>
      <trkpt lat="46.6996" lon="5.9558">
        <ele>654.9</ele>
        <time>2021-04-29T13:10:09Z</time>
      </trkpt>
      <trkpt lat="46.69964" lon="5.95578">
        <ele>656</ele>
        <time>2021-04-29T13:10:17Z</time>
      </trkpt>
      <trkpt lat="46.69969" lon="5.95576">
        <ele>657</ele>
        <time>2021-04-29T13:10:26Z</time>
      </trkpt>
      <trkpt lat="46.69974" lon="5.95577">
        <ele>657.4</ele>
        <time>2021-04-29T13:10:32Z</time>
      </trkpt>
      <trkpt lat="46.69978" lon="5.95573">
        <ele>659</ele>
        <time>2021-04-29T13:10:40Z</time>
      </trkpt>
      <trkpt lat="46.69982" lon="5.95569">
        <ele>661</ele>
        <time>2021-04-29T13:10:47Z</time>
      </trkpt>
      <trkpt lat="46.69986" lon="5.95567">
        <ele>662.8</ele>
        <time>2021-04-29T13:10:53Z</time>
      </trkpt>
      <trkpt lat="46.69991" lon="5.95567">
        <ele>664.1</ele>
        <time>2021-04-29T13:10:59Z</time>
      </trkpt>
      <trkpt lat="46.69996" lon="5.95567">
        <ele>665</ele>
        <time>2021-04-29T13:11:04Z</time>
      </trkpt>
      <trkpt lat="46.70001" lon="5.95568">
        <ele>666.1</ele>
        <time>2021-04-29T13:11:09Z</time>
      </trkpt>
      <trkpt lat="46.70005" lon="5.95569">
        <ele>667.3</ele>
        <time>2021-04-29T13:11:16Z</time>
      </trkpt>
      <trkpt lat="46.7001" lon="5.95567">
        <ele>668.3</ele>
        <time>2021-04-29T13:11:24Z</time>
      </trkpt>
      <trkpt lat="46.70015" lon="5.95567">
        <ele>669.1</ele>
        <time>2021-04-29T13:12:05Z</time>
      </trkpt>
      <trkpt lat="46.7002" lon="5.95568">
        <ele>669.4</ele>
        <time>2021-04-29T13:12:13Z</time>
      </trkpt>
      <trkpt lat="46.70025" lon="5.95568">
        <ele>669.8</ele>
        <time>2021-04-29T13:12:20Z</time>
      </trkpt>
      <trkpt lat="46.7003" lon="5.9557">
        <ele>670.2</ele>
        <time>2021-04-29T13:12:28Z</time>
      </trkpt>
      <trkpt lat="46.70035" lon="5.95572">
        <ele>670.7</ele>
        <time>2021-04-29T13:12:34Z</time>
      </trkpt>
      <trkpt lat="46.70036" lon="5.95578">
        <ele>671.9</ele>
        <time>2021-04-29T13:12:45Z</time>
      </trkpt>
      <trkpt lat="46.70041" lon="5.9558">
        <ele>673</ele>
        <time>2021-04-29T13:12:54Z</time>
      </trkpt>
      <trkpt lat="46.70045" lon="5.95583">
        <ele>673.8</ele>
        <time>2021-04-29T13:13:02Z</time>
      </trkpt>
      <trkpt lat="46.70049" lon="5.95585">
        <ele>674.4</ele>
        <time>2021-04-29T13:13:09Z</time>
      </trkpt>
      <trkpt lat="46.70054" lon="5.95588">
        <ele>675.3</ele>
        <time>2021-04-29T13:13:19Z</time>
      </trkpt>
      <trkpt lat="46.70057" lon="5.95592">
        <ele>677</ele>
        <time>2021-04-29T13:13:28Z</time>
      </trkpt>
      <trkpt lat="46.70062" lon="5.95595">
        <ele>681</ele>
        <time>2021-04-29T13:13:47Z</time>
      </trkpt>
      <trkpt lat="46.70066" lon="5.956">
        <ele>682.4</ele>
        <time>2021-04-29T13:13:57Z</time>
      </trkpt>
      <trkpt lat="46.70069" lon="5.95604">
        <ele>683.5</ele>
        <time>2021-04-29T13:14:05Z</time>
      </trkpt>
      <trkpt lat="46.70074" lon="5.95606">
        <ele>684.9</ele>
        <time>2021-04-29T13:14:13Z</time>
      </trkpt>
      <trkpt lat="46.70078" lon="5.9561">
        <ele>686.4</ele>
        <time>2021-04-29T13:14:18Z</time>
      </trkpt>
      <trkpt lat="46.70082" lon="5.95613">
        <ele>688.1</ele>
        <time>2021-04-29T13:14:25Z</time>
      </trkpt>
      <trkpt lat="46.70087" lon="5.95616">
        <ele>689.3</ele>
        <time>2021-04-29T13:14:32Z</time>
      </trkpt>
      <trkpt lat="46.70092" lon="5.95619">
        <ele>690.6</ele>
        <time>2021-04-29T13:14:38Z</time>
      </trkpt>
      <trkpt lat="46.70096" lon="5.95623">
        <ele>691.7</ele>
        <time>2021-04-29T13:14:44Z</time>
      </trkpt>
      <trkpt lat="46.701" lon="5.95628">
        <ele>692.8</ele>
        <time>2021-04-29T13:14:51Z</time>
      </trkpt>
      <trkpt lat="46.70101" lon="5.95635">
        <ele>693</ele>
        <time>2021-04-29T13:14:58Z</time>
      </trkpt>
      <trkpt lat="46.70103" lon="5.95642">
        <ele>693</ele>
        <time>2021-04-29T13:16:06Z</time>
      </trkpt>
      <trkpt lat="46.70105" lon="5.9565">
        <ele>692.8</ele>
        <time>2021-04-29T13:16:10Z</time>
      </trkpt>
      <trkpt lat="46.70109" lon="5.95655">
        <ele>692.7</ele>
        <time>2021-04-29T13:16:15Z</time>
      </trkpt>
      <trkpt lat="46.70111" lon="5.95662">
        <ele>692.4</ele>
        <time>2021-04-29T13:16:21Z</time>
      </trkpt>
      <trkpt lat="46.70108" lon="5.95669">
        <ele>692</ele>
        <time>2021-04-29T13:16:26Z</time>
      </trkpt>
      <trkpt lat="46.70106" lon="5.95676">
        <ele>691.6</ele>
        <time>2021-04-29T13:16:32Z</time>
      </trkpt>
      <trkpt lat="46.70105" lon="5.95683">
        <ele>690.6</ele>
        <time>2021-04-29T13:16:39Z</time>
      </trkpt>
      <trkpt lat="46.70103" lon="5.95692">
        <ele>689.9</ele>
        <time>2021-04-29T13:16:59Z</time>
      </trkpt>
      <trkpt lat="46.70109" lon="5.95697">
        <ele>695.9</ele>
        <time>2021-04-29T13:18:23Z</time>
      </trkpt>
      <trkpt lat="46.70114" lon="5.95698">
        <ele>700.9</ele>
        <time>2021-04-29T13:18:32Z</time>
      </trkpt>
      <trkpt lat="46.70114" lon="5.95691">
        <ele>701</ele>
        <time>2021-04-29T13:19:09Z</time>
      </trkpt>
      <trkpt lat="46.70113" lon="5.95685">
        <ele>699.3</ele>
        <time>2021-04-29T13:19:18Z</time>
      </trkpt>
      <trkpt lat="46.70113" lon="5.95677">
        <ele>698.7</ele>
        <time>2021-04-29T13:19:26Z</time>
      </trkpt>
      <trkpt lat="46.70116" lon="5.95671">
        <ele>698.5</ele>
        <time>2021-04-29T13:19:32Z</time>
      </trkpt>
      <trkpt lat="46.7012" lon="5.95667">
        <ele>698.6</ele>
        <time>2021-04-29T13:19:40Z</time>
      </trkpt>
      <trkpt lat="46.70124" lon="5.95664">
        <ele>697.8</ele>
        <time>2021-04-29T13:19:47Z</time>
      </trkpt>
      <trkpt lat="46.70129" lon="5.95663">
        <ele>698.3</ele>
        <time>2021-04-29T13:19:54Z</time>
      </trkpt>
      <trkpt lat="46.70134" lon="5.95666">
        <ele>700.2</ele>
        <time>2021-04-29T13:19:59Z</time>
      </trkpt>
      <trkpt lat="46.70139" lon="5.95667">
        <ele>701.9</ele>
        <time>2021-04-29T13:20:06Z</time>
      </trkpt>
      <trkpt lat="46.70143" lon="5.95669">
        <ele>702.9</ele>
        <time>2021-04-29T13:20:12Z</time>
      </trkpt>
      <trkpt lat="46.70151" lon="5.9567">
        <ele>703.7</ele>
        <time>2021-04-29T13:20:21Z</time>
      </trkpt>
      <trkpt lat="46.70155" lon="5.9567">
        <ele>704.2</ele>
        <time>2021-04-29T13:20:25Z</time>
      </trkpt>
      <trkpt lat="46.7016" lon="5.95673">
        <ele>705</ele>
        <time>2021-04-29T13:20:34Z</time>
      </trkpt>
      <trkpt lat="46.70167" lon="5.95675">
        <ele>705.8</ele>
        <time>2021-04-29T13:20:48Z</time>
      </trkpt>
      <trkpt lat="46.70171" lon="5.95677">
        <ele>706.5</ele>
        <time>2021-04-29T13:20:54Z</time>
      </trkpt>
      <trkpt lat="46.70176" lon="5.95676">
        <ele>707</ele>
        <time>2021-04-29T13:21:04Z</time>
      </trkpt>
      <trkpt lat="46.70181" lon="5.95675">
        <ele>707.1</ele>
        <time>2021-04-29T13:21:09Z</time>
      </trkpt>
      <trkpt lat="46.70185" lon="5.95674">
        <ele>707.1</ele>
        <time>2021-04-29T13:21:14Z</time>
      </trkpt>
      <trkpt lat="46.70189" lon="5.95671">
        <ele>707</ele>
        <time>2021-04-29T13:21:19Z</time>
      </trkpt>
      <trkpt lat="46.70194" lon="5.95668">
        <ele>707</ele>
        <time>2021-04-29T13:21:24Z</time>
      </trkpt>
      <trkpt lat="46.70197" lon="5.95664">
        <ele>706.9</ele>
        <time>2021-04-29T13:21:29Z</time>
      </trkpt>
      <trkpt lat="46.702" lon="5.95658">
        <ele>707</ele>
        <time>2021-04-29T13:21:37Z</time>
      </trkpt>
      <trkpt lat="46.70203" lon="5.95652">
        <ele>706.6</ele>
        <time>2021-04-29T13:22:00Z</time>
      </trkpt>
      <trkpt lat="46.70205" lon="5.95646">
        <ele>706.6</ele>
        <time>2021-04-29T13:22:07Z</time>
      </trkpt>
      <trkpt lat="46.70205" lon="5.9564">
        <ele>706.7</ele>
        <time>2021-04-29T13:22:14Z</time>
      </trkpt>
      <trkpt lat="46.70207" lon="5.95633">
        <ele>707.1</ele>
        <time>2021-04-29T13:22:25Z</time>
      </trkpt>
      <trkpt lat="46.7021" lon="5.95628">
        <ele>707.3</ele>
        <time>2021-04-29T13:22:33Z</time>
      </trkpt>
      <trkpt lat="46.70213" lon="5.95623">
        <ele>707.5</ele>
        <time>2021-04-29T13:22:40Z</time>
      </trkpt>
      <trkpt lat="46.70217" lon="5.95618">
        <ele>708.1</ele>
        <time>2021-04-29T13:22:49Z</time>
      </trkpt>
      <trkpt lat="46.70219" lon="5.95612">
        <ele>708.2</ele>
        <time>2021-04-29T13:22:57Z</time>
      </trkpt>
      <trkpt lat="46.70222" lon="5.95606">
        <ele>709.3</ele>
        <time>2021-04-29T13:23:25Z</time>
      </trkpt>
      <trkpt lat="46.70225" lon="5.95602">
        <ele>709.6</ele>
        <time>2021-04-29T13:23:31Z</time>
      </trkpt>
      <trkpt lat="46.70228" lon="5.95596">
        <ele>709.5</ele>
        <time>2021-04-29T13:23:37Z</time>
      </trkpt>
      <trkpt lat="46.7023" lon="5.95591">
        <ele>709.2</ele>
        <time>2021-04-29T13:23:44Z</time>
      </trkpt>
      <trkpt lat="46.70235" lon="5.95588">
        <ele>708.6</ele>
        <time>2021-04-29T13:23:53Z</time>
      </trkpt>
      <trkpt lat="46.70237" lon="5.95577">
        <ele>711.4</ele>
        <time>2021-04-29T13:23:57Z</time>
      </trkpt>
      <trkpt lat="46.70241" lon="5.95574">
        <ele>713.7</ele>
        <time>2021-04-29T13:24:07Z</time>
      </trkpt>
      <trkpt lat="46.70247" lon="5.95573">
        <ele>714.4</ele>
        <time>2021-04-29T13:24:13Z</time>
      </trkpt>
      <trkpt lat="46.70252" lon="5.95571">
        <ele>714.9</ele>
        <time>2021-04-29T13:24:17Z</time>
      </trkpt>
      <trkpt lat="46.70256" lon="5.95567">
        <ele>715.6</ele>
        <time>2021-04-29T13:24:23Z</time>
      </trkpt>
      <trkpt lat="46.70261" lon="5.95565">
        <ele>716.1</ele>
        <time>2021-04-29T13:24:28Z</time>
      </trkpt>
      <trkpt lat="46.70266" lon="5.95563">
        <ele>716.4</ele>
        <time>2021-04-29T13:24:32Z</time>
      </trkpt>
      <trkpt lat="46.70271" lon="5.95561">
        <ele>716.6</ele>
        <time>2021-04-29T13:24:36Z</time>
      </trkpt>
      <trkpt lat="46.70276" lon="5.95559">
        <ele>716.7</ele>
        <time>2021-04-29T13:24:40Z</time>
      </trkpt>
      <trkpt lat="46.70282" lon="5.95559">
        <ele>716.9</ele>
        <time>2021-04-29T13:24:45Z</time>
      </trkpt>
      <trkpt lat="46.70286" lon="5.95562">
        <ele>717.3</ele>
        <time>2021-04-29T13:24:52Z</time>
      </trkpt>
      <trkpt lat="46.70291" lon="5.95562">
        <ele>717.7</ele>
        <time>2021-04-29T13:24:58Z</time>
      </trkpt>
      <trkpt lat="46.70295" lon="5.95561">
        <ele>718.1</ele>
        <time>2021-04-29T13:25:04Z</time>
      </trkpt>
      <trkpt lat="46.703" lon="5.95564">
        <ele>718.8</ele>
        <time>2021-04-29T13:25:11Z</time>
      </trkpt>
      <trkpt lat="46.70304" lon="5.95567">
        <ele>719.9</ele>
        <time>2021-04-29T13:25:17Z</time>
      </trkpt>
      <trkpt lat="46.70308" lon="5.95571">
        <ele>720.5</ele>
        <time>2021-04-29T13:25:25Z</time>
      </trkpt>
      <trkpt lat="46.70313" lon="5.95572">
        <ele>720.9</ele>
        <time>2021-04-29T13:25:32Z</time>
      </trkpt>
      <trkpt lat="46.70318" lon="5.95572">
        <ele>721.4</ele>
        <time>2021-04-29T13:25:38Z</time>
      </trkpt>
      <trkpt lat="46.70323" lon="5.95571">
        <ele>722.4</ele>
        <time>2021-04-29T13:25:54Z</time>
      </trkpt>
      <trkpt lat="46.70327" lon="5.95574">
        <ele>722.2</ele>
        <time>2021-04-29T13:26:00Z</time>
      </trkpt>
      <trkpt lat="46.70329" lon="5.95579">
        <ele>721.5</ele>
        <time>2021-04-29T13:26:07Z</time>
      </trkpt>
      <trkpt lat="46.70332" lon="5.95586">
        <ele>720.7</ele>
        <time>2021-04-29T13:26:14Z</time>
      </trkpt>
      <trkpt lat="46.70336" lon="5.95591">
        <ele>720.3</ele>
        <time>2021-04-29T13:26:21Z</time>
      </trkpt>
      <trkpt lat="46.70341" lon="5.95592">
        <ele>720.1</ele>
        <time>2021-04-29T13:26:28Z</time>
      </trkpt>
      <trkpt lat="46.70345" lon="5.95593">
        <ele>719.8</ele>
        <time>2021-04-29T13:26:37Z</time>
      </trkpt>
      <trkpt lat="46.7035" lon="5.95591">
        <ele>719.6</ele>
        <time>2021-04-29T13:26:56Z</time>
      </trkpt>
      <trkpt lat="46.70354" lon="5.95593">
        <ele>719.6</ele>
        <time>2021-04-29T13:27:03Z</time>
      </trkpt>
      <trkpt lat="46.70358" lon="5.95597">
        <ele>719.2</ele>
        <time>2021-04-29T13:27:10Z</time>
      </trkpt>
      <trkpt lat="46.70362" lon="5.95603">
        <ele>718.5</ele>
        <time>2021-04-29T13:27:16Z</time>
      </trkpt>
      <trkpt lat="46.70365" lon="5.95608">
        <ele>718.5</ele>
        <time>2021-04-29T13:27:20Z</time>
      </trkpt>
      <trkpt lat="46.70368" lon="5.95613">
        <ele>718.6</ele>
        <time>2021-04-29T13:27:26Z</time>
      </trkpt>
      <trkpt lat="46.7037" lon="5.95619">
        <ele>718.1</ele>
        <time>2021-04-29T13:27:32Z</time>
      </trkpt>
      <trkpt lat="46.70372" lon="5.95625">
        <ele>718.1</ele>
        <time>2021-04-29T13:27:37Z</time>
      </trkpt>
      <trkpt lat="46.70374" lon="5.95631">
        <ele>718.6</ele>
        <time>2021-04-29T13:27:42Z</time>
      </trkpt>
      <trkpt lat="46.70377" lon="5.95637">
        <ele>719.3</ele>
        <time>2021-04-29T13:27:47Z</time>
      </trkpt>
      <trkpt lat="46.70377" lon="5.95644">
        <ele>720.2</ele>
        <time>2021-04-29T13:28:23Z</time>
      </trkpt>
      <trkpt lat="46.70374" lon="5.9565">
        <ele>720.8</ele>
        <time>2021-04-29T13:28:30Z</time>
      </trkpt>
      <trkpt lat="46.70372" lon="5.95656">
        <ele>721.4</ele>
        <time>2021-04-29T13:28:41Z</time>
      </trkpt>
      <trkpt lat="46.70371" lon="5.95663">
        <ele>721.6</ele>
        <time>2021-04-29T13:28:47Z</time>
      </trkpt>
      <trkpt lat="46.70371" lon="5.9567">
        <ele>721.7</ele>
        <time>2021-04-29T13:28:53Z</time>
      </trkpt>
      <trkpt lat="46.70372" lon="5.95676">
        <ele>721.8</ele>
        <time>2021-04-29T13:28:58Z</time>
      </trkpt>
      <trkpt lat="46.70372" lon="5.95683">
        <ele>721.8</ele>
        <time>2021-04-29T13:29:05Z</time>
      </trkpt>
      <trkpt lat="46.70371" lon="5.9569">
        <ele>721.3</ele>
        <time>2021-04-29T13:29:10Z</time>
      </trkpt>
      <trkpt lat="46.70371" lon="5.95698">
        <ele>720.3</ele>
        <time>2021-04-29T13:29:15Z</time>
      </trkpt>
      <trkpt lat="46.70371" lon="5.95706">
        <ele>719</ele>
        <time>2021-04-29T13:29:20Z</time>
      </trkpt>
      <trkpt lat="46.70371" lon="5.95713">
        <ele>717.8</ele>
        <time>2021-04-29T13:29:25Z</time>
      </trkpt>
      <trkpt lat="46.7037" lon="5.95721">
        <ele>716.7</ele>
        <time>2021-04-29T13:29:31Z</time>
      </trkpt>
      <trkpt lat="46.70368" lon="5.95728">
        <ele>716.5</ele>
        <time>2021-04-29T13:29:37Z</time>
      </trkpt>
      <trkpt lat="46.70367" lon="5.95735">
        <ele>716.4</ele>
        <time>2021-04-29T13:29:44Z</time>
      </trkpt>
      <trkpt lat="46.70368" lon="5.95741">
        <ele>716.1</ele>
        <time>2021-04-29T13:29:58Z</time>
      </trkpt>
      <trkpt lat="46.70364" lon="5.95736">
        <ele>719.2</ele>
        <time>2021-04-29T13:30:10Z</time>
      </trkpt>
      <trkpt lat="46.7037" lon="5.95737">
        <ele>721.7</ele>
        <time>2021-04-29T13:30:17Z</time>
      </trkpt>
      <trkpt lat="46.70375" lon="5.95739">
        <ele>722.1</ele>
        <time>2021-04-29T13:30:21Z</time>
      </trkpt>
      <trkpt lat="46.7038" lon="5.95741">
        <ele>722.3</ele>
        <time>2021-04-29T13:30:26Z</time>
      </trkpt>
      <trkpt lat="46.70385" lon="5.95742">
        <ele>722.1</ele>
        <time>2021-04-29T13:30:31Z</time>
      </trkpt>
      <trkpt lat="46.7039" lon="5.95745">
        <ele>721.7</ele>
        <time>2021-04-29T13:30:37Z</time>
      </trkpt>
      <trkpt lat="46.70393" lon="5.95749">
        <ele>721.4</ele>
        <time>2021-04-29T13:30:49Z</time>
      </trkpt>
      <trkpt lat="46.70397" lon="5.95754">
        <ele>721.4</ele>
        <time>2021-04-29T13:30:54Z</time>
      </trkpt>
      <trkpt lat="46.70401" lon="5.95759">
        <ele>721.4</ele>
        <time>2021-04-29T13:30:58Z</time>
      </trkpt>
      <trkpt lat="46.70405" lon="5.95763">
        <ele>721.2</ele>
        <time>2021-04-29T13:31:08Z</time>
      </trkpt>
      <trkpt lat="46.70406" lon="5.95769">
        <ele>721</ele>
        <time>2021-04-29T13:31:14Z</time>
      </trkpt>
      <trkpt lat="46.70408" lon="5.95776">
        <ele>720.7</ele>
        <time>2021-04-29T13:31:20Z</time>
      </trkpt>
      <trkpt lat="46.70411" lon="5.95781">
        <ele>720.4</ele>
        <time>2021-04-29T13:31:25Z</time>
      </trkpt>
      <trkpt lat="46.70415" lon="5.95787">
        <ele>720.2</ele>
        <time>2021-04-29T13:31:32Z</time>
      </trkpt>
      <trkpt lat="46.70415" lon="5.95794">
        <ele>719.4</ele>
        <time>2021-04-29T13:31:42Z</time>
      </trkpt>
      <trkpt lat="46.70418" lon="5.95799">
        <ele>718.5</ele>
        <time>2021-04-29T13:31:58Z</time>
      </trkpt>
      <trkpt lat="46.70421" lon="5.95804">
        <ele>718.2</ele>
        <time>2021-04-29T13:32:02Z</time>
      </trkpt>
      <trkpt lat="46.70424" lon="5.9581">
        <ele>717.9</ele>
        <time>2021-04-29T13:32:06Z</time>
      </trkpt>
      <trkpt lat="46.70426" lon="5.95817">
        <ele>717.7</ele>
        <time>2021-04-29T13:32:11Z</time>
      </trkpt>
      <trkpt lat="46.70428" lon="5.95823">
        <ele>717.3</ele>
        <time>2021-04-29T13:32:16Z</time>
      </trkpt>
      <trkpt lat="46.7043" lon="5.9583">
        <ele>717.1</ele>
        <time>2021-04-29T13:32:21Z</time>
      </trkpt>
      <trkpt lat="46.70431" lon="5.95837">
        <ele>716.8</ele>
        <time>2021-04-29T13:32:48Z</time>
      </trkpt>
      <trkpt lat="46.70432" lon="5.95844">
        <ele>716.9</ele>
        <time>2021-04-29T13:32:56Z</time>
      </trkpt>
      <trkpt lat="46.70434" lon="5.9585">
        <ele>716.9</ele>
        <time>2021-04-29T13:33:01Z</time>
      </trkpt>
      <trkpt lat="46.70437" lon="5.95855">
        <ele>716.9</ele>
        <time>2021-04-29T13:33:05Z</time>
      </trkpt>
      <trkpt lat="46.7044" lon="5.95861">
        <ele>716.8</ele>
        <time>2021-04-29T13:33:11Z</time>
      </trkpt>
      <trkpt lat="46.70442" lon="5.95867">
        <ele>716.7</ele>
        <time>2021-04-29T13:33:16Z</time>
      </trkpt>
      <trkpt lat="46.70443" lon="5.95874">
        <ele>716.6</ele>
        <time>2021-04-29T13:33:21Z</time>
      </trkpt>
      <trkpt lat="46.70444" lon="5.95881">
        <ele>716.3</ele>
        <time>2021-04-29T13:33:26Z</time>
      </trkpt>
      <trkpt lat="46.70445" lon="5.95888">
        <ele>716</ele>
        <time>2021-04-29T13:33:31Z</time>
      </trkpt>
      <trkpt lat="46.70447" lon="5.95895">
        <ele>715.4</ele>
        <time>2021-04-29T13:33:36Z</time>
      </trkpt>
      <trkpt lat="46.70448" lon="5.95902">
        <ele>714.5</ele>
        <time>2021-04-29T13:33:41Z</time>
      </trkpt>
      <trkpt lat="46.70451" lon="5.95908">
        <ele>713.6</ele>
        <time>2021-04-29T13:33:46Z</time>
      </trkpt>
      <trkpt lat="46.70453" lon="5.95914">
        <ele>712.8</ele>
        <time>2021-04-29T13:33:51Z</time>
      </trkpt>
      <trkpt lat="46.70455" lon="5.9592">
        <ele>712.3</ele>
        <time>2021-04-29T13:33:55Z</time>
      </trkpt>
      <trkpt lat="46.70457" lon="5.95926">
        <ele>712.2</ele>
        <time>2021-04-29T13:33:59Z</time>
      </trkpt>
      <trkpt lat="46.7046" lon="5.95932">
        <ele>712</ele>
        <time>2021-04-29T13:34:04Z</time>
      </trkpt>
      <trkpt lat="46.70463" lon="5.95937">
        <ele>711.7</ele>
        <time>2021-04-29T13:34:09Z</time>
      </trkpt>
      <trkpt lat="46.70465" lon="5.95944">
        <ele>711.3</ele>
        <time>2021-04-29T13:34:15Z</time>
      </trkpt>
      <trkpt lat="46.70467" lon="5.9595">
        <ele>711.1</ele>
        <time>2021-04-29T13:34:19Z</time>
      </trkpt>
      <trkpt lat="46.70469" lon="5.95957">
        <ele>711.1</ele>
        <time>2021-04-29T13:34:23Z</time>
      </trkpt>
      <trkpt lat="46.70471" lon="5.95963">
        <ele>711.1</ele>
        <time>2021-04-29T13:34:28Z</time>
      </trkpt>
      <trkpt lat="46.70474" lon="5.95969">
        <ele>711.1</ele>
        <time>2021-04-29T13:34:34Z</time>
      </trkpt>
      <trkpt lat="46.70475" lon="5.95976">
        <ele>711.4</ele>
        <time>2021-04-29T13:34:40Z</time>
      </trkpt>
      <trkpt lat="46.70479" lon="5.95981">
        <ele>711.3</ele>
        <time>2021-04-29T13:34:48Z</time>
      </trkpt>
      <trkpt lat="46.70482" lon="5.95986">
        <ele>711.3</ele>
        <time>2021-04-29T13:34:53Z</time>
      </trkpt>
      <trkpt lat="46.70486" lon="5.95991">
        <ele>711.1</ele>
        <time>2021-04-29T13:34:58Z</time>
      </trkpt>
      <trkpt lat="46.70488" lon="5.95997">
        <ele>710.9</ele>
        <time>2021-04-29T13:35:02Z</time>
      </trkpt>
      <trkpt lat="46.70491" lon="5.96003">
        <ele>710.6</ele>
        <time>2021-04-29T13:35:06Z</time>
      </trkpt>
      <trkpt lat="46.70494" lon="5.96009">
        <ele>709.9</ele>
        <time>2021-04-29T13:35:11Z</time>
      </trkpt>
      <trkpt lat="46.70497" lon="5.96014">
        <ele>709.4</ele>
        <time>2021-04-29T13:35:15Z</time>
      </trkpt>
      <trkpt lat="46.70501" lon="5.9602">
        <ele>708.8</ele>
        <time>2021-04-29T13:35:20Z</time>
      </trkpt>
      <trkpt lat="46.70504" lon="5.96025">
        <ele>708.1</ele>
        <time>2021-04-29T13:35:24Z</time>
      </trkpt>
      <trkpt lat="46.70507" lon="5.9603">
        <ele>707.3</ele>
        <time>2021-04-29T13:35:29Z</time>
      </trkpt>
      <trkpt lat="46.70509" lon="5.96036">
        <ele>706.7</ele>
        <time>2021-04-29T13:35:34Z</time>
      </trkpt>
      <trkpt lat="46.70512" lon="5.96043">
        <ele>706.8</ele>
        <time>2021-04-29T13:35:39Z</time>
      </trkpt>
      <trkpt lat="46.70515" lon="5.96051">
        <ele>707.6</ele>
        <time>2021-04-29T13:35:43Z</time>
      </trkpt>
      <trkpt lat="46.70517" lon="5.96058">
        <ele>708.2</ele>
        <time>2021-04-29T13:35:48Z</time>
      </trkpt>
      <trkpt lat="46.7052" lon="5.96063">
        <ele>708.6</ele>
        <time>2021-04-29T13:35:53Z</time>
      </trkpt>
      <trkpt lat="46.70524" lon="5.96067">
        <ele>708.6</ele>
        <time>2021-04-29T13:35:57Z</time>
      </trkpt>
      <trkpt lat="46.70528" lon="5.9607">
        <ele>708.4</ele>
        <time>2021-04-29T13:36:02Z</time>
      </trkpt>
      <trkpt lat="46.7053" lon="5.96077">
        <ele>708.2</ele>
        <time>2021-04-29T13:36:06Z</time>
      </trkpt>
      <trkpt lat="46.70531" lon="5.96084">
        <ele>708.1</ele>
        <time>2021-04-29T13:36:10Z</time>
      </trkpt>
      <trkpt lat="46.70533" lon="5.9609">
        <ele>708.2</ele>
        <time>2021-04-29T13:36:14Z</time>
      </trkpt>
      <trkpt lat="46.70536" lon="5.96096">
        <ele>708.2</ele>
        <time>2021-04-29T13:36:18Z</time>
      </trkpt>
      <trkpt lat="46.7054" lon="5.96099">
        <ele>707.7</ele>
        <time>2021-04-29T13:36:23Z</time>
      </trkpt>
      <trkpt lat="46.70544" lon="5.96104">
        <ele>707.1</ele>
        <time>2021-04-29T13:36:28Z</time>
      </trkpt>
      <trkpt lat="46.70548" lon="5.96109">
        <ele>706.2</ele>
        <time>2021-04-29T13:36:32Z</time>
      </trkpt>
      <trkpt lat="46.70551" lon="5.96114">
        <ele>705.2</ele>
        <time>2021-04-29T13:36:36Z</time>
      </trkpt>
      <trkpt lat="46.70554" lon="5.96119">
        <ele>704.3</ele>
        <time>2021-04-29T13:36:41Z</time>
      </trkpt>
      <trkpt lat="46.70558" lon="5.96124">
        <ele>703.8</ele>
        <time>2021-04-29T13:36:47Z</time>
      </trkpt>
      <trkpt lat="46.70562" lon="5.9613">
        <ele>704.3</ele>
        <time>2021-04-29T13:36:52Z</time>
      </trkpt>
      <trkpt lat="46.70565" lon="5.96136">
        <ele>704.9</ele>
        <time>2021-04-29T13:36:56Z</time>
      </trkpt>
      <trkpt lat="46.70569" lon="5.9614">
        <ele>705.5</ele>
        <time>2021-04-29T13:37:00Z</time>
      </trkpt>
      <trkpt lat="46.70574" lon="5.96143">
        <ele>706</ele>
        <time>2021-04-29T13:37:05Z</time>
      </trkpt>
      <trkpt lat="46.70579" lon="5.96146">
        <ele>706</ele>
        <time>2021-04-29T13:37:10Z</time>
      </trkpt>
      <trkpt lat="46.70582" lon="5.96152">
        <ele>706.2</ele>
        <time>2021-04-29T13:37:15Z</time>
      </trkpt>
      <trkpt lat="46.70585" lon="5.96157">
        <ele>706.4</ele>
        <time>2021-04-29T13:37:19Z</time>
      </trkpt>
      <trkpt lat="46.70589" lon="5.96162">
        <ele>706.7</ele>
        <time>2021-04-29T13:37:24Z</time>
      </trkpt>
      <trkpt lat="46.70593" lon="5.96167">
        <ele>707.1</ele>
        <time>2021-04-29T13:37:29Z</time>
      </trkpt>
      <trkpt lat="46.70598" lon="5.96171">
        <ele>707.5</ele>
        <time>2021-04-29T13:37:34Z</time>
      </trkpt>
      <trkpt lat="46.70602" lon="5.96175">
        <ele>708</ele>
        <time>2021-04-29T13:37:38Z</time>
      </trkpt>
      <trkpt lat="46.70605" lon="5.96181">
        <ele>709.1</ele>
        <time>2021-04-29T13:37:42Z</time>
      </trkpt>
      <trkpt lat="46.70609" lon="5.96187">
        <ele>710.3</ele>
        <time>2021-04-29T13:37:48Z</time>
      </trkpt>
      <trkpt lat="46.70613" lon="5.96191">
        <ele>711.7</ele>
        <time>2021-04-29T13:37:54Z</time>
      </trkpt>
      <trkpt lat="46.70618" lon="5.96193">
        <ele>712.6</ele>
        <time>2021-04-29T13:37:58Z</time>
      </trkpt>
      <trkpt lat="46.70622" lon="5.96195">
        <ele>713.4</ele>
        <time>2021-04-29T13:38:03Z</time>
      </trkpt>
      <trkpt lat="46.70627" lon="5.96197">
        <ele>714</ele>
        <time>2021-04-29T13:38:07Z</time>
      </trkpt>
      <trkpt lat="46.70631" lon="5.96202">
        <ele>714.4</ele>
        <time>2021-04-29T13:38:11Z</time>
      </trkpt>
      <trkpt lat="46.70634" lon="5.96206">
        <ele>714.3</ele>
        <time>2021-04-29T13:38:15Z</time>
      </trkpt>
      <trkpt lat="46.70639" lon="5.9621">
        <ele>714.2</ele>
        <time>2021-04-29T13:38:20Z</time>
      </trkpt>
      <trkpt lat="46.70644" lon="5.96213">
        <ele>713.9</ele>
        <time>2021-04-29T13:38:25Z</time>
      </trkpt>
      <trkpt lat="46.70648" lon="5.96216">
        <ele>713.7</ele>
        <time>2021-04-29T13:38:30Z</time>
      </trkpt>
      <trkpt lat="46.70653" lon="5.96219">
        <ele>713.1</ele>
        <time>2021-04-29T13:38:36Z</time>
      </trkpt>
      <trkpt lat="46.70658" lon="5.96221">
        <ele>712.9</ele>
        <time>2021-04-29T13:38:42Z</time>
      </trkpt>
      <trkpt lat="46.70662" lon="5.9622">
        <ele>710.9</ele>
        <time>2021-04-29T13:38:56Z</time>
      </trkpt>
      <trkpt lat="46.70666" lon="5.96223">
        <ele>709.6</ele>
        <time>2021-04-29T13:39:11Z</time>
      </trkpt>
      <trkpt lat="46.70672" lon="5.96223">
        <ele>709.7</ele>
        <time>2021-04-29T13:39:15Z</time>
      </trkpt>
      <trkpt lat="46.70677" lon="5.96224">
        <ele>709.8</ele>
        <time>2021-04-29T13:39:19Z</time>
      </trkpt>
      <trkpt lat="46.70681" lon="5.96226">
        <ele>710.3</ele>
        <time>2021-04-29T13:39:24Z</time>
      </trkpt>
      <trkpt lat="46.70686" lon="5.96228">
        <ele>710.6</ele>
        <time>2021-04-29T13:39:32Z</time>
      </trkpt>
      <trkpt lat="46.70691" lon="5.96229">
        <ele>710.9</ele>
        <time>2021-04-29T13:39:38Z</time>
      </trkpt>
      <trkpt lat="46.70695" lon="5.96231">
        <ele>710.9</ele>
        <time>2021-04-29T13:39:44Z</time>
      </trkpt>
      <trkpt lat="46.707" lon="5.96234">
        <ele>710.7</ele>
        <time>2021-04-29T13:39:49Z</time>
      </trkpt>
      <trkpt lat="46.70704" lon="5.96237">
        <ele>710.5</ele>
        <time>2021-04-29T13:39:53Z</time>
      </trkpt>
      <trkpt lat="46.70709" lon="5.9624">
        <ele>710.7</ele>
        <time>2021-04-29T13:39:58Z</time>
      </trkpt>
      <trkpt lat="46.70713" lon="5.96245">
        <ele>711.4</ele>
        <time>2021-04-29T13:40:03Z</time>
      </trkpt>
      <trkpt lat="46.70717" lon="5.96247">
        <ele>711.8</ele>
        <time>2021-04-29T13:40:07Z</time>
      </trkpt>
      <trkpt lat="46.70722" lon="5.9625">
        <ele>712</ele>
        <time>2021-04-29T13:40:11Z</time>
      </trkpt>
      <trkpt lat="46.70727" lon="5.96251">
        <ele>711.9</ele>
        <time>2021-04-29T13:40:15Z</time>
      </trkpt>
      <trkpt lat="46.70732" lon="5.96252">
        <ele>711.4</ele>
        <time>2021-04-29T13:40:20Z</time>
      </trkpt>
      <trkpt lat="46.70737" lon="5.96253">
        <ele>711.1</ele>
        <time>2021-04-29T13:40:25Z</time>
      </trkpt>
      <trkpt lat="46.70742" lon="5.96254">
        <ele>711</ele>
        <time>2021-04-29T13:40:29Z</time>
      </trkpt>
      <trkpt lat="46.70747" lon="5.96255">
        <ele>711</ele>
        <time>2021-04-29T13:40:33Z</time>
      </trkpt>
      <trkpt lat="46.70752" lon="5.96256">
        <ele>711.1</ele>
        <time>2021-04-29T13:40:37Z</time>
      </trkpt>
      <trkpt lat="46.70757" lon="5.96258">
        <ele>711</ele>
        <time>2021-04-29T13:40:43Z</time>
      </trkpt>
      <trkpt lat="46.70762" lon="5.9626">
        <ele>710.9</ele>
        <time>2021-04-29T13:40:48Z</time>
      </trkpt>
      <trkpt lat="46.70767" lon="5.96261">
        <ele>710.7</ele>
        <time>2021-04-29T13:40:53Z</time>
      </trkpt>
      <trkpt lat="46.70772" lon="5.96264">
        <ele>710.4</ele>
        <time>2021-04-29T13:40:58Z</time>
      </trkpt>
      <trkpt lat="46.70777" lon="5.96266">
        <ele>710.2</ele>
        <time>2021-04-29T13:41:03Z</time>
      </trkpt>
      <trkpt lat="46.70781" lon="5.96269">
        <ele>710</ele>
        <time>2021-04-29T13:41:07Z</time>
      </trkpt>
      <trkpt lat="46.70786" lon="5.96271">
        <ele>709.9</ele>
        <time>2021-04-29T13:41:11Z</time>
      </trkpt>
      <trkpt lat="46.70791" lon="5.96273">
        <ele>709.5</ele>
        <time>2021-04-29T13:41:16Z</time>
      </trkpt>
      <trkpt lat="46.70795" lon="5.96276">
        <ele>709.2</ele>
        <time>2021-04-29T13:41:22Z</time>
      </trkpt>
      <trkpt lat="46.708" lon="5.96278">
        <ele>709.1</ele>
        <time>2021-04-29T13:41:27Z</time>
      </trkpt>
      <trkpt lat="46.70804" lon="5.96279">
        <ele>709.3</ele>
        <time>2021-04-29T13:41:33Z</time>
      </trkpt>
      <trkpt lat="46.70808" lon="5.96283">
        <ele>709.3</ele>
        <time>2021-04-29T13:41:39Z</time>
      </trkpt>
      <trkpt lat="46.70814" lon="5.96285">
        <ele>709</ele>
        <time>2021-04-29T13:41:44Z</time>
      </trkpt>
      <trkpt lat="46.70818" lon="5.96288">
        <ele>708.6</ele>
        <time>2021-04-29T13:41:48Z</time>
      </trkpt>
      <trkpt lat="46.70823" lon="5.9629">
        <ele>708.2</ele>
        <time>2021-04-29T13:41:52Z</time>
      </trkpt>
      <trkpt lat="46.70828" lon="5.96292">
        <ele>707.9</ele>
        <time>2021-04-29T13:41:56Z</time>
      </trkpt>
      <trkpt lat="46.70833" lon="5.96295">
        <ele>707.4</ele>
        <time>2021-04-29T13:42:01Z</time>
      </trkpt>
      <trkpt lat="46.70837" lon="5.96298">
        <ele>707.2</ele>
        <time>2021-04-29T13:42:06Z</time>
      </trkpt>
      <trkpt lat="46.70842" lon="5.96302">
        <ele>707</ele>
        <time>2021-04-29T13:42:11Z</time>
      </trkpt>
      <trkpt lat="46.70847" lon="5.96305">
        <ele>706.6</ele>
        <time>2021-04-29T13:42:16Z</time>
      </trkpt>
      <trkpt lat="46.70852" lon="5.96308">
        <ele>706.4</ele>
        <time>2021-04-29T13:42:21Z</time>
      </trkpt>
      <trkpt lat="46.70857" lon="5.96309">
        <ele>705.9</ele>
        <time>2021-04-29T13:42:26Z</time>
      </trkpt>
      <trkpt lat="46.70862" lon="5.96311">
        <ele>705.1</ele>
        <time>2021-04-29T13:42:32Z</time>
      </trkpt>
      <trkpt lat="46.70867" lon="5.96315">
        <ele>704.6</ele>
        <time>2021-04-29T13:42:37Z</time>
      </trkpt>
      <trkpt lat="46.70871" lon="5.96317">
        <ele>704.3</ele>
        <time>2021-04-29T13:42:41Z</time>
      </trkpt>
      <trkpt lat="46.70875" lon="5.9632">
        <ele>704</ele>
        <time>2021-04-29T13:42:46Z</time>
      </trkpt>
      <trkpt lat="46.70879" lon="5.96325">
        <ele>703.6</ele>
        <time>2021-04-29T13:42:52Z</time>
      </trkpt>
      <trkpt lat="46.70884" lon="5.96327">
        <ele>703</ele>
        <time>2021-04-29T13:42:58Z</time>
      </trkpt>
      <trkpt lat="46.70889" lon="5.96328">
        <ele>702.8</ele>
        <time>2021-04-29T13:43:02Z</time>
      </trkpt>
      <trkpt lat="46.70894" lon="5.96329">
        <ele>702.9</ele>
        <time>2021-04-29T13:43:06Z</time>
      </trkpt>
      <trkpt lat="46.70899" lon="5.96332">
        <ele>702.9</ele>
        <time>2021-04-29T13:43:11Z</time>
      </trkpt>
      <trkpt lat="46.70904" lon="5.96333">
        <ele>703</ele>
        <time>2021-04-29T13:43:15Z</time>
      </trkpt>
      <trkpt lat="46.70909" lon="5.96336">
        <ele>703.2</ele>
        <time>2021-04-29T13:43:19Z</time>
      </trkpt>
      <trkpt lat="46.70914" lon="5.96338">
        <ele>703.4</ele>
        <time>2021-04-29T13:43:24Z</time>
      </trkpt>
      <trkpt lat="46.70919" lon="5.9634">
        <ele>703.7</ele>
        <time>2021-04-29T13:43:29Z</time>
      </trkpt>
      <trkpt lat="46.70924" lon="5.96342">
        <ele>703.8</ele>
        <time>2021-04-29T13:43:33Z</time>
      </trkpt>
      <trkpt lat="46.70928" lon="5.96346">
        <ele>704.1</ele>
        <time>2021-04-29T13:43:37Z</time>
      </trkpt>
      <trkpt lat="46.70931" lon="5.9635">
        <ele>704.3</ele>
        <time>2021-04-29T13:43:41Z</time>
      </trkpt>
      <trkpt lat="46.70936" lon="5.96354">
        <ele>704.5</ele>
        <time>2021-04-29T13:43:46Z</time>
      </trkpt>
      <trkpt lat="46.70941" lon="5.96356">
        <ele>704.1</ele>
        <time>2021-04-29T13:43:51Z</time>
      </trkpt>
      <trkpt lat="46.70945" lon="5.96359">
        <ele>703.3</ele>
        <time>2021-04-29T13:43:56Z</time>
      </trkpt>
      <trkpt lat="46.70949" lon="5.96363">
        <ele>702.4</ele>
        <time>2021-04-29T13:44:01Z</time>
      </trkpt>
      <trkpt lat="46.70954" lon="5.96366">
        <ele>701.8</ele>
        <time>2021-04-29T13:44:05Z</time>
      </trkpt>
      <trkpt lat="46.70958" lon="5.9637">
        <ele>700.7</ele>
        <time>2021-04-29T13:44:10Z</time>
      </trkpt>
      <trkpt lat="46.70962" lon="5.96375">
        <ele>699.6</ele>
        <time>2021-04-29T13:44:15Z</time>
      </trkpt>
      <trkpt lat="46.70966" lon="5.96378">
        <ele>698.6</ele>
        <time>2021-04-29T13:44:19Z</time>
      </trkpt>
      <trkpt lat="46.7097" lon="5.96382">
        <ele>697.7</ele>
        <time>2021-04-29T13:44:23Z</time>
      </trkpt>
      <trkpt lat="46.70973" lon="5.96387">
        <ele>696.5</ele>
        <time>2021-04-29T13:44:28Z</time>
      </trkpt>
      <trkpt lat="46.70977" lon="5.96391">
        <ele>695.6</ele>
        <time>2021-04-29T13:44:33Z</time>
      </trkpt>
      <trkpt lat="46.70981" lon="5.96396">
        <ele>694.8</ele>
        <time>2021-04-29T13:44:38Z</time>
      </trkpt>
      <trkpt lat="46.70985" lon="5.96402">
        <ele>694.1</ele>
        <time>2021-04-29T13:44:43Z</time>
      </trkpt>
      <trkpt lat="46.70989" lon="5.96405">
        <ele>693.2</ele>
        <time>2021-04-29T13:44:48Z</time>
      </trkpt>
      <trkpt lat="46.70993" lon="5.96409">
        <ele>692.5</ele>
        <time>2021-04-29T13:44:53Z</time>
      </trkpt>
      <trkpt lat="46.70997" lon="5.96413">
        <ele>691.7</ele>
        <time>2021-04-29T13:44:59Z</time>
      </trkpt>
      <trkpt lat="46.70999" lon="5.9642">
        <ele>691</ele>
        <time>2021-04-29T13:45:10Z</time>
      </trkpt>
      <trkpt lat="46.71003" lon="5.96424">
        <ele>690.9</ele>
        <time>2021-04-29T13:45:21Z</time>
      </trkpt>
      <trkpt lat="46.71006" lon="5.9643">
        <ele>691.2</ele>
        <time>2021-04-29T13:45:26Z</time>
      </trkpt>
      <trkpt lat="46.71009" lon="5.96436">
        <ele>691.3</ele>
        <time>2021-04-29T13:45:32Z</time>
      </trkpt>
      <trkpt lat="46.71009" lon="5.96442">
        <ele>692.1</ele>
        <time>2021-04-29T13:45:46Z</time>
      </trkpt>
      <trkpt lat="46.71013" lon="5.96448">
        <ele>692.8</ele>
        <time>2021-04-29T13:45:51Z</time>
      </trkpt>
      <trkpt lat="46.71017" lon="5.96453">
        <ele>693.5</ele>
        <time>2021-04-29T13:45:56Z</time>
      </trkpt>
      <trkpt lat="46.7102" lon="5.96457">
        <ele>693.9</ele>
        <time>2021-04-29T13:46:00Z</time>
      </trkpt>
      <trkpt lat="46.71023" lon="5.96463">
        <ele>694.1</ele>
        <time>2021-04-29T13:46:05Z</time>
      </trkpt>
      <trkpt lat="46.71026" lon="5.96468">
        <ele>694.1</ele>
        <time>2021-04-29T13:46:09Z</time>
      </trkpt>
      <trkpt lat="46.7103" lon="5.96473">
        <ele>693.6</ele>
        <time>2021-04-29T13:46:14Z</time>
      </trkpt>
      <trkpt lat="46.71034" lon="5.96478">
        <ele>693</ele>
        <time>2021-04-29T13:46:19Z</time>
      </trkpt>
      <trkpt lat="46.71037" lon="5.96483">
        <ele>692.3</ele>
        <time>2021-04-29T13:46:25Z</time>
      </trkpt>
      <trkpt lat="46.71041" lon="5.96489">
        <ele>691.8</ele>
        <time>2021-04-29T13:46:30Z</time>
      </trkpt>
      <trkpt lat="46.71044" lon="5.96495">
        <ele>691.4</ele>
        <time>2021-04-29T13:46:34Z</time>
      </trkpt>
      <trkpt lat="46.71047" lon="5.965">
        <ele>691.4</ele>
        <time>2021-04-29T13:46:38Z</time>
      </trkpt>
      <trkpt lat="46.7105" lon="5.96507">
        <ele>691.2</ele>
        <time>2021-04-29T13:46:43Z</time>
      </trkpt>
      <trkpt lat="46.71054" lon="5.96511">
        <ele>690.9</ele>
        <time>2021-04-29T13:46:47Z</time>
      </trkpt>
      <trkpt lat="46.71058" lon="5.96514">
        <ele>690.5</ele>
        <time>2021-04-29T13:46:51Z</time>
      </trkpt>
      <trkpt lat="46.71062" lon="5.96518">
        <ele>690.1</ele>
        <time>2021-04-29T13:46:56Z</time>
      </trkpt>
      <trkpt lat="46.71067" lon="5.96522">
        <ele>689.6</ele>
        <time>2021-04-29T13:47:01Z</time>
      </trkpt>
      <trkpt lat="46.71071" lon="5.96527">
        <ele>689.3</ele>
        <time>2021-04-29T13:47:06Z</time>
      </trkpt>
      <trkpt lat="46.71074" lon="5.96532">
        <ele>688.8</ele>
        <time>2021-04-29T13:47:11Z</time>
      </trkpt>
      <trkpt lat="46.71078" lon="5.96538">
        <ele>688.2</ele>
        <time>2021-04-29T13:47:16Z</time>
      </trkpt>
      <trkpt lat="46.71082" lon="5.96542">
        <ele>688</ele>
        <time>2021-04-29T13:47:21Z</time>
      </trkpt>
      <trkpt lat="46.71086" lon="5.96546">
        <ele>688.2</ele>
        <time>2021-04-29T13:47:26Z</time>
      </trkpt>
      <trkpt lat="46.71091" lon="5.9655">
        <ele>688.6</ele>
        <time>2021-04-29T13:47:32Z</time>
      </trkpt>
      <trkpt lat="46.71095" lon="5.96555">
        <ele>689.2</ele>
        <time>2021-04-29T13:47:37Z</time>
      </trkpt>
      <trkpt lat="46.71099" lon="5.96559">
        <ele>689.8</ele>
        <time>2021-04-29T13:47:42Z</time>
      </trkpt>
      <trkpt lat="46.71103" lon="5.96562">
        <ele>690.1</ele>
        <time>2021-04-29T13:47:47Z</time>
      </trkpt>
      <trkpt lat="46.71108" lon="5.96565">
        <ele>690.3</ele>
        <time>2021-04-29T13:47:52Z</time>
      </trkpt>
      <trkpt lat="46.71113" lon="5.96566">
        <ele>690.3</ele>
        <time>2021-04-29T13:47:56Z</time>
      </trkpt>
      <trkpt lat="46.71118" lon="5.96567">
        <ele>690</ele>
        <time>2021-04-29T13:48:01Z</time>
      </trkpt>
      <trkpt lat="46.71122" lon="5.96569">
        <ele>689.6</ele>
        <time>2021-04-29T13:48:06Z</time>
      </trkpt>
      <trkpt lat="46.71127" lon="5.96572">
        <ele>688.9</ele>
        <time>2021-04-29T13:48:11Z</time>
      </trkpt>
      <trkpt lat="46.71132" lon="5.96573">
        <ele>688.4</ele>
        <time>2021-04-29T13:48:15Z</time>
      </trkpt>
      <trkpt lat="46.71136" lon="5.96574">
        <ele>688</ele>
        <time>2021-04-29T13:48:19Z</time>
      </trkpt>
      <trkpt lat="46.71142" lon="5.96574">
        <ele>687.8</ele>
        <time>2021-04-29T13:48:24Z</time>
      </trkpt>
      <trkpt lat="46.71147" lon="5.96573">
        <ele>687.3</ele>
        <time>2021-04-29T13:48:29Z</time>
      </trkpt>
      <trkpt lat="46.71152" lon="5.96572">
        <ele>686.8</ele>
        <time>2021-04-29T13:48:33Z</time>
      </trkpt>
      <trkpt lat="46.71157" lon="5.9657">
        <ele>686.2</ele>
        <time>2021-04-29T13:48:38Z</time>
      </trkpt>
      <trkpt lat="46.71162" lon="5.96567">
        <ele>685.5</ele>
        <time>2021-04-29T13:48:42Z</time>
      </trkpt>
      <trkpt lat="46.71166" lon="5.96566">
        <ele>684.3</ele>
        <time>2021-04-29T13:48:48Z</time>
      </trkpt>
      <trkpt lat="46.71171" lon="5.96566">
        <ele>683.3</ele>
        <time>2021-04-29T13:48:54Z</time>
      </trkpt>
      <trkpt lat="46.71181" lon="5.96567">
        <ele>684.1</ele>
        <time>2021-04-29T13:48:58Z</time>
      </trkpt>
      <trkpt lat="46.71187" lon="5.96566">
        <ele>684.6</ele>
        <time>2021-04-29T13:49:02Z</time>
      </trkpt>
      <trkpt lat="46.71192" lon="5.96566">
        <ele>685</ele>
        <time>2021-04-29T13:49:09Z</time>
      </trkpt>
      <trkpt lat="46.71197" lon="5.96564">
        <ele>685.2</ele>
        <time>2021-04-29T13:49:16Z</time>
      </trkpt>
      <trkpt lat="46.71202" lon="5.96564">
        <ele>685.2</ele>
        <time>2021-04-29T13:49:21Z</time>
      </trkpt>
      <trkpt lat="46.71207" lon="5.96564">
        <ele>685</ele>
        <time>2021-04-29T13:49:26Z</time>
      </trkpt>
      <trkpt lat="46.71211" lon="5.96565">
        <ele>684.7</ele>
        <time>2021-04-29T13:49:30Z</time>
      </trkpt>
      <trkpt lat="46.71216" lon="5.96566">
        <ele>684.1</ele>
        <time>2021-04-29T13:49:36Z</time>
      </trkpt>
      <trkpt lat="46.71221" lon="5.96566">
        <ele>683.3</ele>
        <time>2021-04-29T13:49:41Z</time>
      </trkpt>
      <trkpt lat="46.71226" lon="5.96565">
        <ele>682.3</ele>
        <time>2021-04-29T13:49:48Z</time>
      </trkpt>
      <trkpt lat="46.71232" lon="5.96565">
        <ele>681.7</ele>
        <time>2021-04-29T13:49:53Z</time>
      </trkpt>
      <trkpt lat="46.71238" lon="5.96565">
        <ele>681.3</ele>
        <time>2021-04-29T13:49:57Z</time>
      </trkpt>
      <trkpt lat="46.71243" lon="5.96566">
        <ele>680.9</ele>
        <time>2021-04-29T13:50:02Z</time>
      </trkpt>
      <trkpt lat="46.71249" lon="5.96566">
        <ele>681</ele>
        <time>2021-04-29T13:50:06Z</time>
      </trkpt>
      <trkpt lat="46.71254" lon="5.96566">
        <ele>680.8</ele>
        <time>2021-04-29T13:50:11Z</time>
      </trkpt>
      <trkpt lat="46.71259" lon="5.96564">
        <ele>680</ele>
        <time>2021-04-29T13:50:15Z</time>
      </trkpt>
      <trkpt lat="46.71263" lon="5.96562">
        <ele>679.3</ele>
        <time>2021-04-29T13:50:21Z</time>
      </trkpt>
      <trkpt lat="46.71268" lon="5.96561">
        <ele>678.9</ele>
        <time>2021-04-29T13:50:27Z</time>
      </trkpt>
      <trkpt lat="46.71274" lon="5.96559">
        <ele>678.5</ele>
        <time>2021-04-29T13:50:31Z</time>
      </trkpt>
      <trkpt lat="46.71279" lon="5.96557">
        <ele>678.1</ele>
        <time>2021-04-29T13:50:36Z</time>
      </trkpt>
      <trkpt lat="46.71284" lon="5.96555">
        <ele>677.7</ele>
        <time>2021-04-29T13:50:40Z</time>
      </trkpt>
      <trkpt lat="46.71289" lon="5.96553">
        <ele>677.3</ele>
        <time>2021-04-29T13:50:44Z</time>
      </trkpt>
      <trkpt lat="46.71293" lon="5.96551">
        <ele>676.1</ele>
        <time>2021-04-29T13:50:52Z</time>
      </trkpt>
      <trkpt lat="46.713" lon="5.96549">
        <ele>675.3</ele>
        <time>2021-04-29T13:50:56Z</time>
      </trkpt>
      <trkpt lat="46.71309" lon="5.96548">
        <ele>674.9</ele>
        <time>2021-04-29T13:51:00Z</time>
      </trkpt>
      <trkpt lat="46.71315" lon="5.96548">
        <ele>674.6</ele>
        <time>2021-04-29T13:51:04Z</time>
      </trkpt>
      <trkpt lat="46.7132" lon="5.96549">
        <ele>674.2</ele>
        <time>2021-04-29T13:51:08Z</time>
      </trkpt>
      <trkpt lat="46.71325" lon="5.96552">
        <ele>672.5</ele>
        <time>2021-04-29T13:51:16Z</time>
      </trkpt>
      <trkpt lat="46.71329" lon="5.96555">
        <ele>670.7</ele>
        <time>2021-04-29T13:51:22Z</time>
      </trkpt>
      <trkpt lat="46.71334" lon="5.96556">
        <ele>668.9</ele>
        <time>2021-04-29T13:51:27Z</time>
      </trkpt>
      <trkpt lat="46.71339" lon="5.96556">
        <ele>667.3</ele>
        <time>2021-04-29T13:51:31Z</time>
      </trkpt>
      <trkpt lat="46.71345" lon="5.96556">
        <ele>665.5</ele>
        <time>2021-04-29T13:51:36Z</time>
      </trkpt>
      <trkpt lat="46.7135" lon="5.96556">
        <ele>664.3</ele>
        <time>2021-04-29T13:51:40Z</time>
      </trkpt>
      <trkpt lat="46.71355" lon="5.96555">
        <ele>663.1</ele>
        <time>2021-04-29T13:51:45Z</time>
      </trkpt>
      <trkpt lat="46.7136" lon="5.96556">
        <ele>662.4</ele>
        <time>2021-04-29T13:51:50Z</time>
      </trkpt>
      <trkpt lat="46.71367" lon="5.96569">
        <ele>667.3</ele>
        <time>2021-04-29T13:51:55Z</time>
      </trkpt>
      <trkpt lat="46.71371" lon="5.96579">
        <ele>672.5</ele>
        <time>2021-04-29T13:51:59Z</time>
      </trkpt>
      <trkpt lat="46.71376" lon="5.96581">
        <ele>675.7</ele>
        <time>2021-04-29T13:52:03Z</time>
      </trkpt>
      <trkpt lat="46.71381" lon="5.96581">
        <ele>678.3</ele>
        <time>2021-04-29T13:52:10Z</time>
      </trkpt>
      <trkpt lat="46.71386" lon="5.96581">
        <ele>679.1</ele>
        <time>2021-04-29T13:52:15Z</time>
      </trkpt>
      <trkpt lat="46.71391" lon="5.9658">
        <ele>679.5</ele>
        <time>2021-04-29T13:52:19Z</time>
      </trkpt>
      <trkpt lat="46.71396" lon="5.96581">
        <ele>679.3</ele>
        <time>2021-04-29T13:52:23Z</time>
      </trkpt>
      <trkpt lat="46.71402" lon="5.9658">
        <ele>678.5</ele>
        <time>2021-04-29T13:52:27Z</time>
      </trkpt>
      <trkpt lat="46.71406" lon="5.96579">
        <ele>677.6</ele>
        <time>2021-04-29T13:52:31Z</time>
      </trkpt>
      <trkpt lat="46.71412" lon="5.9658">
        <ele>676.5</ele>
        <time>2021-04-29T13:52:36Z</time>
      </trkpt>
      <trkpt lat="46.71417" lon="5.96581">
        <ele>675.4</ele>
        <time>2021-04-29T13:52:41Z</time>
      </trkpt>
      <trkpt lat="46.71422" lon="5.96583">
        <ele>674.5</ele>
        <time>2021-04-29T13:52:46Z</time>
      </trkpt>
      <trkpt lat="46.71427" lon="5.96584">
        <ele>673.5</ele>
        <time>2021-04-29T13:52:51Z</time>
      </trkpt>
      <trkpt lat="46.71432" lon="5.96584">
        <ele>672.7</ele>
        <time>2021-04-29T13:52:55Z</time>
      </trkpt>
      <trkpt lat="46.71437" lon="5.96585">
        <ele>671.9</ele>
        <time>2021-04-29T13:53:01Z</time>
      </trkpt>
      <trkpt lat="46.71441" lon="5.96586">
        <ele>670.7</ele>
        <time>2021-04-29T13:53:09Z</time>
      </trkpt>
      <trkpt lat="46.71447" lon="5.96587">
        <ele>669.9</ele>
        <time>2021-04-29T13:53:15Z</time>
      </trkpt>
      <trkpt lat="46.71452" lon="5.9659">
        <ele>669.1</ele>
        <time>2021-04-29T13:53:20Z</time>
      </trkpt>
      <trkpt lat="46.71457" lon="5.96591">
        <ele>668.3</ele>
        <time>2021-04-29T13:53:24Z</time>
      </trkpt>
      <trkpt lat="46.71461" lon="5.96592">
        <ele>667.4</ele>
        <time>2021-04-29T13:53:28Z</time>
      </trkpt>
      <trkpt lat="46.71467" lon="5.96593">
        <ele>666.7</ele>
        <time>2021-04-29T13:53:32Z</time>
      </trkpt>
      <trkpt lat="46.71472" lon="5.96594">
        <ele>666.2</ele>
        <time>2021-04-29T13:53:36Z</time>
      </trkpt>
      <trkpt lat="46.71476" lon="5.96595">
        <ele>665.7</ele>
        <time>2021-04-29T13:53:42Z</time>
      </trkpt>
      <trkpt lat="46.71481" lon="5.96599">
        <ele>665.2</ele>
        <time>2021-04-29T13:53:48Z</time>
      </trkpt>
      <trkpt lat="46.71485" lon="5.96602">
        <ele>665.2</ele>
        <time>2021-04-29T13:53:52Z</time>
      </trkpt>
      <trkpt lat="46.71493" lon="5.96606">
        <ele>665.8</ele>
        <time>2021-04-29T13:53:56Z</time>
      </trkpt>
      <trkpt lat="46.71499" lon="5.96609">
        <ele>666.1</ele>
        <time>2021-04-29T13:54:00Z</time>
      </trkpt>
      <trkpt lat="46.71504" lon="5.9661">
        <ele>666.2</ele>
        <time>2021-04-29T13:54:04Z</time>
      </trkpt>
      <trkpt lat="46.71509" lon="5.96613">
        <ele>666.2</ele>
        <time>2021-04-29T13:54:08Z</time>
      </trkpt>
      <trkpt lat="46.71514" lon="5.96614">
        <ele>666</ele>
        <time>2021-04-29T13:54:13Z</time>
      </trkpt>
      <trkpt lat="46.71519" lon="5.96615">
        <ele>665.7</ele>
        <time>2021-04-29T13:54:18Z</time>
      </trkpt>
      <trkpt lat="46.71525" lon="5.96616">
        <ele>665.1</ele>
        <time>2021-04-29T13:54:22Z</time>
      </trkpt>
      <trkpt lat="46.7153" lon="5.96617">
        <ele>664.3</ele>
        <time>2021-04-29T13:54:27Z</time>
      </trkpt>
      <trkpt lat="46.71534" lon="5.96618">
        <ele>663.3</ele>
        <time>2021-04-29T13:54:32Z</time>
      </trkpt>
      <trkpt lat="46.7154" lon="5.96619">
        <ele>662.4</ele>
        <time>2021-04-29T13:54:38Z</time>
      </trkpt>
      <trkpt lat="46.71544" lon="5.96622">
        <ele>661.8</ele>
        <time>2021-04-29T13:54:44Z</time>
      </trkpt>
      <trkpt lat="46.71549" lon="5.96624">
        <ele>661.5</ele>
        <time>2021-04-29T13:54:50Z</time>
      </trkpt>
      <trkpt lat="46.71553" lon="5.96627">
        <ele>661.9</ele>
        <time>2021-04-29T13:54:54Z</time>
      </trkpt>
      <trkpt lat="46.71558" lon="5.96631">
        <ele>661.8</ele>
        <time>2021-04-29T13:55:00Z</time>
      </trkpt>
      <trkpt lat="46.71562" lon="5.96632">
        <ele>661.3</ele>
        <time>2021-04-29T13:55:04Z</time>
      </trkpt>
      <trkpt lat="46.71567" lon="5.96633">
        <ele>660.9</ele>
        <time>2021-04-29T13:55:08Z</time>
      </trkpt>
      <trkpt lat="46.71572" lon="5.96634">
        <ele>660.8</ele>
        <time>2021-04-29T13:55:12Z</time>
      </trkpt>
      <trkpt lat="46.71577" lon="5.96637">
        <ele>660.5</ele>
        <time>2021-04-29T13:55:16Z</time>
      </trkpt>
      <trkpt lat="46.71582" lon="5.9664">
        <ele>660.5</ele>
        <time>2021-04-29T13:55:20Z</time>
      </trkpt>
      <trkpt lat="46.71586" lon="5.96641">
        <ele>660.4</ele>
        <time>2021-04-29T13:55:25Z</time>
      </trkpt>
      <trkpt lat="46.71591" lon="5.96641">
        <ele>659.9</ele>
        <time>2021-04-29T13:55:29Z</time>
      </trkpt>
      <trkpt lat="46.71596" lon="5.96643">
        <ele>659.6</ele>
        <time>2021-04-29T13:55:34Z</time>
      </trkpt>
      <trkpt lat="46.71601" lon="5.96645">
        <ele>659.6</ele>
        <time>2021-04-29T13:55:40Z</time>
      </trkpt>
      <trkpt lat="46.71606" lon="5.96649">
        <ele>659.9</ele>
        <time>2021-04-29T13:55:45Z</time>
      </trkpt>
      <trkpt lat="46.71611" lon="5.96651">
        <ele>660.3</ele>
        <time>2021-04-29T13:55:50Z</time>
      </trkpt>
      <trkpt lat="46.71615" lon="5.96654">
        <ele>660.3</ele>
        <time>2021-04-29T13:55:54Z</time>
      </trkpt>
      <trkpt lat="46.7162" lon="5.96658">
        <ele>660.3</ele>
        <time>2021-04-29T13:55:58Z</time>
      </trkpt>
      <trkpt lat="46.71625" lon="5.9666">
        <ele>660.2</ele>
        <time>2021-04-29T13:56:02Z</time>
      </trkpt>
      <trkpt lat="46.7163" lon="5.96662">
        <ele>660.1</ele>
        <time>2021-04-29T13:56:07Z</time>
      </trkpt>
      <trkpt lat="46.71635" lon="5.96664">
        <ele>659.9</ele>
        <time>2021-04-29T13:56:11Z</time>
      </trkpt>
      <trkpt lat="46.7164" lon="5.96665">
        <ele>659.8</ele>
        <time>2021-04-29T13:56:15Z</time>
      </trkpt>
      <trkpt lat="46.71645" lon="5.96668">
        <ele>659.5</ele>
        <time>2021-04-29T13:56:20Z</time>
      </trkpt>
      <trkpt lat="46.71649" lon="5.96672">
        <ele>658.7</ele>
        <time>2021-04-29T13:56:25Z</time>
      </trkpt>
      <trkpt lat="46.71654" lon="5.96674">
        <ele>657.8</ele>
        <time>2021-04-29T13:56:30Z</time>
      </trkpt>
      <trkpt lat="46.71659" lon="5.96675">
        <ele>657</ele>
        <time>2021-04-29T13:56:34Z</time>
      </trkpt>
      <trkpt lat="46.71664" lon="5.96676">
        <ele>656.1</ele>
        <time>2021-04-29T13:56:38Z</time>
      </trkpt>
      <trkpt lat="46.71669" lon="5.96678">
        <ele>654.9</ele>
        <time>2021-04-29T13:56:43Z</time>
      </trkpt>
      <trkpt lat="46.71674" lon="5.9668">
        <ele>653.2</ele>
        <time>2021-04-29T13:56:50Z</time>
      </trkpt>
      <trkpt lat="46.71677" lon="5.96684">
        <ele>652.8</ele>
        <time>2021-04-29T13:56:55Z</time>
      </trkpt>
      <trkpt lat="46.71682" lon="5.96687">
        <ele>652.9</ele>
        <time>2021-04-29T13:57:01Z</time>
      </trkpt>
      <trkpt lat="46.71686" lon="5.96691">
        <ele>653.1</ele>
        <time>2021-04-29T13:57:05Z</time>
      </trkpt>
      <trkpt lat="46.71691" lon="5.96693">
        <ele>653.4</ele>
        <time>2021-04-29T13:57:10Z</time>
      </trkpt>
      <trkpt lat="46.71696" lon="5.96695">
        <ele>653.3</ele>
        <time>2021-04-29T13:57:14Z</time>
      </trkpt>
      <trkpt lat="46.71701" lon="5.96697">
        <ele>652.8</ele>
        <time>2021-04-29T13:57:18Z</time>
      </trkpt>
      <trkpt lat="46.71705" lon="5.967">
        <ele>652.4</ele>
        <time>2021-04-29T13:57:23Z</time>
      </trkpt>
      <trkpt lat="46.7171" lon="5.96702">
        <ele>651.9</ele>
        <time>2021-04-29T13:57:28Z</time>
      </trkpt>
      <trkpt lat="46.71714" lon="5.96705">
        <ele>651.3</ele>
        <time>2021-04-29T13:57:33Z</time>
      </trkpt>
      <trkpt lat="46.71719" lon="5.96709">
        <ele>650.9</ele>
        <time>2021-04-29T13:57:38Z</time>
      </trkpt>
      <trkpt lat="46.71723" lon="5.9671">
        <ele>650.4</ele>
        <time>2021-04-29T13:57:42Z</time>
      </trkpt>
      <trkpt lat="46.71729" lon="5.96712">
        <ele>649.9</ele>
        <time>2021-04-29T13:57:46Z</time>
      </trkpt>
      <trkpt lat="46.71735" lon="5.96715">
        <ele>649.6</ele>
        <time>2021-04-29T13:57:50Z</time>
      </trkpt>
      <trkpt lat="46.71739" lon="5.96717">
        <ele>649.3</ele>
        <time>2021-04-29T13:57:54Z</time>
      </trkpt>
      <trkpt lat="46.71744" lon="5.9672">
        <ele>648.7</ele>
        <time>2021-04-29T13:57:59Z</time>
      </trkpt>
      <trkpt lat="46.71749" lon="5.96723">
        <ele>647.9</ele>
        <time>2021-04-29T13:58:04Z</time>
      </trkpt>
      <trkpt lat="46.71753" lon="5.96725">
        <ele>646.9</ele>
        <time>2021-04-29T13:58:08Z</time>
      </trkpt>
      <trkpt lat="46.71758" lon="5.96726">
        <ele>645.3</ele>
        <time>2021-04-29T13:58:13Z</time>
      </trkpt>
      <trkpt lat="46.71762" lon="5.9673">
        <ele>643.8</ele>
        <time>2021-04-29T13:58:19Z</time>
      </trkpt>
      <trkpt lat="46.71766" lon="5.96733">
        <ele>642.6</ele>
        <time>2021-04-29T13:58:25Z</time>
      </trkpt>
      <trkpt lat="46.71771" lon="5.96735">
        <ele>641.4</ele>
        <time>2021-04-29T13:58:30Z</time>
      </trkpt>
      <trkpt lat="46.71775" lon="5.9674">
        <ele>640.2</ele>
        <time>2021-04-29T13:58:35Z</time>
      </trkpt>
      <trkpt lat="46.71779" lon="5.96744">
        <ele>639.4</ele>
        <time>2021-04-29T13:58:43Z</time>
      </trkpt>
      <trkpt lat="46.71784" lon="5.96746">
        <ele>639.5</ele>
        <time>2021-04-29T13:58:47Z</time>
      </trkpt>
      <trkpt lat="46.7179" lon="5.96751">
        <ele>640</ele>
        <time>2021-04-29T13:58:51Z</time>
      </trkpt>
      <trkpt lat="46.71796" lon="5.96755">
        <ele>640.4</ele>
        <time>2021-04-29T13:58:55Z</time>
      </trkpt>
      <trkpt lat="46.71801" lon="5.96759">
        <ele>641</ele>
        <time>2021-04-29T13:58:59Z</time>
      </trkpt>
      <trkpt lat="46.71805" lon="5.96763">
        <ele>641.7</ele>
        <time>2021-04-29T13:59:03Z</time>
      </trkpt>
      <trkpt lat="46.71808" lon="5.96768">
        <ele>642.4</ele>
        <time>2021-04-29T13:59:09Z</time>
      </trkpt>
      <trkpt lat="46.71812" lon="5.96774">
        <ele>643.4</ele>
        <time>2021-04-29T13:59:15Z</time>
      </trkpt>
      <trkpt lat="46.71816" lon="5.96778">
        <ele>644.2</ele>
        <time>2021-04-29T13:59:19Z</time>
      </trkpt>
      <trkpt lat="46.71821" lon="5.96784">
        <ele>646</ele>
        <time>2021-04-29T13:59:23Z</time>
      </trkpt>
      <trkpt lat="46.71825" lon="5.96789">
        <ele>648.8</ele>
        <time>2021-04-29T13:59:29Z</time>
      </trkpt>
      <trkpt lat="46.71829" lon="5.96792">
        <ele>651.2</ele>
        <time>2021-04-29T13:59:35Z</time>
      </trkpt>
      <trkpt lat="46.71833" lon="5.96795">
        <ele>652.9</ele>
        <time>2021-04-29T13:59:41Z</time>
      </trkpt>
      <trkpt lat="46.71838" lon="5.96796">
        <ele>653.2</ele>
        <time>2021-04-29T13:59:45Z</time>
      </trkpt>
      <trkpt lat="46.71843" lon="5.96797">
        <ele>653</ele>
        <time>2021-04-29T13:59:50Z</time>
      </trkpt>
      <trkpt lat="46.71848" lon="5.96798">
        <ele>652.6</ele>
        <time>2021-04-29T13:59:54Z</time>
      </trkpt>
      <trkpt lat="46.71852" lon="5.96801">
        <ele>652.2</ele>
        <time>2021-04-29T13:59:58Z</time>
      </trkpt>
      <trkpt lat="46.71856" lon="5.96804">
        <ele>652</ele>
        <time>2021-04-29T14:00:03Z</time>
      </trkpt>
      <trkpt lat="46.71861" lon="5.96805">
        <ele>651.9</ele>
        <time>2021-04-29T14:00:07Z</time>
      </trkpt>
      <trkpt lat="46.71865" lon="5.96807">
        <ele>651.8</ele>
        <time>2021-04-29T14:00:11Z</time>
      </trkpt>
      <trkpt lat="46.71871" lon="5.96808">
        <ele>651.4</ele>
        <time>2021-04-29T14:00:15Z</time>
      </trkpt>
      <trkpt lat="46.7188" lon="5.96809">
        <ele>650.9</ele>
        <time>2021-04-29T14:00:19Z</time>
      </trkpt>
      <trkpt lat="46.71886" lon="5.96809">
        <ele>650.4</ele>
        <time>2021-04-29T14:00:23Z</time>
      </trkpt>
      <trkpt lat="46.71892" lon="5.96811">
        <ele>649.9</ele>
        <time>2021-04-29T14:00:28Z</time>
      </trkpt>
      <trkpt lat="46.71897" lon="5.96811">
        <ele>649.5</ele>
        <time>2021-04-29T14:00:33Z</time>
      </trkpt>
      <trkpt lat="46.71902" lon="5.96812">
        <ele>649.2</ele>
        <time>2021-04-29T14:00:37Z</time>
      </trkpt>
      <trkpt lat="46.71907" lon="5.96811">
        <ele>648.9</ele>
        <time>2021-04-29T14:00:41Z</time>
      </trkpt>
      <trkpt lat="46.71912" lon="5.96811">
        <ele>648.6</ele>
        <time>2021-04-29T14:00:45Z</time>
      </trkpt>
      <trkpt lat="46.71917" lon="5.96811">
        <ele>648.4</ele>
        <time>2021-04-29T14:00:49Z</time>
      </trkpt>
      <trkpt lat="46.71923" lon="5.96812">
        <ele>648.2</ele>
        <time>2021-04-29T14:00:54Z</time>
      </trkpt>
      <trkpt lat="46.71928" lon="5.96813">
        <ele>647.7</ele>
        <time>2021-04-29T14:00:59Z</time>
      </trkpt>
      <trkpt lat="46.71934" lon="5.96813">
        <ele>647</ele>
        <time>2021-04-29T14:01:03Z</time>
      </trkpt>
      <trkpt lat="46.71938" lon="5.96814">
        <ele>646</ele>
        <time>2021-04-29T14:01:08Z</time>
      </trkpt>
      <trkpt lat="46.71943" lon="5.96815">
        <ele>645.7</ele>
        <time>2021-04-29T14:01:13Z</time>
      </trkpt>
      <trkpt lat="46.71947" lon="5.96818">
        <ele>645.6</ele>
        <time>2021-04-29T14:01:18Z</time>
      </trkpt>
      <trkpt lat="46.71951" lon="5.96821">
        <ele>645.5</ele>
        <time>2021-04-29T14:01:22Z</time>
      </trkpt>
      <trkpt lat="46.71956" lon="5.96821">
        <ele>645.6</ele>
        <time>2021-04-29T14:01:26Z</time>
      </trkpt>
      <trkpt lat="46.71961" lon="5.96822">
        <ele>645.9</ele>
        <time>2021-04-29T14:01:30Z</time>
      </trkpt>
      <trkpt lat="46.71965" lon="5.96822">
        <ele>646</ele>
        <time>2021-04-29T14:01:34Z</time>
      </trkpt>
      <trkpt lat="46.7197" lon="5.96823">
        <ele>645.8</ele>
        <time>2021-04-29T14:01:40Z</time>
      </trkpt>
      <trkpt lat="46.71975" lon="5.96823">
        <ele>645.8</ele>
        <time>2021-04-29T14:01:44Z</time>
      </trkpt>
      <trkpt lat="46.71979" lon="5.96823">
        <ele>645.7</ele>
        <time>2021-04-29T14:01:48Z</time>
      </trkpt>
      <trkpt lat="46.71986" lon="5.96823">
        <ele>645.5</ele>
        <time>2021-04-29T14:01:52Z</time>
      </trkpt>
      <trkpt lat="46.71991" lon="5.96824">
        <ele>645.3</ele>
        <time>2021-04-29T14:01:57Z</time>
      </trkpt>
      <trkpt lat="46.71996" lon="5.96826">
        <ele>645.1</ele>
        <time>2021-04-29T14:02:02Z</time>
      </trkpt>
      <trkpt lat="46.72001" lon="5.96827">
        <ele>644.7</ele>
        <time>2021-04-29T14:02:07Z</time>
      </trkpt>
      <trkpt lat="46.72006" lon="5.96828">
        <ele>644.3</ele>
        <time>2021-04-29T14:02:13Z</time>
      </trkpt>
      <trkpt lat="46.72011" lon="5.96828">
        <ele>644.1</ele>
        <time>2021-04-29T14:02:17Z</time>
      </trkpt>
      <trkpt lat="46.72017" lon="5.96829">
        <ele>643.7</ele>
        <time>2021-04-29T14:02:22Z</time>
      </trkpt>
      <trkpt lat="46.72022" lon="5.96829">
        <ele>643.3</ele>
        <time>2021-04-29T14:02:27Z</time>
      </trkpt>
      <trkpt lat="46.72034" lon="5.96828">
        <ele>643.9</ele>
        <time>2021-04-29T14:02:31Z</time>
      </trkpt>
      <trkpt lat="46.72043" lon="5.96828">
        <ele>644.4</ele>
        <time>2021-04-29T14:02:35Z</time>
      </trkpt>
      <trkpt lat="46.72047" lon="5.9683">
        <ele>644.4</ele>
        <time>2021-04-29T14:02:39Z</time>
      </trkpt>
      <trkpt lat="46.72052" lon="5.96832">
        <ele>644.3</ele>
        <time>2021-04-29T14:02:44Z</time>
      </trkpt>
      <trkpt lat="46.72057" lon="5.96834">
        <ele>643.9</ele>
        <time>2021-04-29T14:02:51Z</time>
      </trkpt>
      <trkpt lat="46.72062" lon="5.96836">
        <ele>643.3</ele>
        <time>2021-04-29T14:02:58Z</time>
      </trkpt>
      <trkpt lat="46.72067" lon="5.96835">
        <ele>642.9</ele>
        <time>2021-04-29T14:03:02Z</time>
      </trkpt>
      <trkpt lat="46.72072" lon="5.96833">
        <ele>642.6</ele>
        <time>2021-04-29T14:03:06Z</time>
      </trkpt>
      <trkpt lat="46.72078" lon="5.96832">
        <ele>642.6</ele>
        <time>2021-04-29T14:03:10Z</time>
      </trkpt>
      <trkpt lat="46.72082" lon="5.96832">
        <ele>642.9</ele>
        <time>2021-04-29T14:03:14Z</time>
      </trkpt>
      <trkpt lat="46.72087" lon="5.96831">
        <ele>643</ele>
        <time>2021-04-29T14:03:19Z</time>
      </trkpt>
      <trkpt lat="46.72097" lon="5.96829">
        <ele>645.9</ele>
        <time>2021-04-29T14:03:23Z</time>
      </trkpt>
      <trkpt lat="46.72102" lon="5.96829">
        <ele>648</ele>
        <time>2021-04-29T14:03:27Z</time>
      </trkpt>
      <trkpt lat="46.72107" lon="5.96828">
        <ele>649.8</ele>
        <time>2021-04-29T14:03:35Z</time>
      </trkpt>
      <trkpt lat="46.72112" lon="5.96828">
        <ele>650.3</ele>
        <time>2021-04-29T14:03:40Z</time>
      </trkpt>
      <trkpt lat="46.72118" lon="5.96827">
        <ele>650.6</ele>
        <time>2021-04-29T14:03:44Z</time>
      </trkpt>
      <trkpt lat="46.72124" lon="5.96826">
        <ele>650.7</ele>
        <time>2021-04-29T14:03:48Z</time>
      </trkpt>
      <trkpt lat="46.72129" lon="5.96827">
        <ele>650.4</ele>
        <time>2021-04-29T14:03:52Z</time>
      </trkpt>
      <trkpt lat="46.72135" lon="5.96826">
        <ele>650.3</ele>
        <time>2021-04-29T14:03:56Z</time>
      </trkpt>
      <trkpt lat="46.7214" lon="5.96826">
        <ele>650.1</ele>
        <time>2021-04-29T14:04:00Z</time>
      </trkpt>
      <trkpt lat="46.72145" lon="5.96827">
        <ele>649.7</ele>
        <time>2021-04-29T14:04:04Z</time>
      </trkpt>
      <trkpt lat="46.7215" lon="5.96828">
        <ele>649.5</ele>
        <time>2021-04-29T14:04:08Z</time>
      </trkpt>
      <trkpt lat="46.72155" lon="5.96828">
        <ele>649.2</ele>
        <time>2021-04-29T14:04:12Z</time>
      </trkpt>
      <trkpt lat="46.7216" lon="5.96827">
        <ele>648.9</ele>
        <time>2021-04-29T14:04:16Z</time>
      </trkpt>
      <trkpt lat="46.72164" lon="5.96826">
        <ele>648.1</ele>
        <time>2021-04-29T14:04:21Z</time>
      </trkpt>
      <trkpt lat="46.7217" lon="5.96826">
        <ele>646.9</ele>
        <time>2021-04-29T14:04:27Z</time>
      </trkpt>
      <trkpt lat="46.72175" lon="5.96825">
        <ele>645.6</ele>
        <time>2021-04-29T14:04:33Z</time>
      </trkpt>
      <trkpt lat="46.7218" lon="5.96824">
        <ele>644.8</ele>
        <time>2021-04-29T14:04:38Z</time>
      </trkpt>
      <trkpt lat="46.72185" lon="5.96822">
        <ele>644.2</ele>
        <time>2021-04-29T14:04:42Z</time>
      </trkpt>
      <trkpt lat="46.7219" lon="5.96819">
        <ele>643.9</ele>
        <time>2021-04-29T14:04:46Z</time>
      </trkpt>
      <trkpt lat="46.72195" lon="5.96818">
        <ele>643.4</ele>
        <time>2021-04-29T14:04:50Z</time>
      </trkpt>
      <trkpt lat="46.72199" lon="5.96818">
        <ele>642.9</ele>
        <time>2021-04-29T14:04:54Z</time>
      </trkpt>
      <trkpt lat="46.72204" lon="5.96818">
        <ele>642.4</ele>
        <time>2021-04-29T14:04:58Z</time>
      </trkpt>
      <trkpt lat="46.72209" lon="5.96819">
        <ele>642.2</ele>
        <time>2021-04-29T14:05:02Z</time>
      </trkpt>
      <trkpt lat="46.72214" lon="5.96817">
        <ele>641.6</ele>
        <time>2021-04-29T14:05:07Z</time>
      </trkpt>
      <trkpt lat="46.72219" lon="5.96815">
        <ele>641.2</ele>
        <time>2021-04-29T14:05:12Z</time>
      </trkpt>
      <trkpt lat="46.72224" lon="5.96813">
        <ele>641</ele>
        <time>2021-04-29T14:05:17Z</time>
      </trkpt>
      <trkpt lat="46.72228" lon="5.96813">
        <ele>640.6</ele>
        <time>2021-04-29T14:05:22Z</time>
      </trkpt>
      <trkpt lat="46.72233" lon="5.96812">
        <ele>640.3</ele>
        <time>2021-04-29T14:05:28Z</time>
      </trkpt>
      <trkpt lat="46.72238" lon="5.9681">
        <ele>640.1</ele>
        <time>2021-04-29T14:05:34Z</time>
      </trkpt>
      <trkpt lat="46.72242" lon="5.96806">
        <ele>640.8</ele>
        <time>2021-04-29T14:05:48Z</time>
      </trkpt>
      <trkpt lat="46.72247" lon="5.96803">
        <ele>641.1</ele>
        <time>2021-04-29T14:05:54Z</time>
      </trkpt>
      <trkpt lat="46.72251" lon="5.96801">
        <ele>641.1</ele>
        <time>2021-04-29T14:05:59Z</time>
      </trkpt>
      <trkpt lat="46.72256" lon="5.96799">
        <ele>641</ele>
        <time>2021-04-29T14:06:05Z</time>
      </trkpt>
      <trkpt lat="46.72261" lon="5.96797">
        <ele>641</ele>
        <time>2021-04-29T14:06:10Z</time>
      </trkpt>
      <trkpt lat="46.72266" lon="5.96796">
        <ele>641.3</ele>
        <time>2021-04-29T14:06:15Z</time>
      </trkpt>
      <trkpt lat="46.72271" lon="5.96795">
        <ele>641.6</ele>
        <time>2021-04-29T14:06:20Z</time>
      </trkpt>
      <trkpt lat="46.72275" lon="5.96795">
        <ele>641.5</ele>
        <time>2021-04-29T14:06:24Z</time>
      </trkpt>
      <trkpt lat="46.7228" lon="5.96793">
        <ele>641.3</ele>
        <time>2021-04-29T14:06:28Z</time>
      </trkpt>
      <trkpt lat="46.72286" lon="5.96791">
        <ele>641</ele>
        <time>2021-04-29T14:06:33Z</time>
      </trkpt>
      <trkpt lat="46.7229" lon="5.96789">
        <ele>641.1</ele>
        <time>2021-04-29T14:06:37Z</time>
      </trkpt>
      <trkpt lat="46.72296" lon="5.96787">
        <ele>641.1</ele>
        <time>2021-04-29T14:06:42Z</time>
      </trkpt>
      <trkpt lat="46.723" lon="5.96784">
        <ele>640.9</ele>
        <time>2021-04-29T14:06:47Z</time>
      </trkpt>
      <trkpt lat="46.72305" lon="5.9678">
        <ele>640.6</ele>
        <time>2021-04-29T14:06:53Z</time>
      </trkpt>
      <trkpt lat="46.72309" lon="5.96777">
        <ele>640.2</ele>
        <time>2021-04-29T14:06:57Z</time>
      </trkpt>
      <trkpt lat="46.72314" lon="5.96773">
        <ele>639.8</ele>
        <time>2021-04-29T14:07:01Z</time>
      </trkpt>
      <trkpt lat="46.72319" lon="5.96769">
        <ele>639.4</ele>
        <time>2021-04-29T14:07:05Z</time>
      </trkpt>
      <trkpt lat="46.72323" lon="5.96765">
        <ele>639.4</ele>
        <time>2021-04-29T14:07:10Z</time>
      </trkpt>
      <trkpt lat="46.72322" lon="5.96759">
        <ele>641.2</ele>
        <time>2021-04-29T14:07:32Z</time>
      </trkpt>
      <trkpt lat="46.72325" lon="5.96753">
        <ele>641.2</ele>
        <time>2021-04-29T14:07:37Z</time>
      </trkpt>
      <trkpt lat="46.72326" lon="5.96746">
        <ele>641.1</ele>
        <time>2021-04-29T14:07:44Z</time>
      </trkpt>
      <trkpt lat="46.72328" lon="5.96739">
        <ele>640.9</ele>
        <time>2021-04-29T14:07:50Z</time>
      </trkpt>
      <trkpt lat="46.7233" lon="5.96732">
        <ele>640.7</ele>
        <time>2021-04-29T14:07:55Z</time>
      </trkpt>
      <trkpt lat="46.72332" lon="5.96726">
        <ele>640.6</ele>
        <time>2021-04-29T14:07:59Z</time>
      </trkpt>
      <trkpt lat="46.72335" lon="5.96719">
        <ele>640.3</ele>
        <time>2021-04-29T14:08:03Z</time>
      </trkpt>
      <trkpt lat="46.72336" lon="5.96712">
        <ele>639.8</ele>
        <time>2021-04-29T14:08:09Z</time>
      </trkpt>
      <trkpt lat="46.72334" lon="5.96705">
        <ele>639.4</ele>
        <time>2021-04-29T14:08:14Z</time>
      </trkpt>
      <trkpt lat="46.72331" lon="5.96699">
        <ele>639.1</ele>
        <time>2021-04-29T14:08:18Z</time>
      </trkpt>
      <trkpt lat="46.72328" lon="5.96694">
        <ele>638.3</ele>
        <time>2021-04-29T14:08:23Z</time>
      </trkpt>
      <trkpt lat="46.72327" lon="5.96687">
        <ele>636.5</ele>
        <time>2021-04-29T14:08:36Z</time>
      </trkpt>
      <trkpt lat="46.72325" lon="5.96681">
        <ele>636.3</ele>
        <time>2021-04-29T14:08:42Z</time>
      </trkpt>
      <trkpt lat="46.72322" lon="5.96675">
        <ele>636.2</ele>
        <time>2021-04-29T14:08:49Z</time>
      </trkpt>
      <trkpt lat="46.72323" lon="5.96668">
        <ele>636.6</ele>
        <time>2021-04-29T14:09:00Z</time>
      </trkpt>
      <trkpt lat="46.7232" lon="5.96662">
        <ele>636.6</ele>
        <time>2021-04-29T14:09:07Z</time>
      </trkpt>
      <trkpt lat="46.72316" lon="5.96658">
        <ele>636.3</ele>
        <time>2021-04-29T14:09:11Z</time>
      </trkpt>
      <trkpt lat="46.72312" lon="5.96655">
        <ele>635.7</ele>
        <time>2021-04-29T14:09:15Z</time>
      </trkpt>
      <trkpt lat="46.72307" lon="5.96652">
        <ele>635.1</ele>
        <time>2021-04-29T14:09:19Z</time>
      </trkpt>
      <trkpt lat="46.72302" lon="5.96648">
        <ele>634.3</ele>
        <time>2021-04-29T14:09:23Z</time>
      </trkpt>
      <trkpt lat="46.72296" lon="5.96644">
        <ele>633.4</ele>
        <time>2021-04-29T14:09:27Z</time>
      </trkpt>
      <trkpt lat="46.7229" lon="5.96641">
        <ele>632.2</ele>
        <time>2021-04-29T14:09:31Z</time>
      </trkpt>
      <trkpt lat="46.72285" lon="5.96639">
        <ele>631</ele>
        <time>2021-04-29T14:09:35Z</time>
      </trkpt>
      <trkpt lat="46.7228" lon="5.96636">
        <ele>629.6</ele>
        <time>2021-04-29T14:09:39Z</time>
      </trkpt>
      <trkpt lat="46.72276" lon="5.96631">
        <ele>627.5</ele>
        <time>2021-04-29T14:09:44Z</time>
      </trkpt>
      <trkpt lat="46.72271" lon="5.96628">
        <ele>625.9</ele>
        <time>2021-04-29T14:09:49Z</time>
      </trkpt>
      <trkpt lat="46.72267" lon="5.96624">
        <ele>624.2</ele>
        <time>2021-04-29T14:09:54Z</time>
      </trkpt>
      <trkpt lat="46.72264" lon="5.9662">
        <ele>618.6</ele>
        <time>2021-04-29T14:10:04Z</time>
      </trkpt>
      <trkpt lat="46.72259" lon="5.96619">
        <ele>614.8</ele>
        <time>2021-04-29T14:10:12Z</time>
      </trkpt>
      <trkpt lat="46.72253" lon="5.96617">
        <ele>612.7</ele>
        <time>2021-04-29T14:10:16Z</time>
      </trkpt>
      <trkpt lat="46.72249" lon="5.96616">
        <ele>609.9</ele>
        <time>2021-04-29T14:10:21Z</time>
      </trkpt>
      <trkpt lat="46.72246" lon="5.9661">
        <ele>604.2</ele>
        <time>2021-04-29T14:10:31Z</time>
      </trkpt>
      <trkpt lat="46.72241" lon="5.96606">
        <ele>601.6</ele>
        <time>2021-04-29T14:10:36Z</time>
      </trkpt>
      <trkpt lat="46.72237" lon="5.96605">
        <ele>599.2</ele>
        <time>2021-04-29T14:10:41Z</time>
      </trkpt>
      <trkpt lat="46.72233" lon="5.96599">
        <ele>596.1</ele>
        <time>2021-04-29T14:10:48Z</time>
      </trkpt>
      <trkpt lat="46.7223" lon="5.96594">
        <ele>592.9</ele>
        <time>2021-04-29T14:10:56Z</time>
      </trkpt>
      <trkpt lat="46.72228" lon="5.96587">
        <ele>591.4</ele>
        <time>2021-04-29T14:11:00Z</time>
      </trkpt>
      <trkpt lat="46.72225" lon="5.96583">
        <ele>589.2</ele>
        <time>2021-04-29T14:11:06Z</time>
      </trkpt>
      <trkpt lat="46.7222" lon="5.96579">
        <ele>586.6</ele>
        <time>2021-04-29T14:11:13Z</time>
      </trkpt>
      <trkpt lat="46.72216" lon="5.96575">
        <ele>584.2</ele>
        <time>2021-04-29T14:11:19Z</time>
      </trkpt>
      <trkpt lat="46.72212" lon="5.96569">
        <ele>581.2</ele>
        <time>2021-04-29T14:11:27Z</time>
      </trkpt>
      <trkpt lat="46.72208" lon="5.96564">
        <ele>579.2</ele>
        <time>2021-04-29T14:11:33Z</time>
      </trkpt>
      <trkpt lat="46.72204" lon="5.96559">
        <ele>577.6</ele>
        <time>2021-04-29T14:11:38Z</time>
      </trkpt>
      <trkpt lat="46.72199" lon="5.96556">
        <ele>576.1</ele>
        <time>2021-04-29T14:11:43Z</time>
      </trkpt>
      <trkpt lat="46.72193" lon="5.96556">
        <ele>575</ele>
        <time>2021-04-29T14:11:47Z</time>
      </trkpt>
      <trkpt lat="46.72187" lon="5.96555">
        <ele>574</ele>
        <time>2021-04-29T14:11:51Z</time>
      </trkpt>
      <trkpt lat="46.72181" lon="5.96554">
        <ele>573.1</ele>
        <time>2021-04-29T14:11:55Z</time>
      </trkpt>
      <trkpt lat="46.72175" lon="5.96551">
        <ele>572.3</ele>
        <time>2021-04-29T14:11:59Z</time>
      </trkpt>
      <trkpt lat="46.72169" lon="5.96547">
        <ele>571.4</ele>
        <time>2021-04-29T14:12:03Z</time>
      </trkpt>
      <trkpt lat="46.72163" lon="5.96543">
        <ele>570.6</ele>
        <time>2021-04-29T14:12:07Z</time>
      </trkpt>
      <trkpt lat="46.72158" lon="5.96537">
        <ele>569.9</ele>
        <time>2021-04-29T14:12:11Z</time>
      </trkpt>
      <trkpt lat="46.72154" lon="5.96531">
        <ele>569.4</ele>
        <time>2021-04-29T14:12:15Z</time>
      </trkpt>
      <trkpt lat="46.7215" lon="5.96525">
        <ele>568.7</ele>
        <time>2021-04-29T14:12:19Z</time>
      </trkpt>
      <trkpt lat="46.72142" lon="5.96521">
        <ele>568.3</ele>
        <time>2021-04-29T14:12:23Z</time>
      </trkpt>
      <trkpt lat="46.72137" lon="5.96516">
        <ele>567.9</ele>
        <time>2021-04-29T14:12:27Z</time>
      </trkpt>
      <trkpt lat="46.72132" lon="5.96509">
        <ele>570.5</ele>
        <time>2021-04-29T14:12:31Z</time>
      </trkpt>
      <trkpt lat="46.72128" lon="5.96504">
        <ele>571.6</ele>
        <time>2021-04-29T14:12:35Z</time>
      </trkpt>
      <trkpt lat="46.72126" lon="5.96499">
        <ele>572.2</ele>
        <time>2021-04-29T14:12:39Z</time>
      </trkpt>
      <trkpt lat="46.72123" lon="5.96493">
        <ele>573</ele>
        <time>2021-04-29T14:12:43Z</time>
      </trkpt>
      <trkpt lat="46.72119" lon="5.96487">
        <ele>573.5</ele>
        <time>2021-04-29T14:12:47Z</time>
      </trkpt>
      <trkpt lat="46.72117" lon="5.9648">
        <ele>574.1</ele>
        <time>2021-04-29T14:12:51Z</time>
      </trkpt>
      <trkpt lat="46.72114" lon="5.96474">
        <ele>575</ele>
        <time>2021-04-29T14:12:55Z</time>
      </trkpt>
      <trkpt lat="46.72112" lon="5.96467">
        <ele>576.1</ele>
        <time>2021-04-29T14:13:00Z</time>
      </trkpt>
      <trkpt lat="46.7211" lon="5.96459">
        <ele>577.8</ele>
        <time>2021-04-29T14:13:04Z</time>
      </trkpt>
      <trkpt lat="46.7211" lon="5.96452">
        <ele>579.6</ele>
        <time>2021-04-29T14:13:08Z</time>
      </trkpt>
      <trkpt lat="46.7211" lon="5.96445">
        <ele>581.1</ele>
        <time>2021-04-29T14:13:13Z</time>
      </trkpt>
      <trkpt lat="46.72112" lon="5.96438">
        <ele>582.5</ele>
        <time>2021-04-29T14:13:19Z</time>
      </trkpt>
      <trkpt lat="46.72114" lon="5.96432">
        <ele>583.1</ele>
        <time>2021-04-29T14:13:23Z</time>
      </trkpt>
      <trkpt lat="46.72117" lon="5.96426">
        <ele>584.4</ele>
        <time>2021-04-29T14:13:28Z</time>
      </trkpt>
      <trkpt lat="46.7212" lon="5.9642">
        <ele>586.3</ele>
        <time>2021-04-29T14:13:34Z</time>
      </trkpt>
      <trkpt lat="46.72122" lon="5.96414">
        <ele>587.9</ele>
        <time>2021-04-29T14:13:40Z</time>
      </trkpt>
      <trkpt lat="46.72124" lon="5.96408">
        <ele>589.2</ele>
        <time>2021-04-29T14:13:47Z</time>
      </trkpt>
      <trkpt lat="46.72125" lon="5.964">
        <ele>590.1</ele>
        <time>2021-04-29T14:13:54Z</time>
      </trkpt>
      <trkpt lat="46.72125" lon="5.96393">
        <ele>590.7</ele>
        <time>2021-04-29T14:14:00Z</time>
      </trkpt>
      <trkpt lat="46.72128" lon="5.96387">
        <ele>591.5</ele>
        <time>2021-04-29T14:14:05Z</time>
      </trkpt>
      <trkpt lat="46.72127" lon="5.96379">
        <ele>591.8</ele>
        <time>2021-04-29T14:14:09Z</time>
      </trkpt>
      <trkpt lat="46.72127" lon="5.96371">
        <ele>592.1</ele>
        <time>2021-04-29T14:14:14Z</time>
      </trkpt>
      <trkpt lat="46.72126" lon="5.96364">
        <ele>592</ele>
        <time>2021-04-29T14:14:19Z</time>
      </trkpt>
      <trkpt lat="46.72123" lon="5.9635">
        <ele>592.2</ele>
        <time>2021-04-29T14:14:23Z</time>
      </trkpt>
      <trkpt lat="46.72122" lon="5.9634">
        <ele>592</ele>
        <time>2021-04-29T14:14:27Z</time>
      </trkpt>
      <trkpt lat="46.72123" lon="5.96334">
        <ele>591.7</ele>
        <time>2021-04-29T14:14:32Z</time>
      </trkpt>
      <trkpt lat="46.72125" lon="5.96327">
        <ele>591.7</ele>
        <time>2021-04-29T14:14:37Z</time>
      </trkpt>
      <trkpt lat="46.72127" lon="5.96321">
        <ele>592.4</ele>
        <time>2021-04-29T14:14:43Z</time>
      </trkpt>
      <trkpt lat="46.72128" lon="5.9631">
        <ele>594.2</ele>
        <time>2021-04-29T14:15:08Z</time>
      </trkpt>
      <trkpt lat="46.7213" lon="5.96303">
        <ele>594.6</ele>
        <time>2021-04-29T14:15:12Z</time>
      </trkpt>
      <trkpt lat="46.72129" lon="5.96296">
        <ele>594.8</ele>
        <time>2021-04-29T14:15:19Z</time>
      </trkpt>
      <trkpt lat="46.7213" lon="5.96289">
        <ele>594.8</ele>
        <time>2021-04-29T14:15:26Z</time>
      </trkpt>
      <trkpt lat="46.72133" lon="5.96283">
        <ele>594.5</ele>
        <time>2021-04-29T14:15:31Z</time>
      </trkpt>
      <trkpt lat="46.72137" lon="5.96279">
        <ele>593.9</ele>
        <time>2021-04-29T14:15:37Z</time>
      </trkpt>
      <trkpt lat="46.72142" lon="5.96276">
        <ele>593.7</ele>
        <time>2021-04-29T14:15:41Z</time>
      </trkpt>
      <trkpt lat="46.72147" lon="5.96271">
        <ele>593.5</ele>
        <time>2021-04-29T14:15:45Z</time>
      </trkpt>
      <trkpt lat="46.72153" lon="5.96266">
        <ele>593.3</ele>
        <time>2021-04-29T14:15:49Z</time>
      </trkpt>
      <trkpt lat="46.7216" lon="5.9626">
        <ele>592.9</ele>
        <time>2021-04-29T14:15:53Z</time>
      </trkpt>
      <trkpt lat="46.72166" lon="5.96256">
        <ele>592.5</ele>
        <time>2021-04-29T14:15:57Z</time>
      </trkpt>
      <trkpt lat="46.72169" lon="5.9625">
        <ele>592</ele>
        <time>2021-04-29T14:16:01Z</time>
      </trkpt>
      <trkpt lat="46.72171" lon="5.96245">
        <ele>591.3</ele>
        <time>2021-04-29T14:16:06Z</time>
      </trkpt>
      <trkpt lat="46.72175" lon="5.96242">
        <ele>590.6</ele>
        <time>2021-04-29T14:16:12Z</time>
      </trkpt>
      <trkpt lat="46.72179" lon="5.96239">
        <ele>589.9</ele>
        <time>2021-04-29T14:16:16Z</time>
      </trkpt>
      <trkpt lat="46.72185" lon="5.96237">
        <ele>588.6</ele>
        <time>2021-04-29T14:16:21Z</time>
      </trkpt>
      <trkpt lat="46.72189" lon="5.96233">
        <ele>587.7</ele>
        <time>2021-04-29T14:16:25Z</time>
      </trkpt>
      <trkpt lat="46.72192" lon="5.96229">
        <ele>587</ele>
        <time>2021-04-29T14:16:29Z</time>
      </trkpt>
      <trkpt lat="46.72195" lon="5.96222">
        <ele>585.5</ele>
        <time>2021-04-29T14:16:35Z</time>
      </trkpt>
      <trkpt lat="46.72199" lon="5.96219">
        <ele>584.2</ele>
        <time>2021-04-29T14:16:41Z</time>
      </trkpt>
      <trkpt lat="46.72204" lon="5.96217">
        <ele>583.3</ele>
        <time>2021-04-29T14:16:46Z</time>
      </trkpt>
      <trkpt lat="46.72208" lon="5.96213">
        <ele>582.6</ele>
        <time>2021-04-29T14:16:51Z</time>
      </trkpt>
      <trkpt lat="46.72213" lon="5.9621">
        <ele>581.7</ele>
        <time>2021-04-29T14:16:58Z</time>
      </trkpt>
      <trkpt lat="46.72218" lon="5.96207">
        <ele>581.4</ele>
        <time>2021-04-29T14:17:04Z</time>
      </trkpt>
      <trkpt lat="46.72223" lon="5.96205">
        <ele>581</ele>
        <time>2021-04-29T14:17:09Z</time>
      </trkpt>
      <trkpt lat="46.72227" lon="5.96205">
        <ele>579.7</ele>
        <time>2021-04-29T14:17:17Z</time>
      </trkpt>
      <trkpt lat="46.72232" lon="5.96202">
        <ele>579.6</ele>
        <time>2021-04-29T14:17:23Z</time>
      </trkpt>
      <trkpt lat="46.72236" lon="5.962">
        <ele>580.3</ele>
        <time>2021-04-29T14:17:29Z</time>
      </trkpt>
      <trkpt lat="46.72241" lon="5.96198">
        <ele>580.6</ele>
        <time>2021-04-29T14:17:33Z</time>
      </trkpt>
      <trkpt lat="46.72246" lon="5.96197">
        <ele>580.5</ele>
        <time>2021-04-29T14:17:38Z</time>
      </trkpt>
      <trkpt lat="46.7225" lon="5.96195">
        <ele>580</ele>
        <time>2021-04-29T14:17:44Z</time>
      </trkpt>
      <trkpt lat="46.72255" lon="5.96194">
        <ele>579.7</ele>
        <time>2021-04-29T14:17:49Z</time>
      </trkpt>
      <trkpt lat="46.72259" lon="5.96192">
        <ele>578.7</ele>
        <time>2021-04-29T14:17:56Z</time>
      </trkpt>
      <trkpt lat="46.72264" lon="5.96189">
        <ele>577.6</ele>
        <time>2021-04-29T14:18:01Z</time>
      </trkpt>
      <trkpt lat="46.72268" lon="5.96185">
        <ele>576.6</ele>
        <time>2021-04-29T14:18:06Z</time>
      </trkpt>
      <trkpt lat="46.72272" lon="5.96179">
        <ele>575.9</ele>
        <time>2021-04-29T14:18:11Z</time>
      </trkpt>
      <trkpt lat="46.72275" lon="5.96174">
        <ele>574.9</ele>
        <time>2021-04-29T14:18:19Z</time>
      </trkpt>
      <trkpt lat="46.7228" lon="5.9617">
        <ele>574.3</ele>
        <time>2021-04-29T14:18:24Z</time>
      </trkpt>
      <trkpt lat="46.72285" lon="5.96168">
        <ele>573.7</ele>
        <time>2021-04-29T14:18:28Z</time>
      </trkpt>
      <trkpt lat="46.72291" lon="5.96164">
        <ele>572.9</ele>
        <time>2021-04-29T14:18:32Z</time>
      </trkpt>
      <trkpt lat="46.72294" lon="5.9616">
        <ele>572.3</ele>
        <time>2021-04-29T14:18:36Z</time>
      </trkpt>
      <trkpt lat="46.72297" lon="5.96154">
        <ele>572.5</ele>
        <time>2021-04-29T14:18:42Z</time>
      </trkpt>
      <trkpt lat="46.72298" lon="5.96161">
        <ele>577.2</ele>
        <time>2021-04-29T14:19:09Z</time>
      </trkpt>
      <trkpt lat="46.72302" lon="5.96165">
        <ele>582</ele>
        <time>2021-04-29T14:20:35Z</time>
      </trkpt>
      <trkpt lat="46.72305" lon="5.96171">
        <ele>586.3</ele>
        <time>2021-04-29T14:21:18Z</time>
      </trkpt>
      <trkpt lat="46.723" lon="5.96169">
        <ele>590.7</ele>
        <time>2021-04-29T14:22:38Z</time>
      </trkpt>
      <trkpt lat="46.72295" lon="5.96171">
        <ele>590.6</ele>
        <time>2021-04-29T14:22:58Z</time>
      </trkpt>
      <trkpt lat="46.723" lon="5.96169">
        <ele>591.8</ele>
        <time>2021-04-29T14:23:13Z</time>
      </trkpt>
      <trkpt lat="46.72305" lon="5.96169">
        <ele>591.6</ele>
        <time>2021-04-29T14:23:18Z</time>
      </trkpt>
      <trkpt lat="46.72309" lon="5.96169">
        <ele>590.9</ele>
        <time>2021-04-29T14:23:23Z</time>
      </trkpt>
      <trkpt lat="46.72305" lon="5.96171">
        <ele>590.2</ele>
        <time>2021-04-29T14:23:35Z</time>
      </trkpt>
      <trkpt lat="46.72301" lon="5.96175">
        <ele>591.2</ele>
        <time>2021-04-29T14:23:54Z</time>
      </trkpt>
      <trkpt lat="46.72295" lon="5.96175">
        <ele>588.6</ele>
        <time>2021-04-29T14:25:26Z</time>
      </trkpt>
      <trkpt lat="46.7229" lon="5.96176">
        <ele>588.1</ele>
        <time>2021-04-29T14:25:31Z</time>
      </trkpt>
      <trkpt lat="46.72288" lon="5.96182">
        <ele>588.1</ele>
        <time>2021-04-29T14:25:37Z</time>
      </trkpt>
      <trkpt lat="46.72289" lon="5.96189">
        <ele>586.5</ele>
        <time>2021-04-29T14:25:47Z</time>
      </trkpt>
      <trkpt lat="46.72291" lon="5.96195">
        <ele>586.1</ele>
        <time>2021-04-29T14:25:52Z</time>
      </trkpt>
      <trkpt lat="46.7229" lon="5.96202">
        <ele>585.7</ele>
        <time>2021-04-29T14:25:58Z</time>
      </trkpt>
      <trkpt lat="46.72287" lon="5.96208">
        <ele>585.3</ele>
        <time>2021-04-29T14:26:03Z</time>
      </trkpt>
      <trkpt lat="46.72287" lon="5.96216">
        <ele>585</ele>
        <time>2021-04-29T14:26:08Z</time>
      </trkpt>
      <trkpt lat="46.72288" lon="5.96223">
        <ele>585.2</ele>
        <time>2021-04-29T14:26:13Z</time>
      </trkpt>
      <trkpt lat="46.7229" lon="5.96229">
        <ele>585.7</ele>
        <time>2021-04-29T14:26:17Z</time>
      </trkpt>
      <trkpt lat="46.72292" lon="5.96236">
        <ele>586.3</ele>
        <time>2021-04-29T14:26:22Z</time>
      </trkpt>
      <trkpt lat="46.72293" lon="5.96243">
        <ele>586.3</ele>
        <time>2021-04-29T14:26:29Z</time>
      </trkpt>
      <trkpt lat="46.72294" lon="5.9625">
        <ele>585.6</ele>
        <time>2021-04-29T14:26:36Z</time>
      </trkpt>
      <trkpt lat="46.72298" lon="5.96254">
        <ele>584.6</ele>
        <time>2021-04-29T14:26:42Z</time>
      </trkpt>
      <trkpt lat="46.72301" lon="5.9626">
        <ele>582.6</ele>
        <time>2021-04-29T14:26:51Z</time>
      </trkpt>
      <trkpt lat="46.72306" lon="5.96261">
        <ele>581.8</ele>
        <time>2021-04-29T14:26:56Z</time>
      </trkpt>
      <trkpt lat="46.72311" lon="5.96263">
        <ele>581.2</ele>
        <time>2021-04-29T14:27:02Z</time>
      </trkpt>
      <trkpt lat="46.72315" lon="5.96264">
        <ele>580.8</ele>
        <time>2021-04-29T14:27:07Z</time>
      </trkpt>
      <trkpt lat="46.72319" lon="5.96268">
        <ele>580</ele>
        <time>2021-04-29T14:27:15Z</time>
      </trkpt>
      <trkpt lat="46.72324" lon="5.96269">
        <ele>579.6</ele>
        <time>2021-04-29T14:27:23Z</time>
      </trkpt>
      <trkpt lat="46.7233" lon="5.96271">
        <ele>579.5</ele>
        <time>2021-04-29T14:27:28Z</time>
      </trkpt>
      <trkpt lat="46.72339" lon="5.96271">
        <ele>579.8</ele>
        <time>2021-04-29T14:27:32Z</time>
      </trkpt>
      <trkpt lat="46.72345" lon="5.96274">
        <ele>580.2</ele>
        <time>2021-04-29T14:27:36Z</time>
      </trkpt>
      <trkpt lat="46.72347" lon="5.9628">
        <ele>581.5</ele>
        <time>2021-04-29T14:27:41Z</time>
      </trkpt>
      <trkpt lat="46.72352" lon="5.96282">
        <ele>582</ele>
        <time>2021-04-29T14:27:48Z</time>
      </trkpt>
      <trkpt lat="46.72356" lon="5.96285">
        <ele>581.4</ele>
        <time>2021-04-29T14:27:58Z</time>
      </trkpt>
      <trkpt lat="46.72357" lon="5.96292">
        <ele>581.2</ele>
        <time>2021-04-29T14:28:23Z</time>
      </trkpt>
      <trkpt lat="46.72359" lon="5.963">
        <ele>580.9</ele>
        <time>2021-04-29T14:28:35Z</time>
      </trkpt>
      <trkpt lat="46.72363" lon="5.96302">
        <ele>580.5</ele>
        <time>2021-04-29T14:28:41Z</time>
      </trkpt>
      <trkpt lat="46.72369" lon="5.96302">
        <ele>579.7</ele>
        <time>2021-04-29T14:29:21Z</time>
      </trkpt>
      <trkpt lat="46.72374" lon="5.96303">
        <ele>579.7</ele>
        <time>2021-04-29T14:29:27Z</time>
      </trkpt>
      <trkpt lat="46.72379" lon="5.96303">
        <ele>579.5</ele>
        <time>2021-04-29T14:29:33Z</time>
      </trkpt>
      <trkpt lat="46.72384" lon="5.96302">
        <ele>579.4</ele>
        <time>2021-04-29T14:29:37Z</time>
      </trkpt>
      <trkpt lat="46.72388" lon="5.96303">
        <ele>579.3</ele>
        <time>2021-04-29T14:29:45Z</time>
      </trkpt>
      <trkpt lat="46.72391" lon="5.96308">
        <ele>579.4</ele>
        <time>2021-04-29T14:29:52Z</time>
      </trkpt>
      <trkpt lat="46.72396" lon="5.9631">
        <ele>579.2</ele>
        <time>2021-04-29T14:29:57Z</time>
      </trkpt>
      <trkpt lat="46.724" lon="5.96313">
        <ele>578.9</ele>
        <time>2021-04-29T14:30:01Z</time>
      </trkpt>
      <trkpt lat="46.72405" lon="5.96315">
        <ele>578.7</ele>
        <time>2021-04-29T14:30:05Z</time>
      </trkpt>
      <trkpt lat="46.72411" lon="5.96318">
        <ele>578.5</ele>
        <time>2021-04-29T14:30:10Z</time>
      </trkpt>
      <trkpt lat="46.72417" lon="5.96319">
        <ele>578.1</ele>
        <time>2021-04-29T14:30:14Z</time>
      </trkpt>
      <trkpt lat="46.72421" lon="5.96322">
        <ele>577.8</ele>
        <time>2021-04-29T14:30:18Z</time>
      </trkpt>
      <trkpt lat="46.72426" lon="5.96324">
        <ele>577.4</ele>
        <time>2021-04-29T14:30:23Z</time>
      </trkpt>
      <trkpt lat="46.7243" lon="5.96327">
        <ele>576.9</ele>
        <time>2021-04-29T14:30:29Z</time>
      </trkpt>
      <trkpt lat="46.72434" lon="5.9633">
        <ele>576.6</ele>
        <time>2021-04-29T14:30:34Z</time>
      </trkpt>
      <trkpt lat="46.72438" lon="5.96335">
        <ele>576.2</ele>
        <time>2021-04-29T14:30:39Z</time>
      </trkpt>
      <trkpt lat="46.72442" lon="5.9634">
        <ele>575.7</ele>
        <time>2021-04-29T14:30:45Z</time>
      </trkpt>
      <trkpt lat="46.72447" lon="5.96342">
        <ele>575.2</ele>
        <time>2021-04-29T14:30:49Z</time>
      </trkpt>
      <trkpt lat="46.72452" lon="5.96345">
        <ele>574.6</ele>
        <time>2021-04-29T14:30:53Z</time>
      </trkpt>
      <trkpt lat="46.72457" lon="5.96348">
        <ele>576.5</ele>
        <time>2021-04-29T14:30:57Z</time>
      </trkpt>
      <trkpt lat="46.72462" lon="5.9635">
        <ele>578.1</ele>
        <time>2021-04-29T14:31:04Z</time>
      </trkpt>
      <trkpt lat="46.72467" lon="5.96355">
        <ele>577.6</ele>
        <time>2021-04-29T14:31:08Z</time>
      </trkpt>
      <trkpt lat="46.72469" lon="5.96362">
        <ele>575.8</ele>
        <time>2021-04-29T14:31:13Z</time>
      </trkpt>
      <trkpt lat="46.72472" lon="5.96368">
        <ele>573.7</ele>
        <time>2021-04-29T14:31:17Z</time>
      </trkpt>
      <trkpt lat="46.72478" lon="5.9637">
        <ele>572</ele>
        <time>2021-04-29T14:31:21Z</time>
      </trkpt>
      <trkpt lat="46.72486" lon="5.96369">
        <ele>574.5</ele>
        <time>2021-04-29T14:31:25Z</time>
      </trkpt>
      <trkpt lat="46.72495" lon="5.96367">
        <ele>584.6</ele>
        <time>2021-04-29T14:31:32Z</time>
      </trkpt>
      <trkpt lat="46.72502" lon="5.96365">
        <ele>593.9</ele>
        <time>2021-04-29T14:31:36Z</time>
      </trkpt>
      <trkpt lat="46.72509" lon="5.96365">
        <ele>599.6</ele>
        <time>2021-04-29T14:31:40Z</time>
      </trkpt>
      <trkpt lat="46.72516" lon="5.96365">
        <ele>603.9</ele>
        <time>2021-04-29T14:31:44Z</time>
      </trkpt>
      <trkpt lat="46.7252" lon="5.96363">
        <ele>606.8</ele>
        <time>2021-04-29T14:31:48Z</time>
      </trkpt>
      <trkpt lat="46.72525" lon="5.96363">
        <ele>609.4</ele>
        <time>2021-04-29T14:31:58Z</time>
      </trkpt>
      <trkpt lat="46.72529" lon="5.96366">
        <ele>609.7</ele>
        <time>2021-04-29T14:32:04Z</time>
      </trkpt>
      <trkpt lat="46.72533" lon="5.9637">
        <ele>609.4</ele>
        <time>2021-04-29T14:32:12Z</time>
      </trkpt>
      <trkpt lat="46.72536" lon="5.96376">
        <ele>604.3</ele>
        <time>2021-04-29T14:32:24Z</time>
      </trkpt>
      <trkpt lat="46.72539" lon="5.96365">
        <ele>598.5</ele>
        <time>2021-04-29T14:33:03Z</time>
      </trkpt>
      <trkpt lat="46.72539" lon="5.96357">
        <ele>604.6</ele>
        <time>2021-04-29T14:33:07Z</time>
      </trkpt>
      <trkpt lat="46.72532" lon="5.96356">
        <ele>610.4</ele>
        <time>2021-04-29T14:33:15Z</time>
      </trkpt>
      <trkpt lat="46.72528" lon="5.96364">
        <ele>610.6</ele>
        <time>2021-04-29T14:33:19Z</time>
      </trkpt>
      <trkpt lat="46.7253" lon="5.9637">
        <ele>609.9</ele>
        <time>2021-04-29T14:33:45Z</time>
      </trkpt>
      <trkpt lat="46.72531" lon="5.96363">
        <ele>607.4</ele>
        <time>2021-04-29T14:34:06Z</time>
      </trkpt>
      <trkpt lat="46.72527" lon="5.96361">
        <ele>603.7</ele>
        <time>2021-04-29T14:34:32Z</time>
      </trkpt>
      <trkpt lat="46.72523" lon="5.96365">
        <ele>602.6</ele>
        <time>2021-04-29T14:34:38Z</time>
      </trkpt>
      <trkpt lat="46.72519" lon="5.96367">
        <ele>601.5</ele>
        <time>2021-04-29T14:34:46Z</time>
      </trkpt>
      <trkpt lat="46.72514" lon="5.96365">
        <ele>600</ele>
        <time>2021-04-29T14:34:54Z</time>
      </trkpt>
      <trkpt lat="46.72509" lon="5.96365">
        <ele>598.7</ele>
        <time>2021-04-29T14:35:01Z</time>
      </trkpt>
      <trkpt lat="46.72505" lon="5.96362">
        <ele>597.4</ele>
        <time>2021-04-29T14:35:06Z</time>
      </trkpt>
      <trkpt lat="46.72502" lon="5.96357">
        <ele>596.3</ele>
        <time>2021-04-29T14:35:11Z</time>
      </trkpt>
      <trkpt lat="46.72498" lon="5.96353">
        <ele>595.2</ele>
        <time>2021-04-29T14:35:16Z</time>
      </trkpt>
      <trkpt lat="46.72495" lon="5.96349">
        <ele>593.9</ele>
        <time>2021-04-29T14:35:23Z</time>
      </trkpt>
      <trkpt lat="46.72491" lon="5.96344">
        <ele>592.7</ele>
        <time>2021-04-29T14:35:29Z</time>
      </trkpt>
      <trkpt lat="46.72487" lon="5.96338">
        <ele>591.6</ele>
        <time>2021-04-29T14:35:34Z</time>
      </trkpt>
      <trkpt lat="46.72484" lon="5.96333">
        <ele>590.6</ele>
        <time>2021-04-29T14:35:39Z</time>
      </trkpt>
      <trkpt lat="46.7248" lon="5.96329">
        <ele>589.5</ele>
        <time>2021-04-29T14:35:45Z</time>
      </trkpt>
      <trkpt lat="46.72476" lon="5.96324">
        <ele>588</ele>
        <time>2021-04-29T14:35:51Z</time>
      </trkpt>
      <trkpt lat="46.72472" lon="5.96322">
        <ele>586.8</ele>
        <time>2021-04-29T14:35:56Z</time>
      </trkpt>
      <trkpt lat="46.72467" lon="5.96319">
        <ele>585.8</ele>
        <time>2021-04-29T14:36:01Z</time>
      </trkpt>
      <trkpt lat="46.72463" lon="5.96316">
        <ele>585</ele>
        <time>2021-04-29T14:36:06Z</time>
      </trkpt>
      <trkpt lat="46.72459" lon="5.96312">
        <ele>584.3</ele>
        <time>2021-04-29T14:36:11Z</time>
      </trkpt>
      <trkpt lat="46.72455" lon="5.96308">
        <ele>583.6</ele>
        <time>2021-04-29T14:36:16Z</time>
      </trkpt>
      <trkpt lat="46.7245" lon="5.96305">
        <ele>583</ele>
        <time>2021-04-29T14:36:22Z</time>
      </trkpt>
      <trkpt lat="46.72447" lon="5.963">
        <ele>581.7</ele>
        <time>2021-04-29T14:36:28Z</time>
      </trkpt>
      <trkpt lat="46.72442" lon="5.96295">
        <ele>580.7</ele>
        <time>2021-04-29T14:36:33Z</time>
      </trkpt>
      <trkpt lat="46.72438" lon="5.96291">
        <ele>580.4</ele>
        <time>2021-04-29T14:36:38Z</time>
      </trkpt>
      <trkpt lat="46.72435" lon="5.96286">
        <ele>580.4</ele>
        <time>2021-04-29T14:36:43Z</time>
      </trkpt>
      <trkpt lat="46.72431" lon="5.9628">
        <ele>580.8</ele>
        <time>2021-04-29T14:36:48Z</time>
      </trkpt>
      <trkpt lat="46.72428" lon="5.96276">
        <ele>581.5</ele>
        <time>2021-04-29T14:36:53Z</time>
      </trkpt>
      <trkpt lat="46.72423" lon="5.96272">
        <ele>582.5</ele>
        <time>2021-04-29T14:36:59Z</time>
      </trkpt>
      <trkpt lat="46.72419" lon="5.96267">
        <ele>583.3</ele>
        <time>2021-04-29T14:37:05Z</time>
      </trkpt>
      <trkpt lat="46.72416" lon="5.96262">
        <ele>583.7</ele>
        <time>2021-04-29T14:37:10Z</time>
      </trkpt>
      <trkpt lat="46.72412" lon="5.96257">
        <ele>583.8</ele>
        <time>2021-04-29T14:37:15Z</time>
      </trkpt>
      <trkpt lat="46.72408" lon="5.96253">
        <ele>583.9</ele>
        <time>2021-04-29T14:37:20Z</time>
      </trkpt>
      <trkpt lat="46.72404" lon="5.96248">
        <ele>584.2</ele>
        <time>2021-04-29T14:37:25Z</time>
      </trkpt>
      <trkpt lat="46.72399" lon="5.96245">
        <ele>584.7</ele>
        <time>2021-04-29T14:37:31Z</time>
      </trkpt>
      <trkpt lat="46.72396" lon="5.96241">
        <ele>584.9</ele>
        <time>2021-04-29T14:37:36Z</time>
      </trkpt>
      <trkpt lat="46.72392" lon="5.96236">
        <ele>585.3</ele>
        <time>2021-04-29T14:37:41Z</time>
      </trkpt>
      <trkpt lat="46.72389" lon="5.96232">
        <ele>585.2</ele>
        <time>2021-04-29T14:37:46Z</time>
      </trkpt>
      <trkpt lat="46.72385" lon="5.96226">
        <ele>585.9</ele>
        <time>2021-04-29T14:37:52Z</time>
      </trkpt>
      <trkpt lat="46.72382" lon="5.96221">
        <ele>586.3</ele>
        <time>2021-04-29T14:37:57Z</time>
      </trkpt>
      <trkpt lat="46.72381" lon="5.96214">
        <ele>586.3</ele>
        <time>2021-04-29T14:38:02Z</time>
      </trkpt>
      <trkpt lat="46.72379" lon="5.96207">
        <ele>586.5</ele>
        <time>2021-04-29T14:38:08Z</time>
      </trkpt>
      <trkpt lat="46.72379" lon="5.96199">
        <ele>586.5</ele>
        <time>2021-04-29T14:38:14Z</time>
      </trkpt>
      <trkpt lat="46.7238" lon="5.96193">
        <ele>586</ele>
        <time>2021-04-29T14:38:19Z</time>
      </trkpt>
      <trkpt lat="46.72383" lon="5.96186">
        <ele>585.4</ele>
        <time>2021-04-29T14:38:25Z</time>
      </trkpt>
      <trkpt lat="46.72383" lon="5.96179">
        <ele>584.3</ele>
        <time>2021-04-29T14:38:31Z</time>
      </trkpt>
      <trkpt lat="46.72384" lon="5.96172">
        <ele>582.9</ele>
        <time>2021-04-29T14:38:36Z</time>
      </trkpt>
      <trkpt lat="46.72387" lon="5.96165">
        <ele>581.2</ele>
        <time>2021-04-29T14:38:42Z</time>
      </trkpt>
      <trkpt lat="46.7239" lon="5.9616">
        <ele>579.9</ele>
        <time>2021-04-29T14:38:48Z</time>
      </trkpt>
      <trkpt lat="46.72393" lon="5.96153">
        <ele>578.9</ele>
        <time>2021-04-29T14:38:56Z</time>
      </trkpt>
      <trkpt lat="46.72394" lon="5.96146">
        <ele>578.3</ele>
        <time>2021-04-29T14:39:02Z</time>
      </trkpt>
      <trkpt lat="46.72395" lon="5.96139">
        <ele>577</ele>
        <time>2021-04-29T14:39:08Z</time>
      </trkpt>
      <trkpt lat="46.72397" lon="5.96132">
        <ele>576.1</ele>
        <time>2021-04-29T14:39:14Z</time>
      </trkpt>
      <trkpt lat="46.72399" lon="5.96125">
        <ele>575.4</ele>
        <time>2021-04-29T14:39:19Z</time>
      </trkpt>
      <trkpt lat="46.72402" lon="5.9612">
        <ele>575.1</ele>
        <time>2021-04-29T14:39:23Z</time>
      </trkpt>
      <trkpt lat="46.72405" lon="5.96115">
        <ele>574.8</ele>
        <time>2021-04-29T14:39:29Z</time>
      </trkpt>
      <trkpt lat="46.72408" lon="5.96107">
        <ele>574.7</ele>
        <time>2021-04-29T14:39:35Z</time>
      </trkpt>
      <trkpt lat="46.72408" lon="5.961">
        <ele>575</ele>
        <time>2021-04-29T14:39:40Z</time>
      </trkpt>
      <trkpt lat="46.72411" lon="5.96094">
        <ele>574.5</ele>
        <time>2021-04-29T14:39:48Z</time>
      </trkpt>
      <trkpt lat="46.72415" lon="5.96089">
        <ele>573</ele>
        <time>2021-04-29T14:39:56Z</time>
      </trkpt>
      <trkpt lat="46.72417" lon="5.96083">
        <ele>572.1</ele>
        <time>2021-04-29T14:40:02Z</time>
      </trkpt>
      <trkpt lat="46.7242" lon="5.96077">
        <ele>571.6</ele>
        <time>2021-04-29T14:40:07Z</time>
      </trkpt>
      <trkpt lat="46.72424" lon="5.96073">
        <ele>571</ele>
        <time>2021-04-29T14:40:12Z</time>
      </trkpt>
      <trkpt lat="46.72426" lon="5.96066">
        <ele>570.9</ele>
        <time>2021-04-29T14:40:18Z</time>
      </trkpt>
      <trkpt lat="46.72429" lon="5.9606">
        <ele>571.2</ele>
        <time>2021-04-29T14:40:26Z</time>
      </trkpt>
      <trkpt lat="46.72434" lon="5.96057">
        <ele>571.2</ele>
        <time>2021-04-29T14:40:31Z</time>
      </trkpt>
      <trkpt lat="46.7244" lon="5.96056">
        <ele>570.9</ele>
        <time>2021-04-29T14:40:35Z</time>
      </trkpt>
      <trkpt lat="46.72445" lon="5.96054">
        <ele>570.9</ele>
        <time>2021-04-29T14:40:40Z</time>
      </trkpt>
      <trkpt lat="46.7245" lon="5.96054">
        <ele>570.9</ele>
        <time>2021-04-29T14:40:45Z</time>
      </trkpt>
      <trkpt lat="46.72455" lon="5.96055">
        <ele>570.6</ele>
        <time>2021-04-29T14:40:51Z</time>
      </trkpt>
      <trkpt lat="46.72459" lon="5.96053">
        <ele>569.7</ele>
        <time>2021-04-29T14:40:57Z</time>
      </trkpt>
      <trkpt lat="46.72461" lon="5.96046">
        <ele>569.8</ele>
        <time>2021-04-29T14:41:06Z</time>
      </trkpt>
      <trkpt lat="46.72462" lon="5.96039">
        <ele>570.2</ele>
        <time>2021-04-29T14:41:12Z</time>
      </trkpt>
      <trkpt lat="46.72463" lon="5.96032">
        <ele>570.7</ele>
        <time>2021-04-29T14:41:20Z</time>
      </trkpt>
      <trkpt lat="46.72458" lon="5.96018">
        <ele>574.4</ele>
        <time>2021-04-29T14:41:25Z</time>
      </trkpt>
      <trkpt lat="46.72453" lon="5.96006">
        <ele>577.8</ele>
        <time>2021-04-29T14:41:29Z</time>
      </trkpt>
      <trkpt lat="46.72452" lon="5.95999">
        <ele>582.2</ele>
        <time>2021-04-29T14:41:44Z</time>
      </trkpt>
      <trkpt lat="46.7245" lon="5.95991">
        <ele>581.6</ele>
        <time>2021-04-29T14:42:01Z</time>
      </trkpt>
      <trkpt lat="46.72446" lon="5.95986">
        <ele>580.8</ele>
        <time>2021-04-29T14:42:06Z</time>
      </trkpt>
      <trkpt lat="46.72447" lon="5.95979">
        <ele>579.4</ele>
        <time>2021-04-29T14:42:17Z</time>
      </trkpt>
      <trkpt lat="46.72447" lon="5.95973">
        <ele>577.9</ele>
        <time>2021-04-29T14:42:25Z</time>
      </trkpt>
      <trkpt lat="46.72446" lon="5.95965">
        <ele>576.8</ele>
        <time>2021-04-29T14:42:33Z</time>
      </trkpt>
      <trkpt lat="46.72443" lon="5.95959">
        <ele>576.4</ele>
        <time>2021-04-29T14:42:40Z</time>
      </trkpt>
      <trkpt lat="46.7244" lon="5.95954">
        <ele>576</ele>
        <time>2021-04-29T14:42:47Z</time>
      </trkpt>
      <trkpt lat="46.7244" lon="5.9596">
        <ele>574.5</ele>
        <time>2021-04-29T14:43:47Z</time>
      </trkpt>
      <trkpt lat="46.72439" lon="5.95954">
        <ele>574.1</ele>
        <time>2021-04-29T14:44:19Z</time>
      </trkpt>
      <trkpt lat="46.72436" lon="5.95948">
        <ele>573.6</ele>
        <time>2021-04-29T14:44:34Z</time>
      </trkpt>
      <trkpt lat="46.72435" lon="5.95942">
        <ele>573.3</ele>
        <time>2021-04-29T14:44:39Z</time>
      </trkpt>
      <trkpt lat="46.72434" lon="5.95935">
        <ele>572.1</ele>
        <time>2021-04-29T14:44:52Z</time>
      </trkpt>
      <trkpt lat="46.72429" lon="5.95937">
        <ele>571.3</ele>
        <time>2021-04-29T14:45:34Z</time>
      </trkpt>
      <trkpt lat="46.72426" lon="5.95933">
        <ele>571.3</ele>
        <time>2021-04-29T14:46:05Z</time>
      </trkpt>
      <trkpt lat="46.72425" lon="5.95926">
        <ele>571.2</ele>
        <time>2021-04-29T14:46:11Z</time>
      </trkpt>
      <trkpt lat="46.72426" lon="5.95919">
        <ele>571.2</ele>
        <time>2021-04-29T14:46:18Z</time>
      </trkpt>
      <trkpt lat="46.72424" lon="5.95911">
        <ele>570.5</ele>
        <time>2021-04-29T14:46:27Z</time>
      </trkpt>
      <trkpt lat="46.72422" lon="5.95906">
        <ele>569.6</ele>
        <time>2021-04-29T14:46:32Z</time>
      </trkpt>
      <trkpt lat="46.7242" lon="5.95899">
        <ele>568.5</ele>
        <time>2021-04-29T14:46:37Z</time>
      </trkpt>
      <trkpt lat="46.7242" lon="5.95892">
        <ele>567.5</ele>
        <time>2021-04-29T14:46:43Z</time>
      </trkpt>
      <trkpt lat="46.7242" lon="5.95884">
        <ele>567.6</ele>
        <time>2021-04-29T14:46:48Z</time>
      </trkpt>
      <trkpt lat="46.72417" lon="5.95877">
        <ele>568</ele>
        <time>2021-04-29T14:46:54Z</time>
      </trkpt>
      <trkpt lat="46.72415" lon="5.95871">
        <ele>568.1</ele>
        <time>2021-04-29T14:46:59Z</time>
      </trkpt>
      <trkpt lat="46.72415" lon="5.95864">
        <ele>568.6</ele>
        <time>2021-04-29T14:47:04Z</time>
      </trkpt>
      <trkpt lat="46.72414" lon="5.95857">
        <ele>569.6</ele>
        <time>2021-04-29T14:47:11Z</time>
      </trkpt>
      <trkpt lat="46.72413" lon="5.9585">
        <ele>571.2</ele>
        <time>2021-04-29T14:47:17Z</time>
      </trkpt>
      <trkpt lat="46.72412" lon="5.95843">
        <ele>571.6</ele>
        <time>2021-04-29T14:47:24Z</time>
      </trkpt>
      <trkpt lat="46.7241" lon="5.95836">
        <ele>571</ele>
        <time>2021-04-29T14:47:30Z</time>
      </trkpt>
      <trkpt lat="46.72409" lon="5.95829">
        <ele>570.7</ele>
        <time>2021-04-29T14:47:36Z</time>
      </trkpt>
      <trkpt lat="46.72406" lon="5.95824">
        <ele>570.7</ele>
        <time>2021-04-29T14:47:41Z</time>
      </trkpt>
      <trkpt lat="46.72403" lon="5.95818">
        <ele>570.3</ele>
        <time>2021-04-29T14:47:47Z</time>
      </trkpt>
      <trkpt lat="46.724" lon="5.95813">
        <ele>570</ele>
        <time>2021-04-29T14:47:52Z</time>
      </trkpt>
      <trkpt lat="46.72396" lon="5.95808">
        <ele>569.6</ele>
        <time>2021-04-29T14:47:56Z</time>
      </trkpt>
      <trkpt lat="46.72393" lon="5.95803">
        <ele>569</ele>
        <time>2021-04-29T14:48:01Z</time>
      </trkpt>
      <trkpt lat="46.7239" lon="5.95798">
        <ele>569</ele>
        <time>2021-04-29T14:48:06Z</time>
      </trkpt>
      <trkpt lat="46.72386" lon="5.95793">
        <ele>569</ele>
        <time>2021-04-29T14:48:14Z</time>
      </trkpt>
      <trkpt lat="46.72389" lon="5.95786">
        <ele>568.1</ele>
        <time>2021-04-29T14:48:33Z</time>
      </trkpt>
      <trkpt lat="46.72393" lon="5.95786">
        <ele>567.8</ele>
        <time>2021-04-29T14:48:38Z</time>
      </trkpt>
      <trkpt lat="46.72398" lon="5.95788">
        <ele>567.7</ele>
        <time>2021-04-29T14:48:48Z</time>
      </trkpt>
      <trkpt lat="46.72403" lon="5.95791">
        <ele>567.5</ele>
        <time>2021-04-29T14:48:55Z</time>
      </trkpt>
      <trkpt lat="46.72407" lon="5.95795">
        <ele>566.1</ele>
        <time>2021-04-29T14:49:02Z</time>
      </trkpt>
      <trkpt lat="46.72412" lon="5.95796">
        <ele>565.1</ele>
        <time>2021-04-29T14:49:08Z</time>
      </trkpt>
      <trkpt lat="46.72417" lon="5.95798">
        <ele>564.5</ele>
        <time>2021-04-29T14:49:13Z</time>
      </trkpt>
      <trkpt lat="46.72419" lon="5.95804">
        <ele>563.8</ele>
        <time>2021-04-29T14:49:24Z</time>
      </trkpt>
      <trkpt lat="46.72422" lon="5.95809">
        <ele>561.9</ele>
        <time>2021-04-29T14:49:59Z</time>
      </trkpt>
      <trkpt lat="46.72426" lon="5.95812">
        <ele>562.3</ele>
        <time>2021-04-29T14:50:06Z</time>
      </trkpt>
      <trkpt lat="46.72423" lon="5.95816">
        <ele>557.9</ele>
        <time>2021-04-29T14:52:53Z</time>
      </trkpt>
      <trkpt lat="46.72422" lon="5.95823">
        <ele>557.4</ele>
        <time>2021-04-29T14:52:58Z</time>
      </trkpt>
      <trkpt lat="46.72422" lon="5.9583">
        <ele>557</ele>
        <time>2021-04-29T14:53:05Z</time>
      </trkpt>
      <trkpt lat="46.72425" lon="5.95836">
        <ele>557.1</ele>
        <time>2021-04-29T14:53:12Z</time>
      </trkpt>
      <trkpt lat="46.72437" lon="5.95838">
        <ele>558.7</ele>
        <time>2021-04-29T14:53:16Z</time>
      </trkpt>
      <trkpt lat="46.72443" lon="5.9584">
        <ele>560</ele>
        <time>2021-04-29T14:53:20Z</time>
      </trkpt>
      <trkpt lat="46.72442" lon="5.95846">
        <ele>561.9</ele>
        <time>2021-04-29T14:53:35Z</time>
      </trkpt>
      <trkpt lat="46.72441" lon="5.95853">
        <ele>561.8</ele>
        <time>2021-04-29T14:53:48Z</time>
      </trkpt>
      <trkpt lat="46.72436" lon="5.95855">
        <ele>561.4</ele>
        <time>2021-04-29T14:53:57Z</time>
      </trkpt>
      <trkpt lat="46.72431" lon="5.95855">
        <ele>560.3</ele>
        <time>2021-04-29T14:54:24Z</time>
      </trkpt>
      <trkpt lat="46.72427" lon="5.95856">
        <ele>559.7</ele>
        <time>2021-04-29T14:54:34Z</time>
      </trkpt>
      <trkpt lat="46.72423" lon="5.95851">
        <ele>558.7</ele>
        <time>2021-04-29T14:54:53Z</time>
      </trkpt>
      <trkpt lat="46.72419" lon="5.95847">
        <ele>556.6</ele>
        <time>2021-04-29T14:55:04Z</time>
      </trkpt>
      <trkpt lat="46.7242" lon="5.9584">
        <ele>555</ele>
        <time>2021-04-29T14:55:16Z</time>
      </trkpt>
      <trkpt lat="46.72424" lon="5.95836">
        <ele>554.9</ele>
        <time>2021-04-29T14:55:23Z</time>
      </trkpt>
      <trkpt lat="46.72423" lon="5.95828">
        <ele>553.2</ele>
        <time>2021-04-29T14:55:45Z</time>
      </trkpt>
      <trkpt lat="46.72422" lon="5.9582">
        <ele>552.6</ele>
        <time>2021-04-29T14:55:50Z</time>
      </trkpt>
      <trkpt lat="46.72422" lon="5.95814">
        <ele>552.7</ele>
        <time>2021-04-29T14:56:00Z</time>
      </trkpt>
      <trkpt lat="46.72417" lon="5.95811">
        <ele>551.2</ele>
        <time>2021-04-29T14:56:56Z</time>
      </trkpt>
      <trkpt lat="46.72414" lon="5.95807">
        <ele>549.8</ele>
        <time>2021-04-29T14:57:18Z</time>
      </trkpt>
      <trkpt lat="46.7241" lon="5.95802">
        <ele>549.7</ele>
        <time>2021-04-29T14:57:28Z</time>
      </trkpt>
      <trkpt lat="46.72406" lon="5.95798">
        <ele>550.6</ele>
        <time>2021-04-29T14:57:35Z</time>
      </trkpt>
      <trkpt lat="46.72401" lon="5.95795">
        <ele>551.8</ele>
        <time>2021-04-29T14:57:41Z</time>
      </trkpt>
      <trkpt lat="46.72396" lon="5.95793">
        <ele>553.3</ele>
        <time>2021-04-29T14:57:47Z</time>
      </trkpt>
      <trkpt lat="46.72392" lon="5.9579">
        <ele>555.5</ele>
        <time>2021-04-29T14:57:54Z</time>
      </trkpt>
      <trkpt lat="46.72388" lon="5.95787">
        <ele>559.1</ele>
        <time>2021-04-29T14:58:06Z</time>
      </trkpt>
      <trkpt lat="46.72383" lon="5.95784">
        <ele>561.2</ele>
        <time>2021-04-29T14:58:15Z</time>
      </trkpt>
      <trkpt lat="46.7238" lon="5.9578">
        <ele>562.6</ele>
        <time>2021-04-29T14:58:22Z</time>
      </trkpt>
      <trkpt lat="46.72376" lon="5.95774">
        <ele>564</ele>
        <time>2021-04-29T14:58:28Z</time>
      </trkpt>
      <trkpt lat="46.72373" lon="5.9577">
        <ele>565.9</ele>
        <time>2021-04-29T14:58:32Z</time>
      </trkpt>
      <trkpt lat="46.7237" lon="5.95763">
        <ele>567.7</ele>
        <time>2021-04-29T14:58:36Z</time>
      </trkpt>
      <trkpt lat="46.72368" lon="5.95757">
        <ele>569</ele>
        <time>2021-04-29T14:58:41Z</time>
      </trkpt>
      <trkpt lat="46.72365" lon="5.95751">
        <ele>569.6</ele>
        <time>2021-04-29T14:58:48Z</time>
      </trkpt>
      <trkpt lat="46.72362" lon="5.95746">
        <ele>569.5</ele>
        <time>2021-04-29T14:58:55Z</time>
      </trkpt>
      <trkpt lat="46.72359" lon="5.9574">
        <ele>569.3</ele>
        <time>2021-04-29T14:59:01Z</time>
      </trkpt>
      <trkpt lat="46.72356" lon="5.95734">
        <ele>569</ele>
        <time>2021-04-29T14:59:06Z</time>
      </trkpt>
      <trkpt lat="46.72352" lon="5.95731">
        <ele>568.6</ele>
        <time>2021-04-29T14:59:12Z</time>
      </trkpt>
      <trkpt lat="46.72348" lon="5.95726">
        <ele>567.8</ele>
        <time>2021-04-29T14:59:18Z</time>
      </trkpt>
      <trkpt lat="46.72343" lon="5.95724">
        <ele>567.2</ele>
        <time>2021-04-29T14:59:24Z</time>
      </trkpt>
      <trkpt lat="46.72337" lon="5.95722">
        <ele>566.8</ele>
        <time>2021-04-29T14:59:28Z</time>
      </trkpt>
      <trkpt lat="46.72332" lon="5.9572">
        <ele>566.6</ele>
        <time>2021-04-29T14:59:32Z</time>
      </trkpt>
      <trkpt lat="46.72327" lon="5.95716">
        <ele>566.2</ele>
        <time>2021-04-29T14:59:36Z</time>
      </trkpt>
      <trkpt lat="46.72322" lon="5.95712">
        <ele>565.4</ele>
        <time>2021-04-29T14:59:40Z</time>
      </trkpt>
      <trkpt lat="46.72318" lon="5.95707">
        <ele>564.3</ele>
        <time>2021-04-29T14:59:45Z</time>
      </trkpt>
      <trkpt lat="46.72316" lon="5.957">
        <ele>562.7</ele>
        <time>2021-04-29T14:59:51Z</time>
      </trkpt>
      <trkpt lat="46.72317" lon="5.95693">
        <ele>561.1</ele>
        <time>2021-04-29T14:59:57Z</time>
      </trkpt>
      <trkpt lat="46.72316" lon="5.95685">
        <ele>559.8</ele>
        <time>2021-04-29T15:00:02Z</time>
      </trkpt>
      <trkpt lat="46.72316" lon="5.95678">
        <ele>558.3</ele>
        <time>2021-04-29T15:00:08Z</time>
      </trkpt>
      <trkpt lat="46.72314" lon="5.9567">
        <ele>556.4</ele>
        <time>2021-04-29T15:00:13Z</time>
      </trkpt>
      <trkpt lat="46.72312" lon="5.95663">
        <ele>554.9</ele>
        <time>2021-04-29T15:00:18Z</time>
      </trkpt>
      <trkpt lat="46.72309" lon="5.95658">
        <ele>553</ele>
        <time>2021-04-29T15:00:25Z</time>
      </trkpt>
      <trkpt lat="46.72306" lon="5.95653">
        <ele>551.2</ele>
        <time>2021-04-29T15:00:34Z</time>
      </trkpt>
      <trkpt lat="46.72305" lon="5.95642">
        <ele>554.2</ele>
        <time>2021-04-29T15:00:38Z</time>
      </trkpt>
      <trkpt lat="46.72304" lon="5.95635">
        <ele>557.5</ele>
        <time>2021-04-29T15:00:43Z</time>
      </trkpt>
      <trkpt lat="46.72299" lon="5.95629">
        <ele>560.6</ele>
        <time>2021-04-29T15:00:47Z</time>
      </trkpt>
      <trkpt lat="46.72296" lon="5.95621">
        <ele>563.7</ele>
        <time>2021-04-29T15:00:53Z</time>
      </trkpt>
      <trkpt lat="46.72294" lon="5.95615">
        <ele>565.2</ele>
        <time>2021-04-29T15:00:57Z</time>
      </trkpt>
      <trkpt lat="46.72293" lon="5.95608">
        <ele>567.6</ele>
        <time>2021-04-29T15:01:05Z</time>
      </trkpt>
      <trkpt lat="46.72291" lon="5.95601">
        <ele>568.8</ele>
        <time>2021-04-29T15:01:12Z</time>
      </trkpt>
      <trkpt lat="46.72288" lon="5.95595">
        <ele>568.6</ele>
        <time>2021-04-29T15:01:17Z</time>
      </trkpt>
      <trkpt lat="46.72287" lon="5.95589">
        <ele>567.5</ele>
        <time>2021-04-29T15:01:23Z</time>
      </trkpt>
      <trkpt lat="46.72285" lon="5.95583">
        <ele>566.3</ele>
        <time>2021-04-29T15:01:29Z</time>
      </trkpt>
      <trkpt lat="46.72285" lon="5.95576">
        <ele>564.1</ele>
        <time>2021-04-29T15:01:36Z</time>
      </trkpt>
      <trkpt lat="46.72289" lon="5.9558">
        <ele>561.8</ele>
        <time>2021-04-29T15:01:44Z</time>
      </trkpt>
      <trkpt lat="46.72292" lon="5.95585">
        <ele>560.5</ele>
        <time>2021-04-29T15:01:49Z</time>
      </trkpt>
      <trkpt lat="46.72297" lon="5.95587">
        <ele>558.9</ele>
        <time>2021-04-29T15:01:54Z</time>
      </trkpt>
      <trkpt lat="46.72301" lon="5.95591">
        <ele>557.2</ele>
        <time>2021-04-29T15:02:01Z</time>
      </trkpt>
      <trkpt lat="46.72306" lon="5.95595">
        <ele>555.9</ele>
        <time>2021-04-29T15:02:06Z</time>
      </trkpt>
      <trkpt lat="46.7231" lon="5.95597">
        <ele>554.8</ele>
        <time>2021-04-29T15:02:10Z</time>
      </trkpt>
      <trkpt lat="46.72314" lon="5.95601">
        <ele>553.3</ele>
        <time>2021-04-29T15:02:15Z</time>
      </trkpt>
      <trkpt lat="46.72319" lon="5.95604">
        <ele>551.4</ele>
        <time>2021-04-29T15:02:20Z</time>
      </trkpt>
      <trkpt lat="46.72323" lon="5.95607">
        <ele>549.5</ele>
        <time>2021-04-29T15:02:25Z</time>
      </trkpt>
      <trkpt lat="46.72328" lon="5.95611">
        <ele>547</ele>
        <time>2021-04-29T15:02:30Z</time>
      </trkpt>
      <trkpt lat="46.72332" lon="5.95614">
        <ele>544.8</ele>
        <time>2021-04-29T15:02:34Z</time>
      </trkpt>
      <trkpt lat="46.72337" lon="5.95618">
        <ele>542.7</ele>
        <time>2021-04-29T15:02:38Z</time>
      </trkpt>
      <trkpt lat="46.72341" lon="5.95622">
        <ele>541.3</ele>
        <time>2021-04-29T15:02:42Z</time>
      </trkpt>
      <trkpt lat="46.72345" lon="5.95626">
        <ele>540.2</ele>
        <time>2021-04-29T15:02:47Z</time>
      </trkpt>
      <trkpt lat="46.72349" lon="5.95631">
        <ele>539.7</ele>
        <time>2021-04-29T15:02:52Z</time>
      </trkpt>
      <trkpt lat="46.7235" lon="5.95638">
        <ele>537.4</ele>
        <time>2021-04-29T15:02:58Z</time>
      </trkpt>
      <trkpt lat="46.72352" lon="5.95646">
        <ele>533.9</ele>
        <time>2021-04-29T15:03:03Z</time>
      </trkpt>
      <trkpt lat="46.72355" lon="5.9565">
        <ele>531.6</ele>
        <time>2021-04-29T15:03:07Z</time>
      </trkpt>
      <trkpt lat="46.72359" lon="5.95655">
        <ele>529.8</ele>
        <time>2021-04-29T15:03:12Z</time>
      </trkpt>
      <trkpt lat="46.72363" lon="5.95658">
        <ele>529.3</ele>
        <time>2021-04-29T15:03:16Z</time>
      </trkpt>
      <trkpt lat="46.72367" lon="5.95662">
        <ele>529.4</ele>
        <time>2021-04-29T15:03:20Z</time>
      </trkpt>
      <trkpt lat="46.72372" lon="5.95664">
        <ele>529.9</ele>
        <time>2021-04-29T15:03:24Z</time>
      </trkpt>
      <trkpt lat="46.72376" lon="5.95667">
        <ele>530.6</ele>
        <time>2021-04-29T15:03:29Z</time>
      </trkpt>
      <trkpt lat="46.72381" lon="5.9567">
        <ele>531.5</ele>
        <time>2021-04-29T15:03:35Z</time>
      </trkpt>
      <trkpt lat="46.72385" lon="5.95672">
        <ele>532.7</ele>
        <time>2021-04-29T15:03:41Z</time>
      </trkpt>
      <trkpt lat="46.7239" lon="5.95674">
        <ele>533.6</ele>
        <time>2021-04-29T15:03:46Z</time>
      </trkpt>
      <trkpt lat="46.72394" lon="5.95677">
        <ele>534</ele>
        <time>2021-04-29T15:03:50Z</time>
      </trkpt>
      <trkpt lat="46.72399" lon="5.95679">
        <ele>534.4</ele>
        <time>2021-04-29T15:03:54Z</time>
      </trkpt>
      <trkpt lat="46.72404" lon="5.95682">
        <ele>533.5</ele>
        <time>2021-04-29T15:03:59Z</time>
      </trkpt>
      <trkpt lat="46.7241" lon="5.95684">
        <ele>533.3</ele>
        <time>2021-04-29T15:04:03Z</time>
      </trkpt>
      <trkpt lat="46.72414" lon="5.95687">
        <ele>533.3</ele>
        <time>2021-04-29T15:04:08Z</time>
      </trkpt>
      <trkpt lat="46.7242" lon="5.9569">
        <ele>533</ele>
        <time>2021-04-29T15:04:13Z</time>
      </trkpt>
      <trkpt lat="46.72424" lon="5.95693">
        <ele>532.3</ele>
        <time>2021-04-29T15:04:19Z</time>
      </trkpt>
      <trkpt lat="46.72429" lon="5.95696">
        <ele>532</ele>
        <time>2021-04-29T15:04:24Z</time>
      </trkpt>
      <trkpt lat="46.72433" lon="5.95698">
        <ele>532.3</ele>
        <time>2021-04-29T15:04:28Z</time>
      </trkpt>
      <trkpt lat="46.7243" lon="5.95703">
        <ele>532.7</ele>
        <time>2021-04-29T15:04:59Z</time>
      </trkpt>
      <trkpt lat="46.72427" lon="5.95699">
        <ele>532.9</ele>
        <time>2021-04-29T15:05:11Z</time>
      </trkpt>
      <trkpt lat="46.72431" lon="5.95698">
        <ele>533.7</ele>
        <time>2021-04-29T15:05:41Z</time>
      </trkpt>
      <trkpt lat="46.72432" lon="5.95691">
        <ele>533.8</ele>
        <time>2021-04-29T15:05:46Z</time>
      </trkpt>
      <trkpt lat="46.72433" lon="5.95683">
        <ele>534</ele>
        <time>2021-04-29T15:05:51Z</time>
      </trkpt>
      <trkpt lat="46.72433" lon="5.95676">
        <ele>534.5</ele>
        <time>2021-04-29T15:05:55Z</time>
      </trkpt>
      <trkpt lat="46.72432" lon="5.95669">
        <ele>535</ele>
        <time>2021-04-29T15:05:59Z</time>
      </trkpt>
      <trkpt lat="46.72432" lon="5.95662">
        <ele>535.3</ele>
        <time>2021-04-29T15:06:03Z</time>
      </trkpt>
      <trkpt lat="46.7243" lon="5.95655">
        <ele>535.4</ele>
        <time>2021-04-29T15:06:07Z</time>
      </trkpt>
      <trkpt lat="46.72431" lon="5.95648">
        <ele>535.2</ele>
        <time>2021-04-29T15:06:12Z</time>
      </trkpt>
      <trkpt lat="46.72434" lon="5.95643">
        <ele>534.8</ele>
        <time>2021-04-29T15:06:17Z</time>
      </trkpt>
      <trkpt lat="46.72437" lon="5.95638">
        <ele>534.4</ele>
        <time>2021-04-29T15:06:25Z</time>
      </trkpt>
      <trkpt lat="46.7244" lon="5.95633">
        <ele>534.7</ele>
        <time>2021-04-29T15:06:33Z</time>
      </trkpt>
      <trkpt lat="46.72444" lon="5.95628">
        <ele>534.7</ele>
        <time>2021-04-29T15:06:39Z</time>
      </trkpt>
      <trkpt lat="46.72447" lon="5.95622">
        <ele>534.1</ele>
        <time>2021-04-29T15:06:44Z</time>
      </trkpt>
      <trkpt lat="46.7245" lon="5.95616">
        <ele>533.6</ele>
        <time>2021-04-29T15:06:50Z</time>
      </trkpt>
      <trkpt lat="46.72455" lon="5.95615">
        <ele>533.9</ele>
        <time>2021-04-29T15:06:58Z</time>
      </trkpt>
      <trkpt lat="46.72459" lon="5.95619">
        <ele>534.9</ele>
        <time>2021-04-29T15:07:08Z</time>
      </trkpt>
      <trkpt lat="46.72461" lon="5.95625">
        <ele>535.2</ele>
        <time>2021-04-29T15:07:14Z</time>
      </trkpt>
      <trkpt lat="46.72465" lon="5.9563">
        <ele>535</ele>
        <time>2021-04-29T15:07:21Z</time>
      </trkpt>
      <trkpt lat="46.72461" lon="5.95633">
        <ele>534.6</ele>
        <time>2021-04-29T15:07:41Z</time>
      </trkpt>
      <trkpt lat="46.72466" lon="5.95632">
        <ele>537.5</ele>
        <time>2021-04-29T15:08:33Z</time>
      </trkpt>
      <trkpt lat="46.72461" lon="5.95632">
        <ele>537.7</ele>
        <time>2021-04-29T15:09:42Z</time>
      </trkpt>
    </trkseg>
  </trk>
</gpx>